<?xml version="1.0" encoding="UTF-8" standalone="no" ?>
<gpx xmlns="http://www.topografix.com/GPX/1/1" xmlns:xsi="http://www.w3.org/2001/XMLSchema-instance" xsi:schemaLocation="http://www.topografix.com/GPX/1/1 http://www.topografix.com/GPX/1/1/gpx.xsd" version="1.1" creator="VisuGPX - https://www.visugpx.com">
  <metadata>
    <name>Chartreuse : Mont Joigny - Col des Fontanettes</name>
    <desc><![CDATA[Quelques passages exposés "avec les mains" après la Pointe de la Gorgeat ... à éviter par temps humide ...
A noter : ammonite de grande taille (35 cm) sur une dalle rocheuse, à la bifurcation avant les granges de Joigny (remonter 20m le sentier en direction de la pointe de la Gorgeat) ...]]></desc>
  </metadata>
  <trk>
    <name><![CDATA[16-JUIN-19 16:47:52]]></name>
    <trkseg>
      <trkpt lat="45.48035" lon="5.9152">
        <ele>1132.57</ele>
        <time>2019-06-16T08:18:36Z</time>
      </trkpt>
      <trkpt lat="45.48034" lon="5.9152">
        <ele>1139.3</ele>
        <time>2019-06-16T08:18:37Z</time>
      </trkpt>
      <trkpt lat="45.48034" lon="5.9152">
        <ele>1132.09</ele>
        <time>2019-06-16T08:18:38Z</time>
      </trkpt>
      <trkpt lat="45.48033" lon="5.9152">
        <ele>1135.45</ele>
        <time>2019-06-16T08:18:45Z</time>
      </trkpt>
      <trkpt lat="45.48033" lon="5.91519">
        <ele>1135.45</ele>
        <time>2019-06-16T08:18:49Z</time>
      </trkpt>
      <trkpt lat="45.48033" lon="5.91517">
        <ele>1136.9</ele>
        <time>2019-06-16T08:19:14Z</time>
      </trkpt>
      <trkpt lat="45.48036" lon="5.9152">
        <ele>1136.42</ele>
        <time>2019-06-16T08:19:38Z</time>
      </trkpt>
      <trkpt lat="45.48032" lon="5.91521">
        <ele>1136.9</ele>
        <time>2019-06-16T08:20:02Z</time>
      </trkpt>
      <trkpt lat="45.48032" lon="5.91518">
        <ele>1137.38</ele>
        <time>2019-06-16T08:20:17Z</time>
      </trkpt>
      <trkpt lat="45.48032" lon="5.91518">
        <ele>1137.86</ele>
        <time>2019-06-16T08:20:28Z</time>
      </trkpt>
      <trkpt lat="45.48031" lon="5.9152">
        <ele>1137.86</ele>
        <time>2019-06-16T08:20:40Z</time>
      </trkpt>
      <trkpt lat="45.48031" lon="5.91513">
        <ele>1138.34</ele>
        <time>2019-06-16T08:20:54Z</time>
      </trkpt>
      <trkpt lat="45.4803" lon="5.91514">
        <ele>1138.34</ele>
        <time>2019-06-16T08:20:57Z</time>
      </trkpt>
      <trkpt lat="45.48031" lon="5.91512">
        <ele>1138.34</ele>
        <time>2019-06-16T08:21:06Z</time>
      </trkpt>
      <trkpt lat="45.48033" lon="5.91499">
        <ele>1138.82</ele>
        <time>2019-06-16T08:21:19Z</time>
      </trkpt>
      <trkpt lat="45.4803" lon="5.91492">
        <ele>1138.34</ele>
        <time>2019-06-16T08:21:33Z</time>
      </trkpt>
      <trkpt lat="45.48032" lon="5.9149">
        <ele>1138.34</ele>
        <time>2019-06-16T08:21:49Z</time>
      </trkpt>
      <trkpt lat="45.4803" lon="5.91484">
        <ele>1138.34</ele>
        <time>2019-06-16T08:21:55Z</time>
      </trkpt>
      <trkpt lat="45.48025" lon="5.91464">
        <ele>1137.38</ele>
        <time>2019-06-16T08:22:08Z</time>
      </trkpt>
      <trkpt lat="45.48013" lon="5.91443">
        <ele>1136.9</ele>
        <time>2019-06-16T08:22:23Z</time>
      </trkpt>
      <trkpt lat="45.48012" lon="5.9144">
        <ele>1136.9</ele>
        <time>2019-06-16T08:22:26Z</time>
      </trkpt>
      <trkpt lat="45.48013" lon="5.91425">
        <ele>1137.38</ele>
        <time>2019-06-16T08:22:39Z</time>
      </trkpt>
      <trkpt lat="45.48015" lon="5.91419">
        <ele>1137.38</ele>
        <time>2019-06-16T08:22:55Z</time>
      </trkpt>
      <trkpt lat="45.48021" lon="5.91417">
        <ele>1138.34</ele>
        <time>2019-06-16T08:23:09Z</time>
      </trkpt>
      <trkpt lat="45.48015" lon="5.91407">
        <ele>1137.86</ele>
        <time>2019-06-16T08:23:32Z</time>
      </trkpt>
      <trkpt lat="45.48013" lon="5.91396">
        <ele>1137.86</ele>
        <time>2019-06-16T08:23:44Z</time>
      </trkpt>
      <trkpt lat="45.48013" lon="5.91381">
        <ele>1139.3</ele>
        <time>2019-06-16T08:23:57Z</time>
      </trkpt>
      <trkpt lat="45.4801" lon="5.91362">
        <ele>1139.78</ele>
        <time>2019-06-16T08:24:10Z</time>
      </trkpt>
      <trkpt lat="45.48012" lon="5.91346">
        <ele>1140.74</ele>
        <time>2019-06-16T08:24:22Z</time>
      </trkpt>
      <trkpt lat="45.48016" lon="5.91333">
        <ele>1141.7</ele>
        <time>2019-06-16T08:24:33Z</time>
      </trkpt>
      <trkpt lat="45.48017" lon="5.91315">
        <ele>1142.18</ele>
        <time>2019-06-16T08:24:48Z</time>
      </trkpt>
      <trkpt lat="45.48017" lon="5.91302">
        <ele>1142.66</ele>
        <time>2019-06-16T08:25:03Z</time>
      </trkpt>
      <trkpt lat="45.48018" lon="5.91283">
        <ele>1144.11</ele>
        <time>2019-06-16T08:25:22Z</time>
      </trkpt>
      <trkpt lat="45.4802" lon="5.91269">
        <ele>1145.07</ele>
        <time>2019-06-16T08:25:38Z</time>
      </trkpt>
      <trkpt lat="45.48021" lon="5.91256">
        <ele>1146.99</ele>
        <time>2019-06-16T08:25:51Z</time>
      </trkpt>
      <trkpt lat="45.4802" lon="5.91251">
        <ele>1146.03</ele>
        <time>2019-06-16T08:25:55Z</time>
      </trkpt>
      <trkpt lat="45.48019" lon="5.91233">
        <ele>1147.95</ele>
        <time>2019-06-16T08:26:09Z</time>
      </trkpt>
      <trkpt lat="45.48019" lon="5.91221">
        <ele>1149.39</ele>
        <time>2019-06-16T08:26:19Z</time>
      </trkpt>
      <trkpt lat="45.48018" lon="5.9121">
        <ele>1149.87</ele>
        <time>2019-06-16T08:26:30Z</time>
      </trkpt>
      <trkpt lat="45.48016" lon="5.91196">
        <ele>1150.84</ele>
        <time>2019-06-16T08:26:42Z</time>
      </trkpt>
      <trkpt lat="45.48012" lon="5.91177">
        <ele>1153.72</ele>
        <time>2019-06-16T08:26:55Z</time>
      </trkpt>
      <trkpt lat="45.48008" lon="5.91159">
        <ele>1154.2</ele>
        <time>2019-06-16T08:27:10Z</time>
      </trkpt>
      <trkpt lat="45.48" lon="5.91145">
        <ele>1155.64</ele>
        <time>2019-06-16T08:27:22Z</time>
      </trkpt>
      <trkpt lat="45.48" lon="5.91147">
        <ele>1155.16</ele>
        <time>2019-06-16T08:27:35Z</time>
      </trkpt>
      <trkpt lat="45.47999" lon="5.91144">
        <ele>1155.64</ele>
        <time>2019-06-16T08:27:55Z</time>
      </trkpt>
      <trkpt lat="45.47993" lon="5.91133">
        <ele>1156.12</ele>
        <time>2019-06-16T08:28:09Z</time>
      </trkpt>
      <trkpt lat="45.47988" lon="5.91125">
        <ele>1156.12</ele>
        <time>2019-06-16T08:28:26Z</time>
      </trkpt>
      <trkpt lat="45.47983" lon="5.91115">
        <ele>1157.08</ele>
        <time>2019-06-16T08:28:42Z</time>
      </trkpt>
      <trkpt lat="45.47979" lon="5.91108">
        <ele>1157.56</ele>
        <time>2019-06-16T08:28:55Z</time>
      </trkpt>
      <trkpt lat="45.47975" lon="5.91096">
        <ele>1158.05</ele>
        <time>2019-06-16T08:29:08Z</time>
      </trkpt>
      <trkpt lat="45.47971" lon="5.91086">
        <ele>1159.01</ele>
        <time>2019-06-16T08:29:16Z</time>
      </trkpt>
      <trkpt lat="45.47966" lon="5.91062">
        <ele>1159.01</ele>
        <time>2019-06-16T08:29:33Z</time>
      </trkpt>
      <trkpt lat="45.4796" lon="5.9104">
        <ele>1159.97</ele>
        <time>2019-06-16T08:29:49Z</time>
      </trkpt>
      <trkpt lat="45.47957" lon="5.91023">
        <ele>1159.01</ele>
        <time>2019-06-16T08:30:01Z</time>
      </trkpt>
      <trkpt lat="45.47956" lon="5.91018">
        <ele>1159.49</ele>
        <time>2019-06-16T08:30:04Z</time>
      </trkpt>
      <trkpt lat="45.47954" lon="5.91011">
        <ele>1159.49</ele>
        <time>2019-06-16T08:30:08Z</time>
      </trkpt>
      <trkpt lat="45.47953" lon="5.91007">
        <ele>1160.45</ele>
        <time>2019-06-16T08:30:11Z</time>
      </trkpt>
      <trkpt lat="45.4795" lon="5.90988">
        <ele>1159.97</ele>
        <time>2019-06-16T08:30:24Z</time>
      </trkpt>
      <trkpt lat="45.47947" lon="5.90973">
        <ele>1160.45</ele>
        <time>2019-06-16T08:30:36Z</time>
      </trkpt>
      <trkpt lat="45.47945" lon="5.90953">
        <ele>1161.89</ele>
        <time>2019-06-16T08:30:50Z</time>
      </trkpt>
      <trkpt lat="45.47944" lon="5.90946">
        <ele>1163.33</ele>
        <time>2019-06-16T08:31:02Z</time>
      </trkpt>
      <trkpt lat="45.47949" lon="5.90947">
        <ele>1165.26</ele>
        <time>2019-06-16T08:31:08Z</time>
      </trkpt>
      <trkpt lat="45.47955" lon="5.90949">
        <ele>1167.18</ele>
        <time>2019-06-16T08:31:21Z</time>
      </trkpt>
      <trkpt lat="45.4796" lon="5.90956">
        <ele>1168.14</ele>
        <time>2019-06-16T08:31:34Z</time>
      </trkpt>
      <trkpt lat="45.4797" lon="5.90968">
        <ele>1169.58</ele>
        <time>2019-06-16T08:31:50Z</time>
      </trkpt>
      <trkpt lat="45.47979" lon="5.90976">
        <ele>1170.54</ele>
        <time>2019-06-16T08:32:04Z</time>
      </trkpt>
      <trkpt lat="45.47987" lon="5.9098">
        <ele>1172.95</ele>
        <time>2019-06-16T08:32:17Z</time>
      </trkpt>
      <trkpt lat="45.47996" lon="5.90984">
        <ele>1176.31</ele>
        <time>2019-06-16T08:32:33Z</time>
      </trkpt>
      <trkpt lat="45.48004" lon="5.90987">
        <ele>1178.23</ele>
        <time>2019-06-16T08:32:47Z</time>
      </trkpt>
      <trkpt lat="45.48011" lon="5.90994">
        <ele>1180.64</ele>
        <time>2019-06-16T08:33:01Z</time>
      </trkpt>
      <trkpt lat="45.4802" lon="5.91005">
        <ele>1182.56</ele>
        <time>2019-06-16T08:33:16Z</time>
      </trkpt>
      <trkpt lat="45.48025" lon="5.91015">
        <ele>1184.48</ele>
        <time>2019-06-16T08:33:31Z</time>
      </trkpt>
      <trkpt lat="45.48033" lon="5.91019">
        <ele>1186.4</ele>
        <time>2019-06-16T08:33:45Z</time>
      </trkpt>
      <trkpt lat="45.48041" lon="5.91024">
        <ele>1189.77</ele>
        <time>2019-06-16T08:33:59Z</time>
      </trkpt>
      <trkpt lat="45.4805" lon="5.91031">
        <ele>1190.73</ele>
        <time>2019-06-16T08:34:13Z</time>
      </trkpt>
      <trkpt lat="45.48057" lon="5.91036">
        <ele>1193.13</ele>
        <time>2019-06-16T08:34:25Z</time>
      </trkpt>
      <trkpt lat="45.48063" lon="5.9104">
        <ele>1196.02</ele>
        <time>2019-06-16T08:34:38Z</time>
      </trkpt>
      <trkpt lat="45.4807" lon="5.91053">
        <ele>1198.42</ele>
        <time>2019-06-16T08:34:53Z</time>
      </trkpt>
      <trkpt lat="45.48076" lon="5.91064">
        <ele>1200.34</ele>
        <time>2019-06-16T08:35:05Z</time>
      </trkpt>
      <trkpt lat="45.48078" lon="5.91067">
        <ele>1201.3</ele>
        <time>2019-06-16T08:35:16Z</time>
      </trkpt>
      <trkpt lat="45.48083" lon="5.9108">
        <ele>1202.75</ele>
        <time>2019-06-16T08:35:29Z</time>
      </trkpt>
      <trkpt lat="45.48089" lon="5.91094">
        <ele>1203.71</ele>
        <time>2019-06-16T08:35:43Z</time>
      </trkpt>
      <trkpt lat="45.48093" lon="5.91102">
        <ele>1205.15</ele>
        <time>2019-06-16T08:35:50Z</time>
      </trkpt>
      <trkpt lat="45.48098" lon="5.91108">
        <ele>1206.11</ele>
        <time>2019-06-16T08:36:03Z</time>
      </trkpt>
      <trkpt lat="45.48099" lon="5.91113">
        <ele>1205.15</ele>
        <time>2019-06-16T08:36:21Z</time>
      </trkpt>
      <trkpt lat="45.48103" lon="5.91128">
        <ele>1206.59</ele>
        <time>2019-06-16T08:36:34Z</time>
      </trkpt>
      <trkpt lat="45.48111" lon="5.91147">
        <ele>1206.59</ele>
        <time>2019-06-16T08:36:49Z</time>
      </trkpt>
      <trkpt lat="45.48122" lon="5.91165">
        <ele>1207.55</ele>
        <time>2019-06-16T08:37:03Z</time>
      </trkpt>
      <trkpt lat="45.48129" lon="5.91184">
        <ele>1207.55</ele>
        <time>2019-06-16T08:37:16Z</time>
      </trkpt>
      <trkpt lat="45.48135" lon="5.91199">
        <ele>1208.51</ele>
        <time>2019-06-16T08:37:29Z</time>
      </trkpt>
      <trkpt lat="45.48137" lon="5.91218">
        <ele>1209</ele>
        <time>2019-06-16T08:37:43Z</time>
      </trkpt>
      <trkpt lat="45.48146" lon="5.91236">
        <ele>1209</ele>
        <time>2019-06-16T08:37:56Z</time>
      </trkpt>
      <trkpt lat="45.48152" lon="5.91245">
        <ele>1207.55</ele>
        <time>2019-06-16T08:38:03Z</time>
      </trkpt>
      <trkpt lat="45.48161" lon="5.91261">
        <ele>1209</ele>
        <time>2019-06-16T08:38:18Z</time>
      </trkpt>
      <trkpt lat="45.4817" lon="5.91274">
        <ele>1209</ele>
        <time>2019-06-16T08:38:33Z</time>
      </trkpt>
      <trkpt lat="45.48178" lon="5.91285">
        <ele>1208.03</ele>
        <time>2019-06-16T08:38:46Z</time>
      </trkpt>
      <trkpt lat="45.48182" lon="5.91303">
        <ele>1206.11</ele>
        <time>2019-06-16T08:39:00Z</time>
      </trkpt>
      <trkpt lat="45.48184" lon="5.91317">
        <ele>1205.15</ele>
        <time>2019-06-16T08:39:13Z</time>
      </trkpt>
      <trkpt lat="45.48195" lon="5.9134">
        <ele>1205.15</ele>
        <time>2019-06-16T08:39:28Z</time>
      </trkpt>
      <trkpt lat="45.48202" lon="5.91347">
        <ele>1204.67</ele>
        <time>2019-06-16T08:39:39Z</time>
      </trkpt>
      <trkpt lat="45.48213" lon="5.91351">
        <ele>1204.67</ele>
        <time>2019-06-16T08:39:51Z</time>
      </trkpt>
      <trkpt lat="45.48221" lon="5.91364">
        <ele>1202.27</ele>
        <time>2019-06-16T08:40:04Z</time>
      </trkpt>
      <trkpt lat="45.48216" lon="5.91377">
        <ele>1200.82</ele>
        <time>2019-06-16T08:40:17Z</time>
      </trkpt>
      <trkpt lat="45.48217" lon="5.91381">
        <ele>1199.86</ele>
        <time>2019-06-16T08:40:33Z</time>
      </trkpt>
      <trkpt lat="45.48217" lon="5.91382">
        <ele>1199.38</ele>
        <time>2019-06-16T08:41:02Z</time>
      </trkpt>
      <trkpt lat="45.48214" lon="5.91379">
        <ele>1199.38</ele>
        <time>2019-06-16T08:41:21Z</time>
      </trkpt>
      <trkpt lat="45.48217" lon="5.91379">
        <ele>1199.38</ele>
        <time>2019-06-16T08:41:36Z</time>
      </trkpt>
      <trkpt lat="45.48221" lon="5.91381">
        <ele>1199.38</ele>
        <time>2019-06-16T08:42:09Z</time>
      </trkpt>
      <trkpt lat="45.48215" lon="5.91387">
        <ele>1199.86</ele>
        <time>2019-06-16T08:42:49Z</time>
      </trkpt>
      <trkpt lat="45.48218" lon="5.91382">
        <ele>1199.38</ele>
        <time>2019-06-16T08:43:19Z</time>
      </trkpt>
      <trkpt lat="45.48218" lon="5.91381">
        <ele>1199.86</ele>
        <time>2019-06-16T08:43:42Z</time>
      </trkpt>
      <trkpt lat="45.48218" lon="5.9138">
        <ele>1199.86</ele>
        <time>2019-06-16T08:44:08Z</time>
      </trkpt>
      <trkpt lat="45.4822" lon="5.91379">
        <ele>1197.94</ele>
        <time>2019-06-16T08:44:25Z</time>
      </trkpt>
      <trkpt lat="45.4822" lon="5.91376">
        <ele>1198.42</ele>
        <time>2019-06-16T08:44:57Z</time>
      </trkpt>
      <trkpt lat="45.4822" lon="5.91376">
        <ele>1200.82</ele>
        <time>2019-06-16T08:45:21Z</time>
      </trkpt>
      <trkpt lat="45.48216" lon="5.91382">
        <ele>1199.86</ele>
        <time>2019-06-16T08:45:40Z</time>
      </trkpt>
      <trkpt lat="45.48216" lon="5.91379">
        <ele>1200.34</ele>
        <time>2019-06-16T08:45:57Z</time>
      </trkpt>
      <trkpt lat="45.48218" lon="5.91379">
        <ele>1200.34</ele>
        <time>2019-06-16T08:46:23Z</time>
      </trkpt>
      <trkpt lat="45.48221" lon="5.91373">
        <ele>1199.86</ele>
        <time>2019-06-16T08:46:49Z</time>
      </trkpt>
      <trkpt lat="45.48217" lon="5.91372">
        <ele>1200.34</ele>
        <time>2019-06-16T08:47:18Z</time>
      </trkpt>
      <trkpt lat="45.48218" lon="5.91374">
        <ele>1200.82</ele>
        <time>2019-06-16T08:47:35Z</time>
      </trkpt>
      <trkpt lat="45.48225" lon="5.91358">
        <ele>1202.27</ele>
        <time>2019-06-16T08:47:49Z</time>
      </trkpt>
      <trkpt lat="45.48217" lon="5.91342">
        <ele>1204.19</ele>
        <time>2019-06-16T08:48:05Z</time>
      </trkpt>
      <trkpt lat="45.48203" lon="5.91338">
        <ele>1204.67</ele>
        <time>2019-06-16T08:48:19Z</time>
      </trkpt>
      <trkpt lat="45.48196" lon="5.9133">
        <ele>1205.15</ele>
        <time>2019-06-16T08:48:31Z</time>
      </trkpt>
      <trkpt lat="45.48194" lon="5.9132">
        <ele>1205.15</ele>
        <time>2019-06-16T08:48:43Z</time>
      </trkpt>
      <trkpt lat="45.48187" lon="5.91304">
        <ele>1206.11</ele>
        <time>2019-06-16T08:48:56Z</time>
      </trkpt>
      <trkpt lat="45.48185" lon="5.91284">
        <ele>1208.03</ele>
        <time>2019-06-16T08:49:14Z</time>
      </trkpt>
      <trkpt lat="45.48173" lon="5.91272">
        <ele>1209</ele>
        <time>2019-06-16T08:49:30Z</time>
      </trkpt>
      <trkpt lat="45.4817" lon="5.91258">
        <ele>1210.44</ele>
        <time>2019-06-16T08:49:41Z</time>
      </trkpt>
      <trkpt lat="45.4816" lon="5.91243">
        <ele>1208.51</ele>
        <time>2019-06-16T08:49:56Z</time>
      </trkpt>
      <trkpt lat="45.4815" lon="5.91232">
        <ele>1209</ele>
        <time>2019-06-16T08:50:08Z</time>
      </trkpt>
      <trkpt lat="45.48142" lon="5.9121">
        <ele>1209.48</ele>
        <time>2019-06-16T08:50:26Z</time>
      </trkpt>
      <trkpt lat="45.48138" lon="5.91187">
        <ele>1208.03</ele>
        <time>2019-06-16T08:50:42Z</time>
      </trkpt>
      <trkpt lat="45.4813" lon="5.91166">
        <ele>1207.07</ele>
        <time>2019-06-16T08:50:58Z</time>
      </trkpt>
      <trkpt lat="45.48127" lon="5.91153">
        <ele>1208.03</ele>
        <time>2019-06-16T08:51:12Z</time>
      </trkpt>
      <trkpt lat="45.48119" lon="5.91137">
        <ele>1206.59</ele>
        <time>2019-06-16T08:51:27Z</time>
      </trkpt>
      <trkpt lat="45.48114" lon="5.91126">
        <ele>1207.55</ele>
        <time>2019-06-16T08:51:39Z</time>
      </trkpt>
      <trkpt lat="45.48107" lon="5.91111">
        <ele>1206.11</ele>
        <time>2019-06-16T08:51:54Z</time>
      </trkpt>
      <trkpt lat="45.48101" lon="5.91093">
        <ele>1205.63</ele>
        <time>2019-06-16T08:52:10Z</time>
      </trkpt>
      <trkpt lat="45.48094" lon="5.91082">
        <ele>1204.19</ele>
        <time>2019-06-16T08:52:22Z</time>
      </trkpt>
      <trkpt lat="45.48089" lon="5.91062">
        <ele>1202.75</ele>
        <time>2019-06-16T08:52:40Z</time>
      </trkpt>
      <trkpt lat="45.48081" lon="5.91043">
        <ele>1200.34</ele>
        <time>2019-06-16T08:52:54Z</time>
      </trkpt>
      <trkpt lat="45.48074" lon="5.91036">
        <ele>1197.94</ele>
        <time>2019-06-16T08:53:08Z</time>
      </trkpt>
      <trkpt lat="45.48061" lon="5.91029">
        <ele>1194.58</ele>
        <time>2019-06-16T08:53:21Z</time>
      </trkpt>
      <trkpt lat="45.48049" lon="5.91023">
        <ele>1191.21</ele>
        <time>2019-06-16T08:53:35Z</time>
      </trkpt>
      <trkpt lat="45.4804" lon="5.91014">
        <ele>1188.81</ele>
        <time>2019-06-16T08:53:49Z</time>
      </trkpt>
      <trkpt lat="45.48032" lon="5.91008">
        <ele>1185.44</ele>
        <time>2019-06-16T08:54:02Z</time>
      </trkpt>
      <trkpt lat="45.48019" lon="5.90997">
        <ele>1182.56</ele>
        <time>2019-06-16T08:54:18Z</time>
      </trkpt>
      <trkpt lat="45.48009" lon="5.90984">
        <ele>1178.71</ele>
        <time>2019-06-16T08:54:31Z</time>
      </trkpt>
      <trkpt lat="45.47996" lon="5.90977">
        <ele>1175.83</ele>
        <time>2019-06-16T08:54:47Z</time>
      </trkpt>
      <trkpt lat="45.47982" lon="5.90973">
        <ele>1172.47</ele>
        <time>2019-06-16T08:55:03Z</time>
      </trkpt>
      <trkpt lat="45.47972" lon="5.90966">
        <ele>1169.58</ele>
        <time>2019-06-16T08:55:18Z</time>
      </trkpt>
      <trkpt lat="45.47962" lon="5.90955">
        <ele>1168.14</ele>
        <time>2019-06-16T08:55:31Z</time>
      </trkpt>
      <trkpt lat="45.47961" lon="5.90953">
        <ele>1167.18</ele>
        <time>2019-06-16T08:55:33Z</time>
      </trkpt>
      <trkpt lat="45.47958" lon="5.90949">
        <ele>1167.18</ele>
        <time>2019-06-16T08:55:37Z</time>
      </trkpt>
      <trkpt lat="45.47945" lon="5.90939">
        <ele>1164.29</ele>
        <time>2019-06-16T08:55:52Z</time>
      </trkpt>
      <trkpt lat="45.47944" lon="5.90939">
        <ele>1163.81</ele>
        <time>2019-06-16T08:55:54Z</time>
      </trkpt>
      <trkpt lat="45.47943" lon="5.90927">
        <ele>1164.29</ele>
        <time>2019-06-16T08:56:06Z</time>
      </trkpt>
      <trkpt lat="45.47938" lon="5.90912">
        <ele>1165.74</ele>
        <time>2019-06-16T08:56:19Z</time>
      </trkpt>
      <trkpt lat="45.47936" lon="5.90906">
        <ele>1166.22</ele>
        <time>2019-06-16T08:56:25Z</time>
      </trkpt>
      <trkpt lat="45.47929" lon="5.90889">
        <ele>1167.18</ele>
        <time>2019-06-16T08:56:39Z</time>
      </trkpt>
      <trkpt lat="45.47926" lon="5.90872">
        <ele>1168.62</ele>
        <time>2019-06-16T08:56:53Z</time>
      </trkpt>
      <trkpt lat="45.47919" lon="5.90861">
        <ele>1170.06</ele>
        <time>2019-06-16T08:57:06Z</time>
      </trkpt>
      <trkpt lat="45.47914" lon="5.90847">
        <ele>1171.5</ele>
        <time>2019-06-16T08:57:18Z</time>
      </trkpt>
      <trkpt lat="45.47916" lon="5.90827">
        <ele>1172.95</ele>
        <time>2019-06-16T08:57:33Z</time>
      </trkpt>
      <trkpt lat="45.47909" lon="5.90817">
        <ele>1172.95</ele>
        <time>2019-06-16T08:57:44Z</time>
      </trkpt>
      <trkpt lat="45.47917" lon="5.90799">
        <ele>1175.35</ele>
        <time>2019-06-16T08:58:00Z</time>
      </trkpt>
      <trkpt lat="45.47921" lon="5.90784">
        <ele>1176.79</ele>
        <time>2019-06-16T08:58:15Z</time>
      </trkpt>
      <trkpt lat="45.47918" lon="5.90762">
        <ele>1178.71</ele>
        <time>2019-06-16T08:58:29Z</time>
      </trkpt>
      <trkpt lat="45.47917" lon="5.90741">
        <ele>1179.67</ele>
        <time>2019-06-16T08:58:43Z</time>
      </trkpt>
      <trkpt lat="45.47917" lon="5.90723">
        <ele>1181.6</ele>
        <time>2019-06-16T08:58:57Z</time>
      </trkpt>
      <trkpt lat="45.47916" lon="5.90712">
        <ele>1181.6</ele>
        <time>2019-06-16T08:59:06Z</time>
      </trkpt>
      <trkpt lat="45.47912" lon="5.90701">
        <ele>1181.6</ele>
        <time>2019-06-16T08:59:17Z</time>
      </trkpt>
      <trkpt lat="45.47903" lon="5.90687">
        <ele>1181.6</ele>
        <time>2019-06-16T08:59:29Z</time>
      </trkpt>
      <trkpt lat="45.47894" lon="5.90668">
        <ele>1182.08</ele>
        <time>2019-06-16T08:59:44Z</time>
      </trkpt>
      <trkpt lat="45.47893" lon="5.90666">
        <ele>1182.56</ele>
        <time>2019-06-16T08:59:45Z</time>
      </trkpt>
      <trkpt lat="45.47889" lon="5.90651">
        <ele>1184</ele>
        <time>2019-06-16T08:59:56Z</time>
      </trkpt>
      <trkpt lat="45.47887" lon="5.90632">
        <ele>1184.48</ele>
        <time>2019-06-16T09:00:10Z</time>
      </trkpt>
      <trkpt lat="45.47886" lon="5.90618">
        <ele>1185.44</ele>
        <time>2019-06-16T09:00:22Z</time>
      </trkpt>
      <trkpt lat="45.47884" lon="5.90603">
        <ele>1186.4</ele>
        <time>2019-06-16T09:00:33Z</time>
      </trkpt>
      <trkpt lat="45.4788" lon="5.90582">
        <ele>1185.92</ele>
        <time>2019-06-16T09:00:48Z</time>
      </trkpt>
      <trkpt lat="45.47878" lon="5.90563">
        <ele>1184.96</ele>
        <time>2019-06-16T09:01:00Z</time>
      </trkpt>
      <trkpt lat="45.47877" lon="5.9056">
        <ele>1184.96</ele>
        <time>2019-06-16T09:01:02Z</time>
      </trkpt>
      <trkpt lat="45.47875" lon="5.90536">
        <ele>1184</ele>
        <time>2019-06-16T09:01:17Z</time>
      </trkpt>
      <trkpt lat="45.47872" lon="5.90527">
        <ele>1184.48</ele>
        <time>2019-06-16T09:01:23Z</time>
      </trkpt>
      <trkpt lat="45.4787" lon="5.90512">
        <ele>1184.48</ele>
        <time>2019-06-16T09:01:35Z</time>
      </trkpt>
      <trkpt lat="45.4787" lon="5.90506">
        <ele>1184.96</ele>
        <time>2019-06-16T09:01:39Z</time>
      </trkpt>
      <trkpt lat="45.47869" lon="5.90482">
        <ele>1184.96</ele>
        <time>2019-06-16T09:01:53Z</time>
      </trkpt>
      <trkpt lat="45.47872" lon="5.90455">
        <ele>1184</ele>
        <time>2019-06-16T09:02:09Z</time>
      </trkpt>
      <trkpt lat="45.47874" lon="5.9043">
        <ele>1185.44</ele>
        <time>2019-06-16T09:02:25Z</time>
      </trkpt>
      <trkpt lat="45.47874" lon="5.90425">
        <ele>1185.92</ele>
        <time>2019-06-16T09:02:29Z</time>
      </trkpt>
      <trkpt lat="45.47877" lon="5.90406">
        <ele>1187.37</ele>
        <time>2019-06-16T09:02:42Z</time>
      </trkpt>
      <trkpt lat="45.47878" lon="5.9039">
        <ele>1187.85</ele>
        <time>2019-06-16T09:02:53Z</time>
      </trkpt>
      <trkpt lat="45.47877" lon="5.90385">
        <ele>1188.33</ele>
        <time>2019-06-16T09:02:56Z</time>
      </trkpt>
      <trkpt lat="45.47876" lon="5.90369">
        <ele>1190.25</ele>
        <time>2019-06-16T09:03:09Z</time>
      </trkpt>
      <trkpt lat="45.47876" lon="5.90365">
        <ele>1190.73</ele>
        <time>2019-06-16T09:03:12Z</time>
      </trkpt>
      <trkpt lat="45.47875" lon="5.90343">
        <ele>1191.69</ele>
        <time>2019-06-16T09:03:27Z</time>
      </trkpt>
      <trkpt lat="45.47878" lon="5.90322">
        <ele>1191.69</ele>
        <time>2019-06-16T09:03:42Z</time>
      </trkpt>
      <trkpt lat="45.4788" lon="5.90303">
        <ele>1192.17</ele>
        <time>2019-06-16T09:03:57Z</time>
      </trkpt>
      <trkpt lat="45.47887" lon="5.90295">
        <ele>1192.17</ele>
        <time>2019-06-16T09:04:11Z</time>
      </trkpt>
      <trkpt lat="45.47888" lon="5.90303">
        <ele>1192.17</ele>
        <time>2019-06-16T09:04:28Z</time>
      </trkpt>
      <trkpt lat="45.47887" lon="5.90304">
        <ele>1195.06</ele>
        <time>2019-06-16T09:04:43Z</time>
      </trkpt>
      <trkpt lat="45.47882" lon="5.90296">
        <ele>1193.61</ele>
        <time>2019-06-16T09:05:03Z</time>
      </trkpt>
      <trkpt lat="45.4788" lon="5.90292">
        <ele>1192.65</ele>
        <time>2019-06-16T09:05:21Z</time>
      </trkpt>
      <trkpt lat="45.47878" lon="5.9029">
        <ele>1192.65</ele>
        <time>2019-06-16T09:05:41Z</time>
      </trkpt>
      <trkpt lat="45.47879" lon="5.90293">
        <ele>1192.65</ele>
        <time>2019-06-16T09:06:01Z</time>
      </trkpt>
      <trkpt lat="45.47882" lon="5.90289">
        <ele>1193.13</ele>
        <time>2019-06-16T09:06:14Z</time>
      </trkpt>
      <trkpt lat="45.47885" lon="5.90271">
        <ele>1192.17</ele>
        <time>2019-06-16T09:06:27Z</time>
      </trkpt>
      <trkpt lat="45.47887" lon="5.90249">
        <ele>1192.65</ele>
        <time>2019-06-16T09:06:43Z</time>
      </trkpt>
      <trkpt lat="45.47888" lon="5.90231">
        <ele>1195.06</ele>
        <time>2019-06-16T09:06:56Z</time>
      </trkpt>
      <trkpt lat="45.47889" lon="5.9021">
        <ele>1196.98</ele>
        <time>2019-06-16T09:07:12Z</time>
      </trkpt>
      <trkpt lat="45.47891" lon="5.90188">
        <ele>1197.94</ele>
        <time>2019-06-16T09:07:26Z</time>
      </trkpt>
      <trkpt lat="45.47893" lon="5.90181">
        <ele>1197.46</ele>
        <time>2019-06-16T09:07:41Z</time>
      </trkpt>
      <trkpt lat="45.479" lon="5.90178">
        <ele>1198.9</ele>
        <time>2019-06-16T09:07:54Z</time>
      </trkpt>
      <trkpt lat="45.47907" lon="5.90172">
        <ele>1201.3</ele>
        <time>2019-06-16T09:08:08Z</time>
      </trkpt>
      <trkpt lat="45.47912" lon="5.90167">
        <ele>1204.19</ele>
        <time>2019-06-16T09:08:23Z</time>
      </trkpt>
      <trkpt lat="45.47922" lon="5.90168">
        <ele>1206.59</ele>
        <time>2019-06-16T09:08:41Z</time>
      </trkpt>
      <trkpt lat="45.47928" lon="5.90169">
        <ele>1207.55</ele>
        <time>2019-06-16T09:08:54Z</time>
      </trkpt>
      <trkpt lat="45.47938" lon="5.90165">
        <ele>1208.51</ele>
        <time>2019-06-16T09:09:07Z</time>
      </trkpt>
      <trkpt lat="45.4795" lon="5.90166">
        <ele>1210.92</ele>
        <time>2019-06-16T09:09:23Z</time>
      </trkpt>
      <trkpt lat="45.47959" lon="5.90165">
        <ele>1212.36</ele>
        <time>2019-06-16T09:09:41Z</time>
      </trkpt>
      <trkpt lat="45.47962" lon="5.90174">
        <ele>1214.28</ele>
        <time>2019-06-16T09:09:59Z</time>
      </trkpt>
      <trkpt lat="45.47962" lon="5.90174">
        <ele>1214.28</ele>
        <time>2019-06-16T09:10:00Z</time>
      </trkpt>
      <trkpt lat="45.47967" lon="5.90185">
        <ele>1217.17</ele>
        <time>2019-06-16T09:10:16Z</time>
      </trkpt>
      <trkpt lat="45.47978" lon="5.90188">
        <ele>1220.05</ele>
        <time>2019-06-16T09:10:31Z</time>
      </trkpt>
      <trkpt lat="45.47987" lon="5.90189">
        <ele>1221.97</ele>
        <time>2019-06-16T09:10:43Z</time>
      </trkpt>
      <trkpt lat="45.47994" lon="5.90198">
        <ele>1223.42</ele>
        <time>2019-06-16T09:10:57Z</time>
      </trkpt>
      <trkpt lat="45.48001" lon="5.90202">
        <ele>1225.82</ele>
        <time>2019-06-16T09:11:12Z</time>
      </trkpt>
      <trkpt lat="45.48014" lon="5.90196">
        <ele>1227.26</ele>
        <time>2019-06-16T09:11:28Z</time>
      </trkpt>
      <trkpt lat="45.48019" lon="5.90192">
        <ele>1229.66</ele>
        <time>2019-06-16T09:11:42Z</time>
      </trkpt>
      <trkpt lat="45.48025" lon="5.90192">
        <ele>1232.55</ele>
        <time>2019-06-16T09:11:58Z</time>
      </trkpt>
      <trkpt lat="45.48028" lon="5.902">
        <ele>1233.51</ele>
        <time>2019-06-16T09:12:11Z</time>
      </trkpt>
      <trkpt lat="45.48037" lon="5.90208">
        <ele>1236.87</ele>
        <time>2019-06-16T09:12:28Z</time>
      </trkpt>
      <trkpt lat="45.48043" lon="5.90214">
        <ele>1238.8</ele>
        <time>2019-06-16T09:12:46Z</time>
      </trkpt>
      <trkpt lat="45.48049" lon="5.90219">
        <ele>1240.72</ele>
        <time>2019-06-16T09:12:58Z</time>
      </trkpt>
      <trkpt lat="45.48053" lon="5.90229">
        <ele>1243.6</ele>
        <time>2019-06-16T09:13:16Z</time>
      </trkpt>
      <trkpt lat="45.48059" lon="5.90232">
        <ele>1245.53</ele>
        <time>2019-06-16T09:13:30Z</time>
      </trkpt>
      <trkpt lat="45.48064" lon="5.90238">
        <ele>1247.93</ele>
        <time>2019-06-16T09:13:45Z</time>
      </trkpt>
      <trkpt lat="45.48069" lon="5.90242">
        <ele>1249.37</ele>
        <time>2019-06-16T09:14:00Z</time>
      </trkpt>
      <trkpt lat="45.48074" lon="5.90246">
        <ele>1249.85</ele>
        <time>2019-06-16T09:14:14Z</time>
      </trkpt>
      <trkpt lat="45.48079" lon="5.90246">
        <ele>1253.22</ele>
        <time>2019-06-16T09:14:23Z</time>
      </trkpt>
      <trkpt lat="45.48083" lon="5.90249">
        <ele>1254.66</ele>
        <time>2019-06-16T09:14:36Z</time>
      </trkpt>
      <trkpt lat="45.48096" lon="5.90249">
        <ele>1257.06</ele>
        <time>2019-06-16T09:14:51Z</time>
      </trkpt>
      <trkpt lat="45.48101" lon="5.90246">
        <ele>1258.5</ele>
        <time>2019-06-16T09:15:05Z</time>
      </trkpt>
      <trkpt lat="45.48108" lon="5.9025">
        <ele>1260.43</ele>
        <time>2019-06-16T09:15:21Z</time>
      </trkpt>
      <trkpt lat="45.48111" lon="5.90253">
        <ele>1262.83</ele>
        <time>2019-06-16T09:15:39Z</time>
      </trkpt>
      <trkpt lat="45.48117" lon="5.90253">
        <ele>1265.71</ele>
        <time>2019-06-16T09:15:52Z</time>
      </trkpt>
      <trkpt lat="45.48124" lon="5.90258">
        <ele>1267.16</ele>
        <time>2019-06-16T09:16:08Z</time>
      </trkpt>
      <trkpt lat="45.48126" lon="5.90262">
        <ele>1269.08</ele>
        <time>2019-06-16T09:16:26Z</time>
      </trkpt>
      <trkpt lat="45.48134" lon="5.90271">
        <ele>1271</ele>
        <time>2019-06-16T09:16:41Z</time>
      </trkpt>
      <trkpt lat="45.48141" lon="5.90276">
        <ele>1273.4</ele>
        <time>2019-06-16T09:16:55Z</time>
      </trkpt>
      <trkpt lat="45.48147" lon="5.9028">
        <ele>1276.29</ele>
        <time>2019-06-16T09:17:08Z</time>
      </trkpt>
      <trkpt lat="45.48158" lon="5.90277">
        <ele>1278.21</ele>
        <time>2019-06-16T09:17:21Z</time>
      </trkpt>
      <trkpt lat="45.48169" lon="5.90266">
        <ele>1281.57</ele>
        <time>2019-06-16T09:17:36Z</time>
      </trkpt>
      <trkpt lat="45.4818" lon="5.90263">
        <ele>1281.57</ele>
        <time>2019-06-16T09:17:49Z</time>
      </trkpt>
      <trkpt lat="45.48181" lon="5.90261">
        <ele>1282.54</ele>
        <time>2019-06-16T09:18:06Z</time>
      </trkpt>
      <trkpt lat="45.48183" lon="5.90265">
        <ele>1282.54</ele>
        <time>2019-06-16T09:18:22Z</time>
      </trkpt>
      <trkpt lat="45.48182" lon="5.90269">
        <ele>1283.5</ele>
        <time>2019-06-16T09:18:51Z</time>
      </trkpt>
      <trkpt lat="45.48196" lon="5.90261">
        <ele>1285.9</ele>
        <time>2019-06-16T09:19:06Z</time>
      </trkpt>
      <trkpt lat="45.48207" lon="5.90257">
        <ele>1286.38</ele>
        <time>2019-06-16T09:19:19Z</time>
      </trkpt>
      <trkpt lat="45.48221" lon="5.90263">
        <ele>1286.38</ele>
        <time>2019-06-16T09:19:33Z</time>
      </trkpt>
      <trkpt lat="45.48231" lon="5.90264">
        <ele>1288.78</ele>
        <time>2019-06-16T09:19:45Z</time>
      </trkpt>
      <trkpt lat="45.48242" lon="5.90266">
        <ele>1288.78</ele>
        <time>2019-06-16T09:19:58Z</time>
      </trkpt>
      <trkpt lat="45.48257" lon="5.90269">
        <ele>1291.19</ele>
        <time>2019-06-16T09:20:14Z</time>
      </trkpt>
      <trkpt lat="45.48271" lon="5.9027">
        <ele>1292.63</ele>
        <time>2019-06-16T09:20:28Z</time>
      </trkpt>
      <trkpt lat="45.48284" lon="5.90272">
        <ele>1291.19</ele>
        <time>2019-06-16T09:20:42Z</time>
      </trkpt>
      <trkpt lat="45.48297" lon="5.90269">
        <ele>1291.67</ele>
        <time>2019-06-16T09:20:56Z</time>
      </trkpt>
      <trkpt lat="45.48303" lon="5.90269">
        <ele>1292.63</ele>
        <time>2019-06-16T09:21:03Z</time>
      </trkpt>
      <trkpt lat="45.4832" lon="5.90267">
        <ele>1293.11</ele>
        <time>2019-06-16T09:21:16Z</time>
      </trkpt>
      <trkpt lat="45.48334" lon="5.90277">
        <ele>1293.59</ele>
        <time>2019-06-16T09:21:31Z</time>
      </trkpt>
      <trkpt lat="45.48341" lon="5.90282">
        <ele>1294.07</ele>
        <time>2019-06-16T09:21:39Z</time>
      </trkpt>
      <trkpt lat="45.48355" lon="5.90292">
        <ele>1295.03</ele>
        <time>2019-06-16T09:21:54Z</time>
      </trkpt>
      <trkpt lat="45.4836" lon="5.90296">
        <ele>1298.4</ele>
        <time>2019-06-16T09:22:07Z</time>
      </trkpt>
      <trkpt lat="45.48375" lon="5.90287">
        <ele>1299.84</ele>
        <time>2019-06-16T09:22:20Z</time>
      </trkpt>
      <trkpt lat="45.48382" lon="5.90288">
        <ele>1303.2</ele>
        <time>2019-06-16T09:22:33Z</time>
      </trkpt>
      <trkpt lat="45.48392" lon="5.90289">
        <ele>1305.61</ele>
        <time>2019-06-16T09:22:48Z</time>
      </trkpt>
      <trkpt lat="45.48398" lon="5.90293">
        <ele>1308.49</ele>
        <time>2019-06-16T09:23:02Z</time>
      </trkpt>
      <trkpt lat="45.48404" lon="5.90297">
        <ele>1310.41</ele>
        <time>2019-06-16T09:23:17Z</time>
      </trkpt>
      <trkpt lat="45.48407" lon="5.90299">
        <ele>1310.9</ele>
        <time>2019-06-16T09:23:20Z</time>
      </trkpt>
      <trkpt lat="45.48419" lon="5.90304">
        <ele>1313.78</ele>
        <time>2019-06-16T09:23:35Z</time>
      </trkpt>
      <trkpt lat="45.48432" lon="5.90314">
        <ele>1316.18</ele>
        <time>2019-06-16T09:23:53Z</time>
      </trkpt>
      <trkpt lat="45.48438" lon="5.90317">
        <ele>1317.62</ele>
        <time>2019-06-16T09:24:05Z</time>
      </trkpt>
      <trkpt lat="45.48443" lon="5.90323">
        <ele>1319.07</ele>
        <time>2019-06-16T09:24:19Z</time>
      </trkpt>
      <trkpt lat="45.48454" lon="5.9033">
        <ele>1321.47</ele>
        <time>2019-06-16T09:24:36Z</time>
      </trkpt>
      <trkpt lat="45.48466" lon="5.90329">
        <ele>1322.91</ele>
        <time>2019-06-16T09:24:51Z</time>
      </trkpt>
      <trkpt lat="45.48474" lon="5.90327">
        <ele>1325.31</ele>
        <time>2019-06-16T09:25:06Z</time>
      </trkpt>
      <trkpt lat="45.48482" lon="5.90323">
        <ele>1327.24</ele>
        <time>2019-06-16T09:25:16Z</time>
      </trkpt>
      <trkpt lat="45.48486" lon="5.90323">
        <ele>1328.68</ele>
        <time>2019-06-16T09:25:27Z</time>
      </trkpt>
      <trkpt lat="45.48493" lon="5.90323">
        <ele>1331.08</ele>
        <time>2019-06-16T09:25:41Z</time>
      </trkpt>
      <trkpt lat="45.48493" lon="5.90322">
        <ele>1331.56</ele>
        <time>2019-06-16T09:26:03Z</time>
      </trkpt>
      <trkpt lat="45.48495" lon="5.90319">
        <ele>1331.56</ele>
        <time>2019-06-16T09:26:32Z</time>
      </trkpt>
      <trkpt lat="45.48497" lon="5.90309">
        <ele>1331.56</ele>
        <time>2019-06-16T09:27:04Z</time>
      </trkpt>
      <trkpt lat="45.48505" lon="5.90315">
        <ele>1333.97</ele>
        <time>2019-06-16T09:27:32Z</time>
      </trkpt>
      <trkpt lat="45.48504" lon="5.90326">
        <ele>1336.37</ele>
        <time>2019-06-16T09:27:47Z</time>
      </trkpt>
      <trkpt lat="45.485" lon="5.90332">
        <ele>1339.25</ele>
        <time>2019-06-16T09:28:00Z</time>
      </trkpt>
      <trkpt lat="45.485" lon="5.90333">
        <ele>1339.73</ele>
        <time>2019-06-16T09:28:01Z</time>
      </trkpt>
      <trkpt lat="45.48495" lon="5.90337">
        <ele>1342.14</ele>
        <time>2019-06-16T09:28:14Z</time>
      </trkpt>
      <trkpt lat="45.4849" lon="5.90347">
        <ele>1344.54</ele>
        <time>2019-06-16T09:28:30Z</time>
      </trkpt>
      <trkpt lat="45.48494" lon="5.90355">
        <ele>1347.43</ele>
        <time>2019-06-16T09:28:43Z</time>
      </trkpt>
      <trkpt lat="45.485" lon="5.90355">
        <ele>1350.31</ele>
        <time>2019-06-16T09:28:58Z</time>
      </trkpt>
      <trkpt lat="45.48501" lon="5.90356">
        <ele>1350.31</ele>
        <time>2019-06-16T09:28:59Z</time>
      </trkpt>
      <trkpt lat="45.48503" lon="5.90362">
        <ele>1352.23</ele>
        <time>2019-06-16T09:29:11Z</time>
      </trkpt>
      <trkpt lat="45.4851" lon="5.90367">
        <ele>1355.12</ele>
        <time>2019-06-16T09:29:26Z</time>
      </trkpt>
      <trkpt lat="45.48518" lon="5.90366">
        <ele>1357.52</ele>
        <time>2019-06-16T09:29:42Z</time>
      </trkpt>
      <trkpt lat="45.48525" lon="5.90366">
        <ele>1360.4</ele>
        <time>2019-06-16T09:29:56Z</time>
      </trkpt>
      <trkpt lat="45.48529" lon="5.90367">
        <ele>1362.33</ele>
        <time>2019-06-16T09:30:09Z</time>
      </trkpt>
      <trkpt lat="45.48528" lon="5.90374">
        <ele>1365.21</ele>
        <time>2019-06-16T09:30:28Z</time>
      </trkpt>
      <trkpt lat="45.48524" lon="5.90378">
        <ele>1367.61</ele>
        <time>2019-06-16T09:30:45Z</time>
      </trkpt>
      <trkpt lat="45.48524" lon="5.90388">
        <ele>1370.02</ele>
        <time>2019-06-16T09:31:02Z</time>
      </trkpt>
      <trkpt lat="45.48524" lon="5.90394">
        <ele>1372.42</ele>
        <time>2019-06-16T09:31:14Z</time>
      </trkpt>
      <trkpt lat="45.48517" lon="5.90398">
        <ele>1375.3</ele>
        <time>2019-06-16T09:31:30Z</time>
      </trkpt>
      <trkpt lat="45.48512" lon="5.90404">
        <ele>1377.23</ele>
        <time>2019-06-16T09:31:45Z</time>
      </trkpt>
      <trkpt lat="45.48519" lon="5.9041">
        <ele>1380.11</ele>
        <time>2019-06-16T09:32:05Z</time>
      </trkpt>
      <trkpt lat="45.48525" lon="5.90412">
        <ele>1382.99</ele>
        <time>2019-06-16T09:32:20Z</time>
      </trkpt>
      <trkpt lat="45.48533" lon="5.90418">
        <ele>1386.36</ele>
        <time>2019-06-16T09:32:38Z</time>
      </trkpt>
      <trkpt lat="45.48541" lon="5.90422">
        <ele>1389.24</ele>
        <time>2019-06-16T09:32:53Z</time>
      </trkpt>
      <trkpt lat="45.4855" lon="5.90417">
        <ele>1392.61</ele>
        <time>2019-06-16T09:33:10Z</time>
      </trkpt>
      <trkpt lat="45.48556" lon="5.90416">
        <ele>1395.01</ele>
        <time>2019-06-16T09:33:26Z</time>
      </trkpt>
      <trkpt lat="45.48566" lon="5.90415">
        <ele>1397.41</ele>
        <time>2019-06-16T09:33:40Z</time>
      </trkpt>
      <trkpt lat="45.48571" lon="5.90406">
        <ele>1398.86</ele>
        <time>2019-06-16T09:33:55Z</time>
      </trkpt>
      <trkpt lat="45.48569" lon="5.90407">
        <ele>1397.89</ele>
        <time>2019-06-16T09:34:24Z</time>
      </trkpt>
      <trkpt lat="45.48565" lon="5.90407">
        <ele>1397.89</ele>
        <time>2019-06-16T09:34:44Z</time>
      </trkpt>
      <trkpt lat="45.48557" lon="5.904">
        <ele>1398.37</ele>
        <time>2019-06-16T09:35:12Z</time>
      </trkpt>
      <trkpt lat="45.48558" lon="5.90394">
        <ele>1398.37</ele>
        <time>2019-06-16T09:35:34Z</time>
      </trkpt>
      <trkpt lat="45.48567" lon="5.9038">
        <ele>1398.86</ele>
        <time>2019-06-16T09:35:56Z</time>
      </trkpt>
      <trkpt lat="45.48573" lon="5.9039">
        <ele>1400.78</ele>
        <time>2019-06-16T09:36:14Z</time>
      </trkpt>
      <trkpt lat="45.48585" lon="5.90394">
        <ele>1403.18</ele>
        <time>2019-06-16T09:36:28Z</time>
      </trkpt>
      <trkpt lat="45.48598" lon="5.90394">
        <ele>1405.1</ele>
        <time>2019-06-16T09:36:47Z</time>
      </trkpt>
      <trkpt lat="45.48612" lon="5.90394">
        <ele>1407.99</ele>
        <time>2019-06-16T09:37:01Z</time>
      </trkpt>
      <trkpt lat="45.48622" lon="5.90401">
        <ele>1410.39</ele>
        <time>2019-06-16T09:37:19Z</time>
      </trkpt>
      <trkpt lat="45.4863" lon="5.90403">
        <ele>1413.28</ele>
        <time>2019-06-16T09:37:36Z</time>
      </trkpt>
      <trkpt lat="45.48638" lon="5.90406">
        <ele>1416.16</ele>
        <time>2019-06-16T09:37:50Z</time>
      </trkpt>
      <trkpt lat="45.48645" lon="5.90409">
        <ele>1418.56</ele>
        <time>2019-06-16T09:38:04Z</time>
      </trkpt>
      <trkpt lat="45.48652" lon="5.90409">
        <ele>1420.49</ele>
        <time>2019-06-16T09:38:15Z</time>
      </trkpt>
      <trkpt lat="45.48655" lon="5.90411">
        <ele>1422.41</ele>
        <time>2019-06-16T09:38:28Z</time>
      </trkpt>
      <trkpt lat="45.48658" lon="5.9041">
        <ele>1424.81</ele>
        <time>2019-06-16T09:38:42Z</time>
      </trkpt>
      <trkpt lat="45.48667" lon="5.90408">
        <ele>1427.21</ele>
        <time>2019-06-16T09:38:57Z</time>
      </trkpt>
      <trkpt lat="45.48668" lon="5.90412">
        <ele>1429.62</ele>
        <time>2019-06-16T09:39:12Z</time>
      </trkpt>
      <trkpt lat="45.48672" lon="5.90416">
        <ele>1432.5</ele>
        <time>2019-06-16T09:39:25Z</time>
      </trkpt>
      <trkpt lat="45.48676" lon="5.90418">
        <ele>1434.91</ele>
        <time>2019-06-16T09:39:38Z</time>
      </trkpt>
      <trkpt lat="45.48682" lon="5.90414">
        <ele>1437.79</ele>
        <time>2019-06-16T09:39:54Z</time>
      </trkpt>
      <trkpt lat="45.48683" lon="5.90415">
        <ele>1438.75</ele>
        <time>2019-06-16T09:40:04Z</time>
      </trkpt>
      <trkpt lat="45.48691" lon="5.90414">
        <ele>1441.15</ele>
        <time>2019-06-16T09:40:21Z</time>
      </trkpt>
      <trkpt lat="45.48696" lon="5.90414">
        <ele>1444.52</ele>
        <time>2019-06-16T09:40:38Z</time>
      </trkpt>
      <trkpt lat="45.48703" lon="5.90411">
        <ele>1447.88</ele>
        <time>2019-06-16T09:40:54Z</time>
      </trkpt>
      <trkpt lat="45.48706" lon="5.90411">
        <ele>1449.81</ele>
        <time>2019-06-16T09:41:07Z</time>
      </trkpt>
      <trkpt lat="45.48713" lon="5.90414">
        <ele>1452.69</ele>
        <time>2019-06-16T09:41:21Z</time>
      </trkpt>
      <trkpt lat="45.48718" lon="5.90414">
        <ele>1454.61</ele>
        <time>2019-06-16T09:41:34Z</time>
      </trkpt>
      <trkpt lat="45.48721" lon="5.90414">
        <ele>1457.02</ele>
        <time>2019-06-16T09:41:50Z</time>
      </trkpt>
      <trkpt lat="45.48717" lon="5.90422">
        <ele>1459.9</ele>
        <time>2019-06-16T09:42:07Z</time>
      </trkpt>
      <trkpt lat="45.48713" lon="5.90429">
        <ele>1462.78</ele>
        <time>2019-06-16T09:42:22Z</time>
      </trkpt>
      <trkpt lat="45.48711" lon="5.90438">
        <ele>1465.19</ele>
        <time>2019-06-16T09:42:35Z</time>
      </trkpt>
      <trkpt lat="45.48713" lon="5.90442">
        <ele>1468.07</ele>
        <time>2019-06-16T09:42:49Z</time>
      </trkpt>
      <trkpt lat="45.48708" lon="5.90449">
        <ele>1470.95</ele>
        <time>2019-06-16T09:43:02Z</time>
      </trkpt>
      <trkpt lat="45.48707" lon="5.90458">
        <ele>1473.36</ele>
        <time>2019-06-16T09:43:18Z</time>
      </trkpt>
      <trkpt lat="45.48718" lon="5.90461">
        <ele>1475.76</ele>
        <time>2019-06-16T09:43:31Z</time>
      </trkpt>
      <trkpt lat="45.48722" lon="5.90465">
        <ele>1477.68</ele>
        <time>2019-06-16T09:43:44Z</time>
      </trkpt>
      <trkpt lat="45.48723" lon="5.90472">
        <ele>1479.61</ele>
        <time>2019-06-16T09:43:54Z</time>
      </trkpt>
      <trkpt lat="45.48725" lon="5.90477">
        <ele>1481.05</ele>
        <time>2019-06-16T09:44:06Z</time>
      </trkpt>
      <trkpt lat="45.48728" lon="5.90475">
        <ele>1481.53</ele>
        <time>2019-06-16T09:44:33Z</time>
      </trkpt>
      <trkpt lat="45.48728" lon="5.90475">
        <ele>1481.53</ele>
        <time>2019-06-16T09:45:05Z</time>
      </trkpt>
      <trkpt lat="45.48732" lon="5.90479">
        <ele>1482.49</ele>
        <time>2019-06-16T09:45:26Z</time>
      </trkpt>
      <trkpt lat="45.48732" lon="5.90478">
        <ele>1482.01</ele>
        <time>2019-06-16T09:45:49Z</time>
      </trkpt>
      <trkpt lat="45.4873" lon="5.90473">
        <ele>1482.97</ele>
        <time>2019-06-16T09:46:10Z</time>
      </trkpt>
      <trkpt lat="45.48727" lon="5.90464">
        <ele>1482.97</ele>
        <time>2019-06-16T09:46:34Z</time>
      </trkpt>
      <trkpt lat="45.48728" lon="5.90466">
        <ele>1483.45</ele>
        <time>2019-06-16T09:47:15Z</time>
      </trkpt>
      <trkpt lat="45.48728" lon="5.90465">
        <ele>1482.97</ele>
        <time>2019-06-16T09:47:42Z</time>
      </trkpt>
      <trkpt lat="45.48736" lon="5.90475">
        <ele>1483.93</ele>
        <time>2019-06-16T09:48:07Z</time>
      </trkpt>
      <trkpt lat="45.48736" lon="5.9047">
        <ele>1484.41</ele>
        <time>2019-06-16T09:48:22Z</time>
      </trkpt>
      <trkpt lat="45.48743" lon="5.90468">
        <ele>1485.37</ele>
        <time>2019-06-16T09:48:32Z</time>
      </trkpt>
      <trkpt lat="45.48745" lon="5.9046">
        <ele>1488.26</ele>
        <time>2019-06-16T09:48:47Z</time>
      </trkpt>
      <trkpt lat="45.48753" lon="5.90452">
        <ele>1490.18</ele>
        <time>2019-06-16T09:49:00Z</time>
      </trkpt>
      <trkpt lat="45.48759" lon="5.90437">
        <ele>1490.18</ele>
        <time>2019-06-16T09:49:15Z</time>
      </trkpt>
      <trkpt lat="45.48768" lon="5.90426">
        <ele>1492.1</ele>
        <time>2019-06-16T09:49:28Z</time>
      </trkpt>
      <trkpt lat="45.48779" lon="5.90408">
        <ele>1493.06</ele>
        <time>2019-06-16T09:49:48Z</time>
      </trkpt>
      <trkpt lat="45.48787" lon="5.90392">
        <ele>1495.47</ele>
        <time>2019-06-16T09:50:03Z</time>
      </trkpt>
      <trkpt lat="45.48794" lon="5.9038">
        <ele>1497.39</ele>
        <time>2019-06-16T09:50:18Z</time>
      </trkpt>
      <trkpt lat="45.48801" lon="5.90372">
        <ele>1498.35</ele>
        <time>2019-06-16T09:50:32Z</time>
      </trkpt>
      <trkpt lat="45.48811" lon="5.90362">
        <ele>1498.35</ele>
        <time>2019-06-16T09:50:49Z</time>
      </trkpt>
      <trkpt lat="45.48817" lon="5.90359">
        <ele>1500.27</ele>
        <time>2019-06-16T09:51:03Z</time>
      </trkpt>
      <trkpt lat="45.48825" lon="5.90349">
        <ele>1501.24</ele>
        <time>2019-06-16T09:51:15Z</time>
      </trkpt>
      <trkpt lat="45.48835" lon="5.90342">
        <ele>1502.2</ele>
        <time>2019-06-16T09:51:29Z</time>
      </trkpt>
      <trkpt lat="45.48845" lon="5.90334">
        <ele>1503.64</ele>
        <time>2019-06-16T09:51:45Z</time>
      </trkpt>
      <trkpt lat="45.48853" lon="5.90326">
        <ele>1505.08</ele>
        <time>2019-06-16T09:52:00Z</time>
      </trkpt>
      <trkpt lat="45.48861" lon="5.90316">
        <ele>1507.48</ele>
        <time>2019-06-16T09:52:18Z</time>
      </trkpt>
      <trkpt lat="45.4887" lon="5.90309">
        <ele>1509.41</ele>
        <time>2019-06-16T09:52:33Z</time>
      </trkpt>
      <trkpt lat="45.4888" lon="5.90301">
        <ele>1511.33</ele>
        <time>2019-06-16T09:52:47Z</time>
      </trkpt>
      <trkpt lat="45.48887" lon="5.90293">
        <ele>1513.25</ele>
        <time>2019-06-16T09:53:01Z</time>
      </trkpt>
      <trkpt lat="45.48895" lon="5.90286">
        <ele>1514.21</ele>
        <time>2019-06-16T09:53:16Z</time>
      </trkpt>
      <trkpt lat="45.48905" lon="5.90275">
        <ele>1516.14</ele>
        <time>2019-06-16T09:53:31Z</time>
      </trkpt>
      <trkpt lat="45.48913" lon="5.90261">
        <ele>1518.06</ele>
        <time>2019-06-16T09:53:46Z</time>
      </trkpt>
      <trkpt lat="45.48917" lon="5.90255">
        <ele>1519.02</ele>
        <time>2019-06-16T09:54:02Z</time>
      </trkpt>
      <trkpt lat="45.4892" lon="5.90244">
        <ele>1519.98</ele>
        <time>2019-06-16T09:54:17Z</time>
      </trkpt>
      <trkpt lat="45.48925" lon="5.90231">
        <ele>1521.42</ele>
        <time>2019-06-16T09:54:33Z</time>
      </trkpt>
      <trkpt lat="45.48933" lon="5.90225">
        <ele>1522.39</ele>
        <time>2019-06-16T09:54:48Z</time>
      </trkpt>
      <trkpt lat="45.48938" lon="5.9021">
        <ele>1524.31</ele>
        <time>2019-06-16T09:55:03Z</time>
      </trkpt>
      <trkpt lat="45.48944" lon="5.902">
        <ele>1526.71</ele>
        <time>2019-06-16T09:55:15Z</time>
      </trkpt>
      <trkpt lat="45.4895" lon="5.90198">
        <ele>1527.19</ele>
        <time>2019-06-16T09:55:28Z</time>
      </trkpt>
      <trkpt lat="45.48955" lon="5.90203">
        <ele>1526.71</ele>
        <time>2019-06-16T09:55:43Z</time>
      </trkpt>
      <trkpt lat="45.48964" lon="5.90196">
        <ele>1527.67</ele>
        <time>2019-06-16T09:55:59Z</time>
      </trkpt>
      <trkpt lat="45.48973" lon="5.9018">
        <ele>1529.59</ele>
        <time>2019-06-16T09:56:16Z</time>
      </trkpt>
      <trkpt lat="45.48982" lon="5.90166">
        <ele>1531.04</ele>
        <time>2019-06-16T09:56:30Z</time>
      </trkpt>
      <trkpt lat="45.48989" lon="5.90153">
        <ele>1533.44</ele>
        <time>2019-06-16T09:56:44Z</time>
      </trkpt>
      <trkpt lat="45.48996" lon="5.90153">
        <ele>1534.88</ele>
        <time>2019-06-16T09:56:57Z</time>
      </trkpt>
      <trkpt lat="45.48999" lon="5.90152">
        <ele>1534.88</ele>
        <time>2019-06-16T09:57:13Z</time>
      </trkpt>
      <trkpt lat="45.49004" lon="5.90155">
        <ele>1536.32</ele>
        <time>2019-06-16T09:57:26Z</time>
      </trkpt>
      <trkpt lat="45.49008" lon="5.90152">
        <ele>1539.21</ele>
        <time>2019-06-16T09:57:34Z</time>
      </trkpt>
      <trkpt lat="45.49014" lon="5.90148">
        <ele>1541.13</ele>
        <time>2019-06-16T09:57:48Z</time>
      </trkpt>
      <trkpt lat="45.49018" lon="5.90144">
        <ele>1542.09</ele>
        <time>2019-06-16T09:58:00Z</time>
      </trkpt>
      <trkpt lat="45.49013" lon="5.90141">
        <ele>1542.57</ele>
        <time>2019-06-16T09:58:22Z</time>
      </trkpt>
      <trkpt lat="45.49015" lon="5.90142">
        <ele>1542.09</ele>
        <time>2019-06-16T09:58:41Z</time>
      </trkpt>
      <trkpt lat="45.49017" lon="5.9014">
        <ele>1542.57</ele>
        <time>2019-06-16T09:59:09Z</time>
      </trkpt>
      <trkpt lat="45.49029" lon="5.90133">
        <ele>1543.53</ele>
        <time>2019-06-16T09:59:23Z</time>
      </trkpt>
      <trkpt lat="45.49033" lon="5.90122">
        <ele>1542.57</ele>
        <time>2019-06-16T09:59:32Z</time>
      </trkpt>
      <trkpt lat="45.49041" lon="5.90108">
        <ele>1541.13</ele>
        <time>2019-06-16T09:59:49Z</time>
      </trkpt>
      <trkpt lat="45.49042" lon="5.90109">
        <ele>1541.61</ele>
        <time>2019-06-16T10:00:12Z</time>
      </trkpt>
      <trkpt lat="45.49044" lon="5.90104">
        <ele>1540.17</ele>
        <time>2019-06-16T10:00:40Z</time>
      </trkpt>
      <trkpt lat="45.49044" lon="5.9009">
        <ele>1539.21</ele>
        <time>2019-06-16T10:00:57Z</time>
      </trkpt>
      <trkpt lat="45.49047" lon="5.90081">
        <ele>1536.32</ele>
        <time>2019-06-16T10:01:12Z</time>
      </trkpt>
      <trkpt lat="45.49051" lon="5.90068">
        <ele>1532.96</ele>
        <time>2019-06-16T10:01:26Z</time>
      </trkpt>
      <trkpt lat="45.49048" lon="5.90051">
        <ele>1533.44</ele>
        <time>2019-06-16T10:01:41Z</time>
      </trkpt>
      <trkpt lat="45.49056" lon="5.90037">
        <ele>1533.44</ele>
        <time>2019-06-16T10:01:56Z</time>
      </trkpt>
      <trkpt lat="45.4906" lon="5.90025">
        <ele>1533.92</ele>
        <time>2019-06-16T10:02:11Z</time>
      </trkpt>
      <trkpt lat="45.49067" lon="5.90004">
        <ele>1533.44</ele>
        <time>2019-06-16T10:02:27Z</time>
      </trkpt>
      <trkpt lat="45.49073" lon="5.89994">
        <ele>1531.52</ele>
        <time>2019-06-16T10:02:42Z</time>
      </trkpt>
      <trkpt lat="45.49079" lon="5.89977">
        <ele>1528.63</ele>
        <time>2019-06-16T10:02:55Z</time>
      </trkpt>
      <trkpt lat="45.49085" lon="5.89964">
        <ele>1529.11</ele>
        <time>2019-06-16T10:03:11Z</time>
      </trkpt>
      <trkpt lat="45.49092" lon="5.89953">
        <ele>1532</ele>
        <time>2019-06-16T10:03:25Z</time>
      </trkpt>
      <trkpt lat="45.49094" lon="5.89942">
        <ele>1533.92</ele>
        <time>2019-06-16T10:03:39Z</time>
      </trkpt>
      <trkpt lat="45.49099" lon="5.89936">
        <ele>1536.32</ele>
        <time>2019-06-16T10:03:56Z</time>
      </trkpt>
      <trkpt lat="45.49101" lon="5.89932">
        <ele>1537.77</ele>
        <time>2019-06-16T10:04:07Z</time>
      </trkpt>
      <trkpt lat="45.49102" lon="5.89923">
        <ele>1540.17</ele>
        <time>2019-06-16T10:04:24Z</time>
      </trkpt>
      <trkpt lat="45.49105" lon="5.89913">
        <ele>1542.57</ele>
        <time>2019-06-16T10:04:40Z</time>
      </trkpt>
      <trkpt lat="45.49109" lon="5.89899">
        <ele>1543.53</ele>
        <time>2019-06-16T10:04:56Z</time>
      </trkpt>
      <trkpt lat="45.4911" lon="5.89887">
        <ele>1544.5</ele>
        <time>2019-06-16T10:05:12Z</time>
      </trkpt>
      <trkpt lat="45.49115" lon="5.89868">
        <ele>1547.38</ele>
        <time>2019-06-16T10:05:32Z</time>
      </trkpt>
      <trkpt lat="45.49118" lon="5.89857">
        <ele>1549.78</ele>
        <time>2019-06-16T10:05:48Z</time>
      </trkpt>
      <trkpt lat="45.49121" lon="5.89843">
        <ele>1551.71</ele>
        <time>2019-06-16T10:06:04Z</time>
      </trkpt>
      <trkpt lat="45.49123" lon="5.89825">
        <ele>1549.78</ele>
        <time>2019-06-16T10:06:21Z</time>
      </trkpt>
      <trkpt lat="45.49125" lon="5.89807">
        <ele>1548.82</ele>
        <time>2019-06-16T10:06:37Z</time>
      </trkpt>
      <trkpt lat="45.49129" lon="5.89799">
        <ele>1551.22</ele>
        <time>2019-06-16T10:06:51Z</time>
      </trkpt>
      <trkpt lat="45.49127" lon="5.89796">
        <ele>1550.74</ele>
        <time>2019-06-16T10:07:13Z</time>
      </trkpt>
      <trkpt lat="45.49129" lon="5.89797">
        <ele>1551.22</ele>
        <time>2019-06-16T10:07:32Z</time>
      </trkpt>
      <trkpt lat="45.4914" lon="5.89795">
        <ele>1553.63</ele>
        <time>2019-06-16T10:07:49Z</time>
      </trkpt>
      <trkpt lat="45.49145" lon="5.8979">
        <ele>1554.11</ele>
        <time>2019-06-16T10:08:02Z</time>
      </trkpt>
      <trkpt lat="45.49154" lon="5.89776">
        <ele>1554.11</ele>
        <time>2019-06-16T10:08:19Z</time>
      </trkpt>
      <trkpt lat="45.49157" lon="5.8977">
        <ele>1554.11</ele>
        <time>2019-06-16T10:08:26Z</time>
      </trkpt>
      <trkpt lat="45.49168" lon="5.89761">
        <ele>1554.59</ele>
        <time>2019-06-16T10:08:43Z</time>
      </trkpt>
      <trkpt lat="45.49175" lon="5.89752">
        <ele>1552.67</ele>
        <time>2019-06-16T10:09:00Z</time>
      </trkpt>
      <trkpt lat="45.49179" lon="5.89741">
        <ele>1552.67</ele>
        <time>2019-06-16T10:09:12Z</time>
      </trkpt>
      <trkpt lat="45.49187" lon="5.89732">
        <ele>1550.26</ele>
        <time>2019-06-16T10:09:27Z</time>
      </trkpt>
      <trkpt lat="45.49183" lon="5.89721">
        <ele>1550.74</ele>
        <time>2019-06-16T10:09:42Z</time>
      </trkpt>
      <trkpt lat="45.49182" lon="5.89724">
        <ele>1550.74</ele>
        <time>2019-06-16T10:10:00Z</time>
      </trkpt>
      <trkpt lat="45.49181" lon="5.8973">
        <ele>1550.26</ele>
        <time>2019-06-16T10:10:32Z</time>
      </trkpt>
      <trkpt lat="45.49181" lon="5.89736">
        <ele>1551.22</ele>
        <time>2019-06-16T10:10:48Z</time>
      </trkpt>
      <trkpt lat="45.49182" lon="5.89733">
        <ele>1551.22</ele>
        <time>2019-06-16T10:11:17Z</time>
      </trkpt>
      <trkpt lat="45.49183" lon="5.89738">
        <ele>1551.22</ele>
        <time>2019-06-16T10:11:34Z</time>
      </trkpt>
      <trkpt lat="45.49188" lon="5.89742">
        <ele>1550.74</ele>
        <time>2019-06-16T10:11:57Z</time>
      </trkpt>
      <trkpt lat="45.49188" lon="5.89737">
        <ele>1549.78</ele>
        <time>2019-06-16T10:12:18Z</time>
      </trkpt>
      <trkpt lat="45.49188" lon="5.89737">
        <ele>1549.3</ele>
        <time>2019-06-16T10:12:30Z</time>
      </trkpt>
      <trkpt lat="45.49187" lon="5.89737">
        <ele>1550.74</ele>
        <time>2019-06-16T10:12:34Z</time>
      </trkpt>
      <trkpt lat="45.4919" lon="5.89744">
        <ele>1549.3</ele>
        <time>2019-06-16T10:12:54Z</time>
      </trkpt>
      <trkpt lat="45.49196" lon="5.89748">
        <ele>1547.86</ele>
        <time>2019-06-16T10:13:13Z</time>
      </trkpt>
      <trkpt lat="45.49202" lon="5.89749">
        <ele>1546.42</ele>
        <time>2019-06-16T10:13:28Z</time>
      </trkpt>
      <trkpt lat="45.49206" lon="5.89749">
        <ele>1544.5</ele>
        <time>2019-06-16T10:13:45Z</time>
      </trkpt>
      <trkpt lat="45.49213" lon="5.8975">
        <ele>1543.05</ele>
        <time>2019-06-16T10:14:02Z</time>
      </trkpt>
      <trkpt lat="45.49219" lon="5.89749">
        <ele>1541.61</ele>
        <time>2019-06-16T10:14:16Z</time>
      </trkpt>
      <trkpt lat="45.49225" lon="5.89742">
        <ele>1539.21</ele>
        <time>2019-06-16T10:14:30Z</time>
      </trkpt>
      <trkpt lat="45.49231" lon="5.8974">
        <ele>1536.8</ele>
        <time>2019-06-16T10:14:45Z</time>
      </trkpt>
      <trkpt lat="45.49236" lon="5.89741">
        <ele>1533.92</ele>
        <time>2019-06-16T10:15:01Z</time>
      </trkpt>
      <trkpt lat="45.49237" lon="5.89735">
        <ele>1533.44</ele>
        <time>2019-06-16T10:15:22Z</time>
      </trkpt>
      <trkpt lat="45.49238" lon="5.89735">
        <ele>1533.44</ele>
        <time>2019-06-16T10:15:23Z</time>
      </trkpt>
      <trkpt lat="45.49242" lon="5.89741">
        <ele>1532.48</ele>
        <time>2019-06-16T10:15:41Z</time>
      </trkpt>
      <trkpt lat="45.49243" lon="5.89741">
        <ele>1533.44</ele>
        <time>2019-06-16T10:16:02Z</time>
      </trkpt>
      <trkpt lat="45.49242" lon="5.89738">
        <ele>1532.96</ele>
        <time>2019-06-16T10:16:22Z</time>
      </trkpt>
      <trkpt lat="45.49243" lon="5.89735">
        <ele>1532.96</ele>
        <time>2019-06-16T10:16:38Z</time>
      </trkpt>
      <trkpt lat="45.49248" lon="5.89742">
        <ele>1530.08</ele>
        <time>2019-06-16T10:16:56Z</time>
      </trkpt>
      <trkpt lat="45.49251" lon="5.89735">
        <ele>1527.19</ele>
        <time>2019-06-16T10:17:08Z</time>
      </trkpt>
      <trkpt lat="45.49255" lon="5.89737">
        <ele>1524.79</ele>
        <time>2019-06-16T10:17:21Z</time>
      </trkpt>
      <trkpt lat="45.49259" lon="5.89735">
        <ele>1523.35</ele>
        <time>2019-06-16T10:17:32Z</time>
      </trkpt>
      <trkpt lat="45.49256" lon="5.89726">
        <ele>1522.39</ele>
        <time>2019-06-16T10:17:46Z</time>
      </trkpt>
      <trkpt lat="45.49255" lon="5.89721">
        <ele>1520.46</ele>
        <time>2019-06-16T10:18:00Z</time>
      </trkpt>
      <trkpt lat="45.49255" lon="5.89711">
        <ele>1518.06</ele>
        <time>2019-06-16T10:18:14Z</time>
      </trkpt>
      <trkpt lat="45.49253" lon="5.89704">
        <ele>1515.66</ele>
        <time>2019-06-16T10:18:32Z</time>
      </trkpt>
      <trkpt lat="45.49254" lon="5.89698">
        <ele>1512.77</ele>
        <time>2019-06-16T10:18:46Z</time>
      </trkpt>
      <trkpt lat="45.49262" lon="5.89704">
        <ele>1509.89</ele>
        <time>2019-06-16T10:19:01Z</time>
      </trkpt>
      <trkpt lat="45.49267" lon="5.89708">
        <ele>1507.97</ele>
        <time>2019-06-16T10:19:16Z</time>
      </trkpt>
      <trkpt lat="45.49267" lon="5.89708">
        <ele>1507.48</ele>
        <time>2019-06-16T10:19:17Z</time>
      </trkpt>
      <trkpt lat="45.4927" lon="5.89715">
        <ele>1507</ele>
        <time>2019-06-16T10:19:32Z</time>
      </trkpt>
      <trkpt lat="45.49275" lon="5.89718">
        <ele>1505.56</ele>
        <time>2019-06-16T10:19:47Z</time>
      </trkpt>
      <trkpt lat="45.49278" lon="5.89721">
        <ele>1503.16</ele>
        <time>2019-06-16T10:20:00Z</time>
      </trkpt>
      <trkpt lat="45.49282" lon="5.89726">
        <ele>1500.27</ele>
        <time>2019-06-16T10:20:15Z</time>
      </trkpt>
      <trkpt lat="45.49285" lon="5.89728">
        <ele>1498.35</ele>
        <time>2019-06-16T10:20:31Z</time>
      </trkpt>
      <trkpt lat="45.49287" lon="5.89737">
        <ele>1494.99</ele>
        <time>2019-06-16T10:20:51Z</time>
      </trkpt>
      <trkpt lat="45.4929" lon="5.89741">
        <ele>1493.06</ele>
        <time>2019-06-16T10:21:10Z</time>
      </trkpt>
      <trkpt lat="45.49298" lon="5.89746">
        <ele>1491.14</ele>
        <time>2019-06-16T10:21:27Z</time>
      </trkpt>
      <trkpt lat="45.49296" lon="5.89756">
        <ele>1489.22</ele>
        <time>2019-06-16T10:21:41Z</time>
      </trkpt>
      <trkpt lat="45.493" lon="5.89766">
        <ele>1485.85</ele>
        <time>2019-06-16T10:21:53Z</time>
      </trkpt>
      <trkpt lat="45.49298" lon="5.89769">
        <ele>1484.89</ele>
        <time>2019-06-16T10:22:05Z</time>
      </trkpt>
      <trkpt lat="45.49301" lon="5.89767">
        <ele>1482.49</ele>
        <time>2019-06-16T10:22:22Z</time>
      </trkpt>
      <trkpt lat="45.49304" lon="5.89765">
        <ele>1479.61</ele>
        <time>2019-06-16T10:22:35Z</time>
      </trkpt>
      <trkpt lat="45.49306" lon="5.89763">
        <ele>1476.72</ele>
        <time>2019-06-16T10:22:49Z</time>
      </trkpt>
      <trkpt lat="45.49314" lon="5.89752">
        <ele>1473.36</ele>
        <time>2019-06-16T10:23:01Z</time>
      </trkpt>
      <trkpt lat="45.49316" lon="5.89743">
        <ele>1470.95</ele>
        <time>2019-06-16T10:23:15Z</time>
      </trkpt>
      <trkpt lat="45.49319" lon="5.89738">
        <ele>1470.47</ele>
        <time>2019-06-16T10:23:34Z</time>
      </trkpt>
      <trkpt lat="45.49328" lon="5.89728">
        <ele>1469.99</ele>
        <time>2019-06-16T10:23:50Z</time>
      </trkpt>
      <trkpt lat="45.49335" lon="5.89714">
        <ele>1467.11</ele>
        <time>2019-06-16T10:24:05Z</time>
      </trkpt>
      <trkpt lat="45.49341" lon="5.89709">
        <ele>1465.67</ele>
        <time>2019-06-16T10:24:18Z</time>
      </trkpt>
      <trkpt lat="45.49347" lon="5.89713">
        <ele>1464.23</ele>
        <time>2019-06-16T10:24:31Z</time>
      </trkpt>
      <trkpt lat="45.49351" lon="5.89706">
        <ele>1461.82</ele>
        <time>2019-06-16T10:24:44Z</time>
      </trkpt>
      <trkpt lat="45.49357" lon="5.89697">
        <ele>1458.94</ele>
        <time>2019-06-16T10:24:59Z</time>
      </trkpt>
      <trkpt lat="45.49361" lon="5.89689">
        <ele>1458.46</ele>
        <time>2019-06-16T10:25:14Z</time>
      </trkpt>
      <trkpt lat="45.49365" lon="5.89689">
        <ele>1458.46</ele>
        <time>2019-06-16T10:25:44Z</time>
      </trkpt>
      <trkpt lat="45.49375" lon="5.89684">
        <ele>1457.02</ele>
        <time>2019-06-16T10:26:01Z</time>
      </trkpt>
      <trkpt lat="45.49377" lon="5.89681">
        <ele>1455.57</ele>
        <time>2019-06-16T10:26:17Z</time>
      </trkpt>
      <trkpt lat="45.49385" lon="5.89683">
        <ele>1453.65</ele>
        <time>2019-06-16T10:26:32Z</time>
      </trkpt>
      <trkpt lat="45.49388" lon="5.89681">
        <ele>1452.21</ele>
        <time>2019-06-16T10:26:46Z</time>
      </trkpt>
      <trkpt lat="45.49397" lon="5.8968">
        <ele>1452.69</ele>
        <time>2019-06-16T10:27:03Z</time>
      </trkpt>
      <trkpt lat="45.49396" lon="5.89683">
        <ele>1451.25</ele>
        <time>2019-06-16T10:27:27Z</time>
      </trkpt>
      <trkpt lat="45.49405" lon="5.89673">
        <ele>1448.36</ele>
        <time>2019-06-16T10:27:44Z</time>
      </trkpt>
      <trkpt lat="45.49421" lon="5.89672">
        <ele>1447.88</ele>
        <time>2019-06-16T10:28:01Z</time>
      </trkpt>
      <trkpt lat="45.49431" lon="5.89676">
        <ele>1446.92</ele>
        <time>2019-06-16T10:28:13Z</time>
      </trkpt>
      <trkpt lat="45.4944" lon="5.89676">
        <ele>1447.4</ele>
        <time>2019-06-16T10:28:28Z</time>
      </trkpt>
      <trkpt lat="45.49451" lon="5.8968">
        <ele>1447.4</ele>
        <time>2019-06-16T10:28:42Z</time>
      </trkpt>
      <trkpt lat="45.49465" lon="5.89682">
        <ele>1447.4</ele>
        <time>2019-06-16T10:28:55Z</time>
      </trkpt>
      <trkpt lat="45.4948" lon="5.89686">
        <ele>1446.44</ele>
        <time>2019-06-16T10:29:09Z</time>
      </trkpt>
      <trkpt lat="45.49493" lon="5.89685">
        <ele>1446.44</ele>
        <time>2019-06-16T10:29:23Z</time>
      </trkpt>
      <trkpt lat="45.49505" lon="5.89679">
        <ele>1444.52</ele>
        <time>2019-06-16T10:29:37Z</time>
      </trkpt>
      <trkpt lat="45.49516" lon="5.89671">
        <ele>1442.11</ele>
        <time>2019-06-16T10:29:52Z</time>
      </trkpt>
      <trkpt lat="45.49524" lon="5.89657">
        <ele>1439.23</ele>
        <time>2019-06-16T10:30:09Z</time>
      </trkpt>
      <trkpt lat="45.49531" lon="5.89639">
        <ele>1436.83</ele>
        <time>2019-06-16T10:30:24Z</time>
      </trkpt>
      <trkpt lat="45.49536" lon="5.8963">
        <ele>1437.79</ele>
        <time>2019-06-16T10:30:39Z</time>
      </trkpt>
      <trkpt lat="45.49549" lon="5.89628">
        <ele>1439.23</ele>
        <time>2019-06-16T10:30:52Z</time>
      </trkpt>
      <trkpt lat="45.49555" lon="5.89627">
        <ele>1440.19</ele>
        <time>2019-06-16T10:31:12Z</time>
      </trkpt>
      <trkpt lat="45.49556" lon="5.89619">
        <ele>1439.71</ele>
        <time>2019-06-16T10:31:34Z</time>
      </trkpt>
      <trkpt lat="45.49553" lon="5.89626">
        <ele>1439.71</ele>
        <time>2019-06-16T10:31:52Z</time>
      </trkpt>
      <trkpt lat="45.49563" lon="5.89614">
        <ele>1442.11</ele>
        <time>2019-06-16T10:32:09Z</time>
      </trkpt>
      <trkpt lat="45.49571" lon="5.89603">
        <ele>1443.08</ele>
        <time>2019-06-16T10:32:24Z</time>
      </trkpt>
      <trkpt lat="45.49578" lon="5.89591">
        <ele>1445</ele>
        <time>2019-06-16T10:32:37Z</time>
      </trkpt>
      <trkpt lat="45.49582" lon="5.8959">
        <ele>1446.92</ele>
        <time>2019-06-16T10:32:49Z</time>
      </trkpt>
      <trkpt lat="45.4959" lon="5.89583">
        <ele>1449.32</ele>
        <time>2019-06-16T10:33:01Z</time>
      </trkpt>
      <trkpt lat="45.49598" lon="5.8957">
        <ele>1451.73</ele>
        <time>2019-06-16T10:33:17Z</time>
      </trkpt>
      <trkpt lat="45.49602" lon="5.8956">
        <ele>1453.65</ele>
        <time>2019-06-16T10:33:31Z</time>
      </trkpt>
      <trkpt lat="45.49601" lon="5.89548">
        <ele>1455.57</ele>
        <time>2019-06-16T10:33:46Z</time>
      </trkpt>
      <trkpt lat="45.49602" lon="5.89537">
        <ele>1456.53</ele>
        <time>2019-06-16T10:34:00Z</time>
      </trkpt>
      <trkpt lat="45.49607" lon="5.89523">
        <ele>1459.42</ele>
        <time>2019-06-16T10:34:19Z</time>
      </trkpt>
      <trkpt lat="45.4961" lon="5.89508">
        <ele>1460.86</ele>
        <time>2019-06-16T10:34:33Z</time>
      </trkpt>
      <trkpt lat="45.49616" lon="5.89497">
        <ele>1463.74</ele>
        <time>2019-06-16T10:34:50Z</time>
      </trkpt>
      <trkpt lat="45.49617" lon="5.89486">
        <ele>1466.15</ele>
        <time>2019-06-16T10:35:06Z</time>
      </trkpt>
      <trkpt lat="45.49616" lon="5.89474">
        <ele>1469.03</ele>
        <time>2019-06-16T10:35:23Z</time>
      </trkpt>
      <trkpt lat="45.49619" lon="5.89462">
        <ele>1470.47</ele>
        <time>2019-06-16T10:35:38Z</time>
      </trkpt>
      <trkpt lat="45.49623" lon="5.89465">
        <ele>1471.44</ele>
        <time>2019-06-16T10:36:01Z</time>
      </trkpt>
      <trkpt lat="45.49628" lon="5.89449">
        <ele>1473.84</ele>
        <time>2019-06-16T10:36:18Z</time>
      </trkpt>
      <trkpt lat="45.49633" lon="5.89437">
        <ele>1475.76</ele>
        <time>2019-06-16T10:36:33Z</time>
      </trkpt>
      <trkpt lat="45.49637" lon="5.89422">
        <ele>1479.13</ele>
        <time>2019-06-16T10:36:50Z</time>
      </trkpt>
      <trkpt lat="45.4964" lon="5.89413">
        <ele>1480.57</ele>
        <time>2019-06-16T10:37:05Z</time>
      </trkpt>
      <trkpt lat="45.49646" lon="5.89403">
        <ele>1482.49</ele>
        <time>2019-06-16T10:37:25Z</time>
      </trkpt>
      <trkpt lat="45.49657" lon="5.89397">
        <ele>1484.89</ele>
        <time>2019-06-16T10:37:44Z</time>
      </trkpt>
      <trkpt lat="45.49659" lon="5.89389">
        <ele>1486.82</ele>
        <time>2019-06-16T10:37:57Z</time>
      </trkpt>
      <trkpt lat="45.49655" lon="5.89386">
        <ele>1485.85</ele>
        <time>2019-06-16T10:38:17Z</time>
      </trkpt>
      <trkpt lat="45.49658" lon="5.89387">
        <ele>1486.34</ele>
        <time>2019-06-16T10:38:43Z</time>
      </trkpt>
      <trkpt lat="45.49658" lon="5.89385">
        <ele>1484.41</ele>
        <time>2019-06-16T10:39:00Z</time>
      </trkpt>
      <trkpt lat="45.49654" lon="5.89388">
        <ele>1484.89</ele>
        <time>2019-06-16T10:39:18Z</time>
      </trkpt>
      <trkpt lat="45.49653" lon="5.89386">
        <ele>1484.41</ele>
        <time>2019-06-16T10:39:20Z</time>
      </trkpt>
      <trkpt lat="45.49651" lon="5.89381">
        <ele>1481.53</ele>
        <time>2019-06-16T10:39:25Z</time>
      </trkpt>
      <trkpt lat="45.49651" lon="5.89381">
        <ele>1485.37</ele>
        <time>2019-06-16T10:39:26Z</time>
      </trkpt>
      <trkpt lat="45.49649" lon="5.89381">
        <ele>1484.41</ele>
        <time>2019-06-16T10:39:40Z</time>
      </trkpt>
      <trkpt lat="45.4965" lon="5.89385">
        <ele>1483.45</ele>
        <time>2019-06-16T10:39:58Z</time>
      </trkpt>
      <trkpt lat="45.4965" lon="5.89386">
        <ele>1484.41</ele>
        <time>2019-06-16T10:40:06Z</time>
      </trkpt>
      <trkpt lat="45.49649" lon="5.89382">
        <ele>1482.97</ele>
        <time>2019-06-16T10:40:20Z</time>
      </trkpt>
      <trkpt lat="45.49647" lon="5.89379">
        <ele>1482.97</ele>
        <time>2019-06-16T10:40:52Z</time>
      </trkpt>
      <trkpt lat="45.49651" lon="5.89379">
        <ele>1483.45</ele>
        <time>2019-06-16T10:41:08Z</time>
      </trkpt>
      <trkpt lat="45.49651" lon="5.89384">
        <ele>1483.45</ele>
        <time>2019-06-16T10:41:20Z</time>
      </trkpt>
      <trkpt lat="45.49648" lon="5.89382">
        <ele>1483.45</ele>
        <time>2019-06-16T10:41:47Z</time>
      </trkpt>
      <trkpt lat="45.49649" lon="5.89382">
        <ele>1482.97</ele>
        <time>2019-06-16T10:42:26Z</time>
      </trkpt>
      <trkpt lat="45.49652" lon="5.8938">
        <ele>1482.97</ele>
        <time>2019-06-16T10:42:38Z</time>
      </trkpt>
      <trkpt lat="45.49652" lon="5.8938">
        <ele>1482.97</ele>
        <time>2019-06-16T10:42:53Z</time>
      </trkpt>
      <trkpt lat="45.49652" lon="5.89383">
        <ele>1483.45</ele>
        <time>2019-06-16T10:43:18Z</time>
      </trkpt>
      <trkpt lat="45.49654" lon="5.89382">
        <ele>1482.97</ele>
        <time>2019-06-16T10:43:34Z</time>
      </trkpt>
      <trkpt lat="45.49653" lon="5.89381">
        <ele>1483.45</ele>
        <time>2019-06-16T10:43:57Z</time>
      </trkpt>
      <trkpt lat="45.49654" lon="5.8938">
        <ele>1483.45</ele>
        <time>2019-06-16T10:44:41Z</time>
      </trkpt>
      <trkpt lat="45.49654" lon="5.8938">
        <ele>1484.41</ele>
        <time>2019-06-16T10:45:17Z</time>
      </trkpt>
      <trkpt lat="45.49653" lon="5.89381">
        <ele>1483.45</ele>
        <time>2019-06-16T10:45:54Z</time>
      </trkpt>
      <trkpt lat="45.49652" lon="5.89379">
        <ele>1483.45</ele>
        <time>2019-06-16T10:46:30Z</time>
      </trkpt>
      <trkpt lat="45.49652" lon="5.89379">
        <ele>1483.45</ele>
        <time>2019-06-16T10:47:13Z</time>
      </trkpt>
      <trkpt lat="45.49653" lon="5.89379">
        <ele>1482.97</ele>
        <time>2019-06-16T10:47:47Z</time>
      </trkpt>
      <trkpt lat="45.49651" lon="5.89379">
        <ele>1482.97</ele>
        <time>2019-06-16T10:48:24Z</time>
      </trkpt>
      <trkpt lat="45.49652" lon="5.89382">
        <ele>1483.45</ele>
        <time>2019-06-16T10:49:00Z</time>
      </trkpt>
      <trkpt lat="45.49653" lon="5.89384">
        <ele>1482.97</ele>
        <time>2019-06-16T10:49:35Z</time>
      </trkpt>
      <trkpt lat="45.49653" lon="5.89383">
        <ele>1482.97</ele>
        <time>2019-06-16T10:50:04Z</time>
      </trkpt>
      <trkpt lat="45.49653" lon="5.89382">
        <ele>1483.45</ele>
        <time>2019-06-16T10:50:32Z</time>
      </trkpt>
      <trkpt lat="45.49652" lon="5.89383">
        <ele>1483.45</ele>
        <time>2019-06-16T10:51:06Z</time>
      </trkpt>
      <trkpt lat="45.49653" lon="5.89384">
        <ele>1483.45</ele>
        <time>2019-06-16T10:51:38Z</time>
      </trkpt>
      <trkpt lat="45.49652" lon="5.89384">
        <ele>1483.93</ele>
        <time>2019-06-16T10:52:13Z</time>
      </trkpt>
      <trkpt lat="45.49651" lon="5.8938">
        <ele>1483.45</ele>
        <time>2019-06-16T10:52:48Z</time>
      </trkpt>
      <trkpt lat="45.49651" lon="5.8938">
        <ele>1483.45</ele>
        <time>2019-06-16T10:53:20Z</time>
      </trkpt>
      <trkpt lat="45.49653" lon="5.89383">
        <ele>1483.93</ele>
        <time>2019-06-16T10:53:48Z</time>
      </trkpt>
      <trkpt lat="45.49654" lon="5.89385">
        <ele>1483.93</ele>
        <time>2019-06-16T10:54:27Z</time>
      </trkpt>
      <trkpt lat="45.49657" lon="5.89385">
        <ele>1483.93</ele>
        <time>2019-06-16T10:54:57Z</time>
      </trkpt>
      <trkpt lat="45.49653" lon="5.89381">
        <ele>1483.93</ele>
        <time>2019-06-16T10:55:32Z</time>
      </trkpt>
      <trkpt lat="45.49652" lon="5.89382">
        <ele>1484.41</ele>
        <time>2019-06-16T10:56:06Z</time>
      </trkpt>
      <trkpt lat="45.49654" lon="5.89384">
        <ele>1484.41</ele>
        <time>2019-06-16T10:56:41Z</time>
      </trkpt>
      <trkpt lat="45.49658" lon="5.89386">
        <ele>1484.89</ele>
        <time>2019-06-16T10:57:12Z</time>
      </trkpt>
      <trkpt lat="45.49655" lon="5.89383">
        <ele>1484.41</ele>
        <time>2019-06-16T10:57:35Z</time>
      </trkpt>
      <trkpt lat="45.49655" lon="5.89385">
        <ele>1484.89</ele>
        <time>2019-06-16T10:58:05Z</time>
      </trkpt>
      <trkpt lat="45.49655" lon="5.89383">
        <ele>1484.89</ele>
        <time>2019-06-16T10:58:43Z</time>
      </trkpt>
      <trkpt lat="45.49657" lon="5.89385">
        <ele>1485.37</ele>
        <time>2019-06-16T10:59:13Z</time>
      </trkpt>
      <trkpt lat="45.49654" lon="5.8938">
        <ele>1485.85</ele>
        <time>2019-06-16T10:59:41Z</time>
      </trkpt>
      <trkpt lat="45.49655" lon="5.89381">
        <ele>1485.37</ele>
        <time>2019-06-16T11:00:08Z</time>
      </trkpt>
      <trkpt lat="45.49654" lon="5.89378">
        <ele>1486.34</ele>
        <time>2019-06-16T11:00:34Z</time>
      </trkpt>
      <trkpt lat="45.49653" lon="5.89381">
        <ele>1486.34</ele>
        <time>2019-06-16T11:01:00Z</time>
      </trkpt>
      <trkpt lat="45.49656" lon="5.89383">
        <ele>1486.34</ele>
        <time>2019-06-16T11:01:28Z</time>
      </trkpt>
      <trkpt lat="45.49656" lon="5.89378">
        <ele>1486.34</ele>
        <time>2019-06-16T11:02:00Z</time>
      </trkpt>
      <trkpt lat="45.49656" lon="5.89384">
        <ele>1485.85</ele>
        <time>2019-06-16T11:02:34Z</time>
      </trkpt>
      <trkpt lat="45.49655" lon="5.89382">
        <ele>1486.34</ele>
        <time>2019-06-16T11:03:10Z</time>
      </trkpt>
      <trkpt lat="45.49657" lon="5.89384">
        <ele>1487.3</ele>
        <time>2019-06-16T11:03:42Z</time>
      </trkpt>
      <trkpt lat="45.49655" lon="5.89385">
        <ele>1487.3</ele>
        <time>2019-06-16T11:04:22Z</time>
      </trkpt>
      <trkpt lat="45.49653" lon="5.89382">
        <ele>1488.26</ele>
        <time>2019-06-16T11:04:42Z</time>
      </trkpt>
      <trkpt lat="45.49652" lon="5.89383">
        <ele>1488.74</ele>
        <time>2019-06-16T11:05:03Z</time>
      </trkpt>
      <trkpt lat="45.49653" lon="5.89385">
        <ele>1488.26</ele>
        <time>2019-06-16T11:05:23Z</time>
      </trkpt>
      <trkpt lat="45.49652" lon="5.89377">
        <ele>1488.26</ele>
        <time>2019-06-16T11:05:47Z</time>
      </trkpt>
      <trkpt lat="45.49651" lon="5.89385">
        <ele>1488.26</ele>
        <time>2019-06-16T11:06:09Z</time>
      </trkpt>
      <trkpt lat="45.4965" lon="5.89386">
        <ele>1487.78</ele>
        <time>2019-06-16T11:06:36Z</time>
      </trkpt>
      <trkpt lat="45.4965" lon="5.89387">
        <ele>1488.26</ele>
        <time>2019-06-16T11:07:01Z</time>
      </trkpt>
      <trkpt lat="45.49652" lon="5.89385">
        <ele>1488.74</ele>
        <time>2019-06-16T11:07:28Z</time>
      </trkpt>
      <trkpt lat="45.49649" lon="5.89385">
        <ele>1487.78</ele>
        <time>2019-06-16T11:07:53Z</time>
      </trkpt>
      <trkpt lat="45.49651" lon="5.89384">
        <ele>1488.26</ele>
        <time>2019-06-16T11:08:13Z</time>
      </trkpt>
      <trkpt lat="45.49648" lon="5.89382">
        <ele>1488.26</ele>
        <time>2019-06-16T11:08:36Z</time>
      </trkpt>
      <trkpt lat="45.49653" lon="5.89382">
        <ele>1488.26</ele>
        <time>2019-06-16T11:08:52Z</time>
      </trkpt>
      <trkpt lat="45.49657" lon="5.89371">
        <ele>1485.37</ele>
        <time>2019-06-16T11:09:05Z</time>
      </trkpt>
      <trkpt lat="45.49656" lon="5.89362">
        <ele>1482.49</ele>
        <time>2019-06-16T11:09:19Z</time>
      </trkpt>
      <trkpt lat="45.49656" lon="5.89356">
        <ele>1479.61</ele>
        <time>2019-06-16T11:09:36Z</time>
      </trkpt>
      <trkpt lat="45.49657" lon="5.89351">
        <ele>1477.2</ele>
        <time>2019-06-16T11:09:49Z</time>
      </trkpt>
      <trkpt lat="45.49656" lon="5.89345">
        <ele>1474.32</ele>
        <time>2019-06-16T11:10:04Z</time>
      </trkpt>
      <trkpt lat="45.49662" lon="5.89337">
        <ele>1471.92</ele>
        <time>2019-06-16T11:10:17Z</time>
      </trkpt>
      <trkpt lat="45.49661" lon="5.89333">
        <ele>1469.99</ele>
        <time>2019-06-16T11:10:31Z</time>
      </trkpt>
      <trkpt lat="45.49659" lon="5.89332">
        <ele>1468.07</ele>
        <time>2019-06-16T11:10:47Z</time>
      </trkpt>
      <trkpt lat="45.49661" lon="5.89328">
        <ele>1466.15</ele>
        <time>2019-06-16T11:10:54Z</time>
      </trkpt>
      <trkpt lat="45.49661" lon="5.89324">
        <ele>1463.74</ele>
        <time>2019-06-16T11:11:07Z</time>
      </trkpt>
      <trkpt lat="45.49662" lon="5.89317">
        <ele>1461.82</ele>
        <time>2019-06-16T11:11:21Z</time>
      </trkpt>
      <trkpt lat="45.49656" lon="5.89311">
        <ele>1458.46</ele>
        <time>2019-06-16T11:11:36Z</time>
      </trkpt>
      <trkpt lat="45.49662" lon="5.89305">
        <ele>1455.57</ele>
        <time>2019-06-16T11:11:53Z</time>
      </trkpt>
      <trkpt lat="45.49668" lon="5.89298">
        <ele>1453.17</ele>
        <time>2019-06-16T11:12:08Z</time>
      </trkpt>
      <trkpt lat="45.49671" lon="5.89288">
        <ele>1450.29</ele>
        <time>2019-06-16T11:12:23Z</time>
      </trkpt>
      <trkpt lat="45.49676" lon="5.8928">
        <ele>1447.88</ele>
        <time>2019-06-16T11:12:39Z</time>
      </trkpt>
      <trkpt lat="45.49683" lon="5.89268">
        <ele>1445.48</ele>
        <time>2019-06-16T11:12:56Z</time>
      </trkpt>
      <trkpt lat="45.49683" lon="5.89257">
        <ele>1444.52</ele>
        <time>2019-06-16T11:13:13Z</time>
      </trkpt>
      <trkpt lat="45.49682" lon="5.89253">
        <ele>1439.71</ele>
        <time>2019-06-16T11:13:28Z</time>
      </trkpt>
      <trkpt lat="45.49682" lon="5.89252">
        <ele>1448.36</ele>
        <time>2019-06-16T11:13:29Z</time>
      </trkpt>
      <trkpt lat="45.49682" lon="5.89252">
        <ele>1444.04</ele>
        <time>2019-06-16T11:13:30Z</time>
      </trkpt>
      <trkpt lat="45.49682" lon="5.89248">
        <ele>1444.04</ele>
        <time>2019-06-16T11:13:55Z</time>
      </trkpt>
      <trkpt lat="45.49686" lon="5.89245">
        <ele>1442.6</ele>
        <time>2019-06-16T11:14:09Z</time>
      </trkpt>
      <trkpt lat="45.49686" lon="5.89234">
        <ele>1440.67</ele>
        <time>2019-06-16T11:14:26Z</time>
      </trkpt>
      <trkpt lat="45.49686" lon="5.89223">
        <ele>1439.23</ele>
        <time>2019-06-16T11:14:45Z</time>
      </trkpt>
      <trkpt lat="45.49686" lon="5.89216">
        <ele>1436.83</ele>
        <time>2019-06-16T11:15:00Z</time>
      </trkpt>
      <trkpt lat="45.49681" lon="5.89204">
        <ele>1434.91</ele>
        <time>2019-06-16T11:15:18Z</time>
      </trkpt>
      <trkpt lat="45.49678" lon="5.89201">
        <ele>1432.5</ele>
        <time>2019-06-16T11:15:32Z</time>
      </trkpt>
      <trkpt lat="45.4968" lon="5.89193">
        <ele>1431.54</ele>
        <time>2019-06-16T11:15:50Z</time>
      </trkpt>
      <trkpt lat="45.4968" lon="5.89184">
        <ele>1428.66</ele>
        <time>2019-06-16T11:16:06Z</time>
      </trkpt>
      <trkpt lat="45.49674" lon="5.89179">
        <ele>1426.73</ele>
        <time>2019-06-16T11:16:22Z</time>
      </trkpt>
      <trkpt lat="45.49677" lon="5.89178">
        <ele>1424.81</ele>
        <time>2019-06-16T11:16:41Z</time>
      </trkpt>
      <trkpt lat="45.49674" lon="5.89178">
        <ele>1422.41</ele>
        <time>2019-06-16T11:16:59Z</time>
      </trkpt>
      <trkpt lat="45.49677" lon="5.89176">
        <ele>1420.49</ele>
        <time>2019-06-16T11:17:06Z</time>
      </trkpt>
      <trkpt lat="45.49677" lon="5.89169">
        <ele>1418.56</ele>
        <time>2019-06-16T11:17:20Z</time>
      </trkpt>
      <trkpt lat="45.49677" lon="5.89163">
        <ele>1416.64</ele>
        <time>2019-06-16T11:17:33Z</time>
      </trkpt>
      <trkpt lat="45.49677" lon="5.89156">
        <ele>1413.76</ele>
        <time>2019-06-16T11:17:48Z</time>
      </trkpt>
      <trkpt lat="45.49674" lon="5.89148">
        <ele>1410.39</ele>
        <time>2019-06-16T11:17:59Z</time>
      </trkpt>
      <trkpt lat="45.49678" lon="5.89147">
        <ele>1407.51</ele>
        <time>2019-06-16T11:18:13Z</time>
      </trkpt>
      <trkpt lat="45.49681" lon="5.89131">
        <ele>1404.62</ele>
        <time>2019-06-16T11:18:31Z</time>
      </trkpt>
      <trkpt lat="45.49682" lon="5.89118">
        <ele>1401.26</ele>
        <time>2019-06-16T11:18:43Z</time>
      </trkpt>
      <trkpt lat="45.49682" lon="5.89109">
        <ele>1399.34</ele>
        <time>2019-06-16T11:18:54Z</time>
      </trkpt>
      <trkpt lat="45.49682" lon="5.89106">
        <ele>1398.37</ele>
        <time>2019-06-16T11:18:56Z</time>
      </trkpt>
      <trkpt lat="45.49683" lon="5.89099">
        <ele>1398.37</ele>
        <time>2019-06-16T11:19:14Z</time>
      </trkpt>
      <trkpt lat="45.49681" lon="5.89097">
        <ele>1395.97</ele>
        <time>2019-06-16T11:19:37Z</time>
      </trkpt>
      <trkpt lat="45.4968" lon="5.89096">
        <ele>1401.74</ele>
        <time>2019-06-16T11:19:38Z</time>
      </trkpt>
      <trkpt lat="45.4968" lon="5.89096">
        <ele>1396.93</ele>
        <time>2019-06-16T11:19:39Z</time>
      </trkpt>
      <trkpt lat="45.49681" lon="5.89096">
        <ele>1397.89</ele>
        <time>2019-06-16T11:20:00Z</time>
      </trkpt>
      <trkpt lat="45.49673" lon="5.89087">
        <ele>1399.34</ele>
        <time>2019-06-16T11:20:15Z</time>
      </trkpt>
      <trkpt lat="45.4967" lon="5.8908">
        <ele>1398.37</ele>
        <time>2019-06-16T11:20:23Z</time>
      </trkpt>
      <trkpt lat="45.49671" lon="5.89065">
        <ele>1398.37</ele>
        <time>2019-06-16T11:20:36Z</time>
      </trkpt>
      <trkpt lat="45.49671" lon="5.89054">
        <ele>1396.45</ele>
        <time>2019-06-16T11:20:48Z</time>
      </trkpt>
      <trkpt lat="45.49669" lon="5.89047">
        <ele>1394.05</ele>
        <time>2019-06-16T11:21:00Z</time>
      </trkpt>
      <trkpt lat="45.49669" lon="5.89038">
        <ele>1394.05</ele>
        <time>2019-06-16T11:21:14Z</time>
      </trkpt>
      <trkpt lat="45.49667" lon="5.89031">
        <ele>1392.13</ele>
        <time>2019-06-16T11:21:33Z</time>
      </trkpt>
      <trkpt lat="45.49669" lon="5.89028">
        <ele>1390.2</ele>
        <time>2019-06-16T11:21:49Z</time>
      </trkpt>
      <trkpt lat="45.49668" lon="5.89016">
        <ele>1386.84</ele>
        <time>2019-06-16T11:22:02Z</time>
      </trkpt>
      <trkpt lat="45.4967" lon="5.89002">
        <ele>1383.96</ele>
        <time>2019-06-16T11:22:17Z</time>
      </trkpt>
      <trkpt lat="45.49669" lon="5.8899">
        <ele>1382.99</ele>
        <time>2019-06-16T11:22:31Z</time>
      </trkpt>
      <trkpt lat="45.49668" lon="5.8897">
        <ele>1383.47</ele>
        <time>2019-06-16T11:22:46Z</time>
      </trkpt>
      <trkpt lat="45.49662" lon="5.88954">
        <ele>1385.88</ele>
        <time>2019-06-16T11:22:59Z</time>
      </trkpt>
      <trkpt lat="45.4966" lon="5.8894">
        <ele>1387.8</ele>
        <time>2019-06-16T11:23:14Z</time>
      </trkpt>
      <trkpt lat="45.49656" lon="5.88925">
        <ele>1385.88</ele>
        <time>2019-06-16T11:23:30Z</time>
      </trkpt>
      <trkpt lat="45.49649" lon="5.88911">
        <ele>1383.96</ele>
        <time>2019-06-16T11:23:46Z</time>
      </trkpt>
      <trkpt lat="45.49642" lon="5.88894">
        <ele>1383.47</ele>
        <time>2019-06-16T11:24:02Z</time>
      </trkpt>
      <trkpt lat="45.49638" lon="5.88887">
        <ele>1382.99</ele>
        <time>2019-06-16T11:24:16Z</time>
      </trkpt>
      <trkpt lat="45.49639" lon="5.88883">
        <ele>1382.51</ele>
        <time>2019-06-16T11:24:33Z</time>
      </trkpt>
      <trkpt lat="45.49639" lon="5.88875">
        <ele>1381.55</ele>
        <time>2019-06-16T11:24:55Z</time>
      </trkpt>
      <trkpt lat="45.49634" lon="5.88877">
        <ele>1381.55</ele>
        <time>2019-06-16T11:25:13Z</time>
      </trkpt>
      <trkpt lat="45.49635" lon="5.8888">
        <ele>1380.59</ele>
        <time>2019-06-16T11:25:31Z</time>
      </trkpt>
      <trkpt lat="45.49634" lon="5.8888">
        <ele>1379.63</ele>
        <time>2019-06-16T11:25:51Z</time>
      </trkpt>
      <trkpt lat="45.49633" lon="5.88874">
        <ele>1378.19</ele>
        <time>2019-06-16T11:26:11Z</time>
      </trkpt>
      <trkpt lat="45.49637" lon="5.8887">
        <ele>1377.71</ele>
        <time>2019-06-16T11:26:31Z</time>
      </trkpt>
      <trkpt lat="45.49635" lon="5.88877">
        <ele>1379.63</ele>
        <time>2019-06-16T11:26:55Z</time>
      </trkpt>
      <trkpt lat="45.49635" lon="5.88874">
        <ele>1379.15</ele>
        <time>2019-06-16T11:27:18Z</time>
      </trkpt>
      <trkpt lat="45.49632" lon="5.88869">
        <ele>1377.71</ele>
        <time>2019-06-16T11:27:40Z</time>
      </trkpt>
      <trkpt lat="45.49635" lon="5.88869">
        <ele>1377.71</ele>
        <time>2019-06-16T11:27:59Z</time>
      </trkpt>
      <trkpt lat="45.49636" lon="5.8887">
        <ele>1378.19</ele>
        <time>2019-06-16T11:28:27Z</time>
      </trkpt>
      <trkpt lat="45.49637" lon="5.88862">
        <ele>1377.71</ele>
        <time>2019-06-16T11:28:45Z</time>
      </trkpt>
      <trkpt lat="45.49639" lon="5.88858">
        <ele>1378.67</ele>
        <time>2019-06-16T11:28:57Z</time>
      </trkpt>
      <trkpt lat="45.49637" lon="5.88866">
        <ele>1378.19</ele>
        <time>2019-06-16T11:29:13Z</time>
      </trkpt>
      <trkpt lat="45.49632" lon="5.88871">
        <ele>1376.75</ele>
        <time>2019-06-16T11:29:36Z</time>
      </trkpt>
      <trkpt lat="45.49636" lon="5.88864">
        <ele>1377.71</ele>
        <time>2019-06-16T11:30:05Z</time>
      </trkpt>
      <trkpt lat="45.49639" lon="5.88852">
        <ele>1377.23</ele>
        <time>2019-06-16T11:30:21Z</time>
      </trkpt>
      <trkpt lat="45.49636" lon="5.88857">
        <ele>1377.23</ele>
        <time>2019-06-16T11:30:46Z</time>
      </trkpt>
      <trkpt lat="45.49639" lon="5.88845">
        <ele>1376.75</ele>
        <time>2019-06-16T11:31:05Z</time>
      </trkpt>
      <trkpt lat="45.49645" lon="5.88844">
        <ele>1377.23</ele>
        <time>2019-06-16T11:31:26Z</time>
      </trkpt>
      <trkpt lat="45.49645" lon="5.88845">
        <ele>1377.71</ele>
        <time>2019-06-16T11:31:52Z</time>
      </trkpt>
      <trkpt lat="45.49643" lon="5.88842">
        <ele>1377.23</ele>
        <time>2019-06-16T11:32:26Z</time>
      </trkpt>
      <trkpt lat="45.49642" lon="5.88847">
        <ele>1377.23</ele>
        <time>2019-06-16T11:32:58Z</time>
      </trkpt>
      <trkpt lat="45.49637" lon="5.88844">
        <ele>1377.23</ele>
        <time>2019-06-16T11:33:24Z</time>
      </trkpt>
      <trkpt lat="45.49637" lon="5.88843">
        <ele>1376.75</ele>
        <time>2019-06-16T11:33:37Z</time>
      </trkpt>
      <trkpt lat="45.49639" lon="5.8884">
        <ele>1376.26</ele>
        <time>2019-06-16T11:34:00Z</time>
      </trkpt>
      <trkpt lat="45.49637" lon="5.88836">
        <ele>1374.82</ele>
        <time>2019-06-16T11:34:27Z</time>
      </trkpt>
      <trkpt lat="45.49638" lon="5.88825">
        <ele>1372.9</ele>
        <time>2019-06-16T11:34:41Z</time>
      </trkpt>
      <trkpt lat="45.49637" lon="5.88811">
        <ele>1369.54</ele>
        <time>2019-06-16T11:34:55Z</time>
      </trkpt>
      <trkpt lat="45.49636" lon="5.88808">
        <ele>1366.65</ele>
        <time>2019-06-16T11:35:06Z</time>
      </trkpt>
      <trkpt lat="45.49634" lon="5.88801">
        <ele>1363.77</ele>
        <time>2019-06-16T11:35:20Z</time>
      </trkpt>
      <trkpt lat="45.49638" lon="5.88797">
        <ele>1361.36</ele>
        <time>2019-06-16T11:35:33Z</time>
      </trkpt>
      <trkpt lat="45.49641" lon="5.88795">
        <ele>1361.84</ele>
        <time>2019-06-16T11:35:51Z</time>
      </trkpt>
      <trkpt lat="45.49642" lon="5.88789">
        <ele>1362.33</ele>
        <time>2019-06-16T11:35:55Z</time>
      </trkpt>
      <trkpt lat="45.49633" lon="5.88775">
        <ele>1362.81</ele>
        <time>2019-06-16T11:36:10Z</time>
      </trkpt>
      <trkpt lat="45.49623" lon="5.88765">
        <ele>1364.25</ele>
        <time>2019-06-16T11:36:22Z</time>
      </trkpt>
      <trkpt lat="45.49621" lon="5.88756">
        <ele>1361.84</ele>
        <time>2019-06-16T11:36:37Z</time>
      </trkpt>
      <trkpt lat="45.49622" lon="5.88743">
        <ele>1358.48</ele>
        <time>2019-06-16T11:36:54Z</time>
      </trkpt>
      <trkpt lat="45.49624" lon="5.88728">
        <ele>1356.56</ele>
        <time>2019-06-16T11:37:11Z</time>
      </trkpt>
      <trkpt lat="45.49624" lon="5.88722">
        <ele>1353.19</ele>
        <time>2019-06-16T11:37:22Z</time>
      </trkpt>
      <trkpt lat="45.49624" lon="5.88722">
        <ele>1353.19</ele>
        <time>2019-06-16T11:37:23Z</time>
      </trkpt>
      <trkpt lat="45.49623" lon="5.88713">
        <ele>1349.83</ele>
        <time>2019-06-16T11:37:32Z</time>
      </trkpt>
      <trkpt lat="45.49624" lon="5.88701">
        <ele>1348.39</ele>
        <time>2019-06-16T11:37:49Z</time>
      </trkpt>
      <trkpt lat="45.49623" lon="5.88697">
        <ele>1346.94</ele>
        <time>2019-06-16T11:38:03Z</time>
      </trkpt>
      <trkpt lat="45.49624" lon="5.88696">
        <ele>1346.94</ele>
        <time>2019-06-16T11:38:30Z</time>
      </trkpt>
      <trkpt lat="45.49621" lon="5.88701">
        <ele>1346.94</ele>
        <time>2019-06-16T11:38:49Z</time>
      </trkpt>
      <trkpt lat="45.49623" lon="5.88698">
        <ele>1346.46</ele>
        <time>2019-06-16T11:39:09Z</time>
      </trkpt>
      <trkpt lat="45.49624" lon="5.8869">
        <ele>1345.02</ele>
        <time>2019-06-16T11:39:27Z</time>
      </trkpt>
      <trkpt lat="45.4962" lon="5.88688">
        <ele>1342.62</ele>
        <time>2019-06-16T11:39:42Z</time>
      </trkpt>
      <trkpt lat="45.4962" lon="5.88679">
        <ele>1339.25</ele>
        <time>2019-06-16T11:39:56Z</time>
      </trkpt>
      <trkpt lat="45.49619" lon="5.88678">
        <ele>1338.77</ele>
        <time>2019-06-16T11:39:58Z</time>
      </trkpt>
      <trkpt lat="45.49618" lon="5.88672">
        <ele>1336.37</ele>
        <time>2019-06-16T11:40:11Z</time>
      </trkpt>
      <trkpt lat="45.49616" lon="5.88665">
        <ele>1333.49</ele>
        <time>2019-06-16T11:40:23Z</time>
      </trkpt>
      <trkpt lat="45.49616" lon="5.88662">
        <ele>1332.04</ele>
        <time>2019-06-16T11:40:27Z</time>
      </trkpt>
      <trkpt lat="45.49614" lon="5.88658">
        <ele>1332.04</ele>
        <time>2019-06-16T11:40:43Z</time>
      </trkpt>
      <trkpt lat="45.49613" lon="5.88658">
        <ele>1327.24</ele>
        <time>2019-06-16T11:41:00Z</time>
      </trkpt>
      <trkpt lat="45.49613" lon="5.88658">
        <ele>1335.41</ele>
        <time>2019-06-16T11:41:01Z</time>
      </trkpt>
      <trkpt lat="45.49613" lon="5.88658">
        <ele>1331.56</ele>
        <time>2019-06-16T11:41:02Z</time>
      </trkpt>
      <trkpt lat="45.49613" lon="5.88657">
        <ele>1327.72</ele>
        <time>2019-06-16T11:41:16Z</time>
      </trkpt>
      <trkpt lat="45.49613" lon="5.88657">
        <ele>1334.93</ele>
        <time>2019-06-16T11:41:17Z</time>
      </trkpt>
      <trkpt lat="45.49613" lon="5.88657">
        <ele>1331.56</ele>
        <time>2019-06-16T11:41:19Z</time>
      </trkpt>
      <trkpt lat="45.49614" lon="5.8866">
        <ele>1332.04</ele>
        <time>2019-06-16T11:41:43Z</time>
      </trkpt>
      <trkpt lat="45.49613" lon="5.8866">
        <ele>1332.04</ele>
        <time>2019-06-16T11:42:00Z</time>
      </trkpt>
      <trkpt lat="45.49614" lon="5.88661">
        <ele>1332.52</ele>
        <time>2019-06-16T11:42:25Z</time>
      </trkpt>
      <trkpt lat="45.49615" lon="5.88659">
        <ele>1332.04</ele>
        <time>2019-06-16T11:42:49Z</time>
      </trkpt>
      <trkpt lat="45.49614" lon="5.88657">
        <ele>1332.04</ele>
        <time>2019-06-16T11:43:12Z</time>
      </trkpt>
      <trkpt lat="45.49615" lon="5.88658">
        <ele>1332.52</ele>
        <time>2019-06-16T11:43:38Z</time>
      </trkpt>
      <trkpt lat="45.49611" lon="5.88644">
        <ele>1331.08</ele>
        <time>2019-06-16T11:43:52Z</time>
      </trkpt>
      <trkpt lat="45.49607" lon="5.88635">
        <ele>1329.64</ele>
        <time>2019-06-16T11:44:06Z</time>
      </trkpt>
      <trkpt lat="45.49602" lon="5.88625">
        <ele>1326.28</ele>
        <time>2019-06-16T11:44:17Z</time>
      </trkpt>
      <trkpt lat="45.49603" lon="5.88625">
        <ele>1326.28</ele>
        <time>2019-06-16T11:44:19Z</time>
      </trkpt>
      <trkpt lat="45.496" lon="5.88612">
        <ele>1322.91</ele>
        <time>2019-06-16T11:44:31Z</time>
      </trkpt>
      <trkpt lat="45.49597" lon="5.88599">
        <ele>1320.99</ele>
        <time>2019-06-16T11:44:45Z</time>
      </trkpt>
      <trkpt lat="45.49594" lon="5.88588">
        <ele>1320.03</ele>
        <time>2019-06-16T11:44:58Z</time>
      </trkpt>
      <trkpt lat="45.49593" lon="5.88579">
        <ele>1317.62</ele>
        <time>2019-06-16T11:45:11Z</time>
      </trkpt>
      <trkpt lat="45.49593" lon="5.88575">
        <ele>1315.7</ele>
        <time>2019-06-16T11:45:28Z</time>
      </trkpt>
      <trkpt lat="45.49593" lon="5.88562">
        <ele>1313.3</ele>
        <time>2019-06-16T11:45:38Z</time>
      </trkpt>
      <trkpt lat="45.49593" lon="5.88543">
        <ele>1312.82</ele>
        <time>2019-06-16T11:45:51Z</time>
      </trkpt>
      <trkpt lat="45.49585" lon="5.8853">
        <ele>1313.3</ele>
        <time>2019-06-16T11:46:06Z</time>
      </trkpt>
      <trkpt lat="45.49571" lon="5.8852">
        <ele>1310.9</ele>
        <time>2019-06-16T11:46:25Z</time>
      </trkpt>
      <trkpt lat="45.49563" lon="5.88498">
        <ele>1310.9</ele>
        <time>2019-06-16T11:46:43Z</time>
      </trkpt>
      <trkpt lat="45.49556" lon="5.88489">
        <ele>1313.78</ele>
        <time>2019-06-16T11:46:59Z</time>
      </trkpt>
      <trkpt lat="45.49548" lon="5.88486">
        <ele>1316.66</ele>
        <time>2019-06-16T11:47:13Z</time>
      </trkpt>
      <trkpt lat="45.49543" lon="5.88485">
        <ele>1317.62</ele>
        <time>2019-06-16T11:47:25Z</time>
      </trkpt>
      <trkpt lat="45.49539" lon="5.88487">
        <ele>1317.14</ele>
        <time>2019-06-16T11:47:43Z</time>
      </trkpt>
      <trkpt lat="45.49534" lon="5.88483">
        <ele>1319.55</ele>
        <time>2019-06-16T11:48:07Z</time>
      </trkpt>
      <trkpt lat="45.49542" lon="5.88479">
        <ele>1322.91</ele>
        <time>2019-06-16T11:48:23Z</time>
      </trkpt>
      <trkpt lat="45.49547" lon="5.88477">
        <ele>1324.83</ele>
        <time>2019-06-16T11:48:38Z</time>
      </trkpt>
      <trkpt lat="45.49545" lon="5.88466">
        <ele>1327.72</ele>
        <time>2019-06-16T11:48:55Z</time>
      </trkpt>
      <trkpt lat="45.49546" lon="5.88461">
        <ele>1329.64</ele>
        <time>2019-06-16T11:49:11Z</time>
      </trkpt>
      <trkpt lat="45.49542" lon="5.88453">
        <ele>1333.01</ele>
        <time>2019-06-16T11:49:24Z</time>
      </trkpt>
      <trkpt lat="45.49546" lon="5.88456">
        <ele>1334.45</ele>
        <time>2019-06-16T11:49:41Z</time>
      </trkpt>
      <trkpt lat="45.49548" lon="5.88452">
        <ele>1337.33</ele>
        <time>2019-06-16T11:49:56Z</time>
      </trkpt>
      <trkpt lat="45.49549" lon="5.88441">
        <ele>1339.73</ele>
        <time>2019-06-16T11:50:14Z</time>
      </trkpt>
      <trkpt lat="45.49542" lon="5.88432">
        <ele>1341.66</ele>
        <time>2019-06-16T11:50:29Z</time>
      </trkpt>
      <trkpt lat="45.49543" lon="5.88428">
        <ele>1344.54</ele>
        <time>2019-06-16T11:50:42Z</time>
      </trkpt>
      <trkpt lat="45.4954" lon="5.88419">
        <ele>1346.46</ele>
        <time>2019-06-16T11:51:01Z</time>
      </trkpt>
      <trkpt lat="45.49538" lon="5.88412">
        <ele>1348.87</ele>
        <time>2019-06-16T11:51:16Z</time>
      </trkpt>
      <trkpt lat="45.49543" lon="5.88408">
        <ele>1351.75</ele>
        <time>2019-06-16T11:51:31Z</time>
      </trkpt>
      <trkpt lat="45.49543" lon="5.884">
        <ele>1354.15</ele>
        <time>2019-06-16T11:51:48Z</time>
      </trkpt>
      <trkpt lat="45.49548" lon="5.88396">
        <ele>1356.56</ele>
        <time>2019-06-16T11:52:04Z</time>
      </trkpt>
      <trkpt lat="45.49549" lon="5.88393">
        <ele>1359.44</ele>
        <time>2019-06-16T11:52:19Z</time>
      </trkpt>
      <trkpt lat="45.49552" lon="5.88391">
        <ele>1360.88</ele>
        <time>2019-06-16T11:52:34Z</time>
      </trkpt>
      <trkpt lat="45.49554" lon="5.88385">
        <ele>1362.81</ele>
        <time>2019-06-16T11:52:50Z</time>
      </trkpt>
      <trkpt lat="45.49558" lon="5.88377">
        <ele>1365.21</ele>
        <time>2019-06-16T11:53:04Z</time>
      </trkpt>
      <trkpt lat="45.49561" lon="5.88367">
        <ele>1366.65</ele>
        <time>2019-06-16T11:53:20Z</time>
      </trkpt>
      <trkpt lat="45.49565" lon="5.88366">
        <ele>1369.54</ele>
        <time>2019-06-16T11:53:34Z</time>
      </trkpt>
      <trkpt lat="45.49567" lon="5.88368">
        <ele>1370.02</ele>
        <time>2019-06-16T11:53:49Z</time>
      </trkpt>
      <trkpt lat="45.49566" lon="5.88371">
        <ele>1370.5</ele>
        <time>2019-06-16T11:54:15Z</time>
      </trkpt>
      <trkpt lat="45.49566" lon="5.88366">
        <ele>1369.54</ele>
        <time>2019-06-16T11:54:37Z</time>
      </trkpt>
      <trkpt lat="45.49568" lon="5.88364">
        <ele>1369.54</ele>
        <time>2019-06-16T11:55:01Z</time>
      </trkpt>
      <trkpt lat="45.49568" lon="5.88363">
        <ele>1370.02</ele>
        <time>2019-06-16T11:55:20Z</time>
      </trkpt>
      <trkpt lat="45.49566" lon="5.88368">
        <ele>1369.54</ele>
        <time>2019-06-16T11:55:41Z</time>
      </trkpt>
      <trkpt lat="45.49563" lon="5.88368">
        <ele>1370.02</ele>
        <time>2019-06-16T11:56:02Z</time>
      </trkpt>
      <trkpt lat="45.49561" lon="5.88368">
        <ele>1368.57</ele>
        <time>2019-06-16T11:56:30Z</time>
      </trkpt>
      <trkpt lat="45.49559" lon="5.88366">
        <ele>1369.05</ele>
        <time>2019-06-16T11:56:57Z</time>
      </trkpt>
      <trkpt lat="45.49561" lon="5.88366">
        <ele>1369.05</ele>
        <time>2019-06-16T11:57:24Z</time>
      </trkpt>
      <trkpt lat="45.49563" lon="5.88365">
        <ele>1369.54</ele>
        <time>2019-06-16T11:57:29Z</time>
      </trkpt>
      <trkpt lat="45.49566" lon="5.88361">
        <ele>1370.5</ele>
        <time>2019-06-16T11:57:32Z</time>
      </trkpt>
      <trkpt lat="45.49572" lon="5.8835">
        <ele>1373.38</ele>
        <time>2019-06-16T11:57:46Z</time>
      </trkpt>
      <trkpt lat="45.49576" lon="5.88336">
        <ele>1375.3</ele>
        <time>2019-06-16T11:58:01Z</time>
      </trkpt>
      <trkpt lat="45.49579" lon="5.8833">
        <ele>1377.23</ele>
        <time>2019-06-16T11:58:14Z</time>
      </trkpt>
      <trkpt lat="45.49578" lon="5.88337">
        <ele>1379.63</ele>
        <time>2019-06-16T11:58:27Z</time>
      </trkpt>
      <trkpt lat="45.49585" lon="5.8834">
        <ele>1381.55</ele>
        <time>2019-06-16T11:58:41Z</time>
      </trkpt>
      <trkpt lat="45.49589" lon="5.88341">
        <ele>1384.44</ele>
        <time>2019-06-16T11:58:54Z</time>
      </trkpt>
      <trkpt lat="45.49594" lon="5.8834">
        <ele>1386.84</ele>
        <time>2019-06-16T11:59:07Z</time>
      </trkpt>
      <trkpt lat="45.496" lon="5.88335">
        <ele>1389.24</ele>
        <time>2019-06-16T11:59:21Z</time>
      </trkpt>
      <trkpt lat="45.49605" lon="5.88333">
        <ele>1392.61</ele>
        <time>2019-06-16T11:59:37Z</time>
      </trkpt>
      <trkpt lat="45.4961" lon="5.88331">
        <ele>1395.49</ele>
        <time>2019-06-16T11:59:51Z</time>
      </trkpt>
      <trkpt lat="45.49613" lon="5.88325">
        <ele>1396.93</ele>
        <time>2019-06-16T12:00:05Z</time>
      </trkpt>
      <trkpt lat="45.49616" lon="5.88322">
        <ele>1399.34</ele>
        <time>2019-06-16T12:00:18Z</time>
      </trkpt>
      <trkpt lat="45.49618" lon="5.88316">
        <ele>1401.74</ele>
        <time>2019-06-16T12:00:30Z</time>
      </trkpt>
      <trkpt lat="45.49622" lon="5.8831">
        <ele>1404.14</ele>
        <time>2019-06-16T12:00:44Z</time>
      </trkpt>
      <trkpt lat="45.49623" lon="5.88304">
        <ele>1406.55</ele>
        <time>2019-06-16T12:00:56Z</time>
      </trkpt>
      <trkpt lat="45.49624" lon="5.88295">
        <ele>1408.95</ele>
        <time>2019-06-16T12:01:10Z</time>
      </trkpt>
      <trkpt lat="45.49627" lon="5.88288">
        <ele>1411.35</ele>
        <time>2019-06-16T12:01:23Z</time>
      </trkpt>
      <trkpt lat="45.49626" lon="5.88278">
        <ele>1413.76</ele>
        <time>2019-06-16T12:01:35Z</time>
      </trkpt>
      <trkpt lat="45.49628" lon="5.88272">
        <ele>1414.72</ele>
        <time>2019-06-16T12:01:49Z</time>
      </trkpt>
      <trkpt lat="45.49627" lon="5.88273">
        <ele>1414.72</ele>
        <time>2019-06-16T12:02:14Z</time>
      </trkpt>
      <trkpt lat="45.49628" lon="5.8827">
        <ele>1414.24</ele>
        <time>2019-06-16T12:02:33Z</time>
      </trkpt>
      <trkpt lat="45.49628" lon="5.88274">
        <ele>1413.28</ele>
        <time>2019-06-16T12:02:53Z</time>
      </trkpt>
      <trkpt lat="45.49627" lon="5.88271">
        <ele>1413.76</ele>
        <time>2019-06-16T12:03:14Z</time>
      </trkpt>
      <trkpt lat="45.49627" lon="5.88275">
        <ele>1413.76</ele>
        <time>2019-06-16T12:03:44Z</time>
      </trkpt>
      <trkpt lat="45.49626" lon="5.88271">
        <ele>1413.76</ele>
        <time>2019-06-16T12:04:08Z</time>
      </trkpt>
      <trkpt lat="45.49626" lon="5.8827">
        <ele>1413.76</ele>
        <time>2019-06-16T12:04:28Z</time>
      </trkpt>
      <trkpt lat="45.49627" lon="5.88268">
        <ele>1412.79</ele>
        <time>2019-06-16T12:04:46Z</time>
      </trkpt>
      <trkpt lat="45.49627" lon="5.88271">
        <ele>1413.28</ele>
        <time>2019-06-16T12:05:12Z</time>
      </trkpt>
      <trkpt lat="45.49626" lon="5.88271">
        <ele>1412.79</ele>
        <time>2019-06-16T12:05:31Z</time>
      </trkpt>
      <trkpt lat="45.49626" lon="5.88272">
        <ele>1413.28</ele>
        <time>2019-06-16T12:05:57Z</time>
      </trkpt>
      <trkpt lat="45.49626" lon="5.88271">
        <ele>1412.79</ele>
        <time>2019-06-16T12:06:17Z</time>
      </trkpt>
      <trkpt lat="45.49626" lon="5.88274">
        <ele>1412.79</ele>
        <time>2019-06-16T12:06:45Z</time>
      </trkpt>
      <trkpt lat="45.49626" lon="5.88273">
        <ele>1412.79</ele>
        <time>2019-06-16T12:07:14Z</time>
      </trkpt>
      <trkpt lat="45.49627" lon="5.88252">
        <ele>1414.24</ele>
        <time>2019-06-16T12:07:32Z</time>
      </trkpt>
      <trkpt lat="45.4963" lon="5.88237">
        <ele>1417.12</ele>
        <time>2019-06-16T12:07:45Z</time>
      </trkpt>
      <trkpt lat="45.49634" lon="5.88227">
        <ele>1420.49</ele>
        <time>2019-06-16T12:07:58Z</time>
      </trkpt>
      <trkpt lat="45.49638" lon="5.88218">
        <ele>1422.41</ele>
        <time>2019-06-16T12:08:13Z</time>
      </trkpt>
      <trkpt lat="45.49639" lon="5.88206">
        <ele>1423.37</ele>
        <time>2019-06-16T12:08:27Z</time>
      </trkpt>
      <trkpt lat="45.49641" lon="5.882">
        <ele>1424.81</ele>
        <time>2019-06-16T12:08:42Z</time>
      </trkpt>
      <trkpt lat="45.49642" lon="5.88188">
        <ele>1426.73</ele>
        <time>2019-06-16T12:08:54Z</time>
      </trkpt>
      <trkpt lat="45.49641" lon="5.88171">
        <ele>1429.14</ele>
        <time>2019-06-16T12:09:13Z</time>
      </trkpt>
      <trkpt lat="45.49643" lon="5.88159">
        <ele>1432.02</ele>
        <time>2019-06-16T12:09:30Z</time>
      </trkpt>
      <trkpt lat="45.49643" lon="5.88153">
        <ele>1432.5</ele>
        <time>2019-06-16T12:09:46Z</time>
      </trkpt>
      <trkpt lat="45.49642" lon="5.88152">
        <ele>1432.02</ele>
        <time>2019-06-16T12:09:56Z</time>
      </trkpt>
      <trkpt lat="45.49641" lon="5.88153">
        <ele>1432.02</ele>
        <time>2019-06-16T12:10:13Z</time>
      </trkpt>
      <trkpt lat="45.4964" lon="5.88151">
        <ele>1432.5</ele>
        <time>2019-06-16T12:10:58Z</time>
      </trkpt>
      <trkpt lat="45.4964" lon="5.8815">
        <ele>1432.5</ele>
        <time>2019-06-16T12:11:12Z</time>
      </trkpt>
      <trkpt lat="45.49643" lon="5.88153">
        <ele>1432.98</ele>
        <time>2019-06-16T12:11:38Z</time>
      </trkpt>
      <trkpt lat="45.49643" lon="5.88153">
        <ele>1432.98</ele>
        <time>2019-06-16T12:11:50Z</time>
      </trkpt>
      <trkpt lat="45.49647" lon="5.88152">
        <ele>1435.87</ele>
        <time>2019-06-16T12:12:02Z</time>
      </trkpt>
      <trkpt lat="45.49649" lon="5.88141">
        <ele>1438.27</ele>
        <time>2019-06-16T12:12:17Z</time>
      </trkpt>
      <trkpt lat="45.49647" lon="5.88129">
        <ele>1439.71</ele>
        <time>2019-06-16T12:12:31Z</time>
      </trkpt>
      <trkpt lat="45.49648" lon="5.88128">
        <ele>1440.67</ele>
        <time>2019-06-16T12:12:47Z</time>
      </trkpt>
      <trkpt lat="45.4965" lon="5.8813">
        <ele>1440.67</ele>
        <time>2019-06-16T12:13:00Z</time>
      </trkpt>
      <trkpt lat="45.49648" lon="5.88135">
        <ele>1441.63</ele>
        <time>2019-06-16T12:13:15Z</time>
      </trkpt>
      <trkpt lat="45.49647" lon="5.8813">
        <ele>1439.71</ele>
        <time>2019-06-16T12:13:28Z</time>
      </trkpt>
      <trkpt lat="45.49647" lon="5.88127">
        <ele>1440.67</ele>
        <time>2019-06-16T12:13:51Z</time>
      </trkpt>
      <trkpt lat="45.49645" lon="5.88126">
        <ele>1440.67</ele>
        <time>2019-06-16T12:14:27Z</time>
      </trkpt>
      <trkpt lat="45.49645" lon="5.88128">
        <ele>1440.19</ele>
        <time>2019-06-16T12:15:03Z</time>
      </trkpt>
      <trkpt lat="45.49646" lon="5.88126">
        <ele>1440.67</ele>
        <time>2019-06-16T12:15:40Z</time>
      </trkpt>
      <trkpt lat="45.49647" lon="5.88126">
        <ele>1439.71</ele>
        <time>2019-06-16T12:16:11Z</time>
      </trkpt>
      <trkpt lat="45.49645" lon="5.88129">
        <ele>1439.71</ele>
        <time>2019-06-16T12:16:49Z</time>
      </trkpt>
      <trkpt lat="45.49647" lon="5.88128">
        <ele>1440.19</ele>
        <time>2019-06-16T12:17:26Z</time>
      </trkpt>
      <trkpt lat="45.4965" lon="5.88133">
        <ele>1440.67</ele>
        <time>2019-06-16T12:17:44Z</time>
      </trkpt>
      <trkpt lat="45.49649" lon="5.88129">
        <ele>1440.19</ele>
        <time>2019-06-16T12:18:04Z</time>
      </trkpt>
      <trkpt lat="45.49643" lon="5.8812">
        <ele>1438.27</ele>
        <time>2019-06-16T12:18:17Z</time>
      </trkpt>
      <trkpt lat="45.49639" lon="5.88112">
        <ele>1435.87</ele>
        <time>2019-06-16T12:18:29Z</time>
      </trkpt>
      <trkpt lat="45.49637" lon="5.88108">
        <ele>1435.87</ele>
        <time>2019-06-16T12:18:42Z</time>
      </trkpt>
      <trkpt lat="45.49636" lon="5.88101">
        <ele>1435.39</ele>
        <time>2019-06-16T12:18:59Z</time>
      </trkpt>
      <trkpt lat="45.49632" lon="5.88094">
        <ele>1432.98</ele>
        <time>2019-06-16T12:19:12Z</time>
      </trkpt>
      <trkpt lat="45.49629" lon="5.88091">
        <ele>1430.58</ele>
        <time>2019-06-16T12:19:28Z</time>
      </trkpt>
      <trkpt lat="45.49627" lon="5.8808">
        <ele>1428.66</ele>
        <time>2019-06-16T12:19:47Z</time>
      </trkpt>
      <trkpt lat="45.4962" lon="5.88073">
        <ele>1426.73</ele>
        <time>2019-06-16T12:20:08Z</time>
      </trkpt>
      <trkpt lat="45.49619" lon="5.88063">
        <ele>1425.29</ele>
        <time>2019-06-16T12:20:22Z</time>
      </trkpt>
      <trkpt lat="45.49617" lon="5.88051">
        <ele>1422.41</ele>
        <time>2019-06-16T12:20:37Z</time>
      </trkpt>
      <trkpt lat="45.49613" lon="5.88045">
        <ele>1421.45</ele>
        <time>2019-06-16T12:20:55Z</time>
      </trkpt>
      <trkpt lat="45.49608" lon="5.88038">
        <ele>1419.52</ele>
        <time>2019-06-16T12:21:10Z</time>
      </trkpt>
      <trkpt lat="45.49603" lon="5.88023">
        <ele>1419.04</ele>
        <time>2019-06-16T12:21:26Z</time>
      </trkpt>
      <trkpt lat="45.49596" lon="5.88012">
        <ele>1419.52</ele>
        <time>2019-06-16T12:21:40Z</time>
      </trkpt>
      <trkpt lat="45.49595" lon="5.87999">
        <ele>1420.97</ele>
        <time>2019-06-16T12:21:56Z</time>
      </trkpt>
      <trkpt lat="45.49589" lon="5.87989">
        <ele>1422.89</ele>
        <time>2019-06-16T12:22:12Z</time>
      </trkpt>
      <trkpt lat="45.49585" lon="5.87979">
        <ele>1424.33</ele>
        <time>2019-06-16T12:22:28Z</time>
      </trkpt>
      <trkpt lat="45.49582" lon="5.87971">
        <ele>1424.33</ele>
        <time>2019-06-16T12:22:41Z</time>
      </trkpt>
      <trkpt lat="45.49581" lon="5.87968">
        <ele>1424.33</ele>
        <time>2019-06-16T12:22:43Z</time>
      </trkpt>
      <trkpt lat="45.49575" lon="5.8795">
        <ele>1423.37</ele>
        <time>2019-06-16T12:22:58Z</time>
      </trkpt>
      <trkpt lat="45.49571" lon="5.87933">
        <ele>1425.29</ele>
        <time>2019-06-16T12:23:16Z</time>
      </trkpt>
      <trkpt lat="45.49561" lon="5.87916">
        <ele>1425.77</ele>
        <time>2019-06-16T12:23:35Z</time>
      </trkpt>
      <trkpt lat="45.49555" lon="5.87906">
        <ele>1427.21</ele>
        <time>2019-06-16T12:23:52Z</time>
      </trkpt>
      <trkpt lat="45.49545" lon="5.87895">
        <ele>1428.66</ele>
        <time>2019-06-16T12:24:09Z</time>
      </trkpt>
      <trkpt lat="45.4954" lon="5.8789">
        <ele>1428.18</ele>
        <time>2019-06-16T12:24:25Z</time>
      </trkpt>
      <trkpt lat="45.49536" lon="5.8788">
        <ele>1429.14</ele>
        <time>2019-06-16T12:24:41Z</time>
      </trkpt>
      <trkpt lat="45.49529" lon="5.87871">
        <ele>1428.66</ele>
        <time>2019-06-16T12:24:54Z</time>
      </trkpt>
      <trkpt lat="45.49525" lon="5.87864">
        <ele>1429.62</ele>
        <time>2019-06-16T12:25:09Z</time>
      </trkpt>
      <trkpt lat="45.49519" lon="5.87856">
        <ele>1428.66</ele>
        <time>2019-06-16T12:25:23Z</time>
      </trkpt>
      <trkpt lat="45.49514" lon="5.87847">
        <ele>1428.18</ele>
        <time>2019-06-16T12:25:35Z</time>
      </trkpt>
      <trkpt lat="45.49503" lon="5.87835">
        <ele>1427.21</ele>
        <time>2019-06-16T12:25:52Z</time>
      </trkpt>
      <trkpt lat="45.49497" lon="5.87822">
        <ele>1425.77</ele>
        <time>2019-06-16T12:26:08Z</time>
      </trkpt>
      <trkpt lat="45.49493" lon="5.87813">
        <ele>1425.29</ele>
        <time>2019-06-16T12:26:21Z</time>
      </trkpt>
      <trkpt lat="45.49491" lon="5.87821">
        <ele>1424.81</ele>
        <time>2019-06-16T12:26:54Z</time>
      </trkpt>
      <trkpt lat="45.49487" lon="5.87803">
        <ele>1426.25</ele>
        <time>2019-06-16T12:27:13Z</time>
      </trkpt>
      <trkpt lat="45.49485" lon="5.87802">
        <ele>1426.25</ele>
        <time>2019-06-16T12:27:15Z</time>
      </trkpt>
      <trkpt lat="45.49475" lon="5.87795">
        <ele>1426.73</ele>
        <time>2019-06-16T12:27:29Z</time>
      </trkpt>
      <trkpt lat="45.49465" lon="5.87788">
        <ele>1426.73</ele>
        <time>2019-06-16T12:27:45Z</time>
      </trkpt>
      <trkpt lat="45.4946" lon="5.87784">
        <ele>1425.29</ele>
        <time>2019-06-16T12:27:59Z</time>
      </trkpt>
      <trkpt lat="45.49455" lon="5.87779">
        <ele>1425.77</ele>
        <time>2019-06-16T12:28:15Z</time>
      </trkpt>
      <trkpt lat="45.49451" lon="5.87773">
        <ele>1424.81</ele>
        <time>2019-06-16T12:28:30Z</time>
      </trkpt>
      <trkpt lat="45.49445" lon="5.8777">
        <ele>1423.85</ele>
        <time>2019-06-16T12:28:46Z</time>
      </trkpt>
      <trkpt lat="45.49441" lon="5.87764">
        <ele>1422.89</ele>
        <time>2019-06-16T12:28:59Z</time>
      </trkpt>
      <trkpt lat="45.49438" lon="5.87761">
        <ele>1421.93</ele>
        <time>2019-06-16T12:29:13Z</time>
      </trkpt>
      <trkpt lat="45.49438" lon="5.87759">
        <ele>1420.97</ele>
        <time>2019-06-16T12:29:17Z</time>
      </trkpt>
      <trkpt lat="45.49431" lon="5.87752">
        <ele>1420</ele>
        <time>2019-06-16T12:29:29Z</time>
      </trkpt>
      <trkpt lat="45.4942" lon="5.8774">
        <ele>1418.56</ele>
        <time>2019-06-16T12:29:44Z</time>
      </trkpt>
      <trkpt lat="45.4941" lon="5.87731">
        <ele>1418.56</ele>
        <time>2019-06-16T12:29:58Z</time>
      </trkpt>
      <trkpt lat="45.49401" lon="5.87723">
        <ele>1416.16</ele>
        <time>2019-06-16T12:30:13Z</time>
      </trkpt>
      <trkpt lat="45.49398" lon="5.87717">
        <ele>1414.72</ele>
        <time>2019-06-16T12:30:26Z</time>
      </trkpt>
      <trkpt lat="45.49396" lon="5.87715">
        <ele>1411.83</ele>
        <time>2019-06-16T12:30:35Z</time>
      </trkpt>
      <trkpt lat="45.4939" lon="5.87706">
        <ele>1409.91</ele>
        <time>2019-06-16T12:30:43Z</time>
      </trkpt>
      <trkpt lat="45.4938" lon="5.8769">
        <ele>1410.87</ele>
        <time>2019-06-16T12:31:02Z</time>
      </trkpt>
      <trkpt lat="45.49369" lon="5.87684">
        <ele>1411.35</ele>
        <time>2019-06-16T12:31:18Z</time>
      </trkpt>
      <trkpt lat="45.49356" lon="5.87677">
        <ele>1412.79</ele>
        <time>2019-06-16T12:31:34Z</time>
      </trkpt>
      <trkpt lat="45.49347" lon="5.87675">
        <ele>1414.24</ele>
        <time>2019-06-16T12:31:50Z</time>
      </trkpt>
      <trkpt lat="45.4934" lon="5.87674">
        <ele>1414.72</ele>
        <time>2019-06-16T12:32:08Z</time>
      </trkpt>
      <trkpt lat="45.49334" lon="5.87674">
        <ele>1414.72</ele>
        <time>2019-06-16T12:32:33Z</time>
      </trkpt>
      <trkpt lat="45.49324" lon="5.87677">
        <ele>1411.35</ele>
        <time>2019-06-16T12:32:47Z</time>
      </trkpt>
      <trkpt lat="45.49315" lon="5.87677">
        <ele>1407.99</ele>
        <time>2019-06-16T12:33:00Z</time>
      </trkpt>
      <trkpt lat="45.49314" lon="5.87675">
        <ele>1407.03</ele>
        <time>2019-06-16T12:33:22Z</time>
      </trkpt>
      <trkpt lat="45.49304" lon="5.87661">
        <ele>1404.62</ele>
        <time>2019-06-16T12:33:39Z</time>
      </trkpt>
      <trkpt lat="45.49291" lon="5.87651">
        <ele>1406.07</ele>
        <time>2019-06-16T12:33:56Z</time>
      </trkpt>
      <trkpt lat="45.49287" lon="5.87646">
        <ele>1406.07</ele>
        <time>2019-06-16T12:34:12Z</time>
      </trkpt>
      <trkpt lat="45.4928" lon="5.87633">
        <ele>1402.7</ele>
        <time>2019-06-16T12:34:26Z</time>
      </trkpt>
      <trkpt lat="45.49277" lon="5.87624">
        <ele>1400.78</ele>
        <time>2019-06-16T12:34:41Z</time>
      </trkpt>
      <trkpt lat="45.49275" lon="5.8762">
        <ele>1398.86</ele>
        <time>2019-06-16T12:34:47Z</time>
      </trkpt>
      <trkpt lat="45.49272" lon="5.87613">
        <ele>1395.97</ele>
        <time>2019-06-16T12:34:56Z</time>
      </trkpt>
      <trkpt lat="45.49268" lon="5.87605">
        <ele>1393.57</ele>
        <time>2019-06-16T12:35:09Z</time>
      </trkpt>
      <trkpt lat="45.49261" lon="5.87603">
        <ele>1390.68</ele>
        <time>2019-06-16T12:35:21Z</time>
      </trkpt>
      <trkpt lat="45.49256" lon="5.87601">
        <ele>1387.32</ele>
        <time>2019-06-16T12:35:32Z</time>
      </trkpt>
      <trkpt lat="45.49243" lon="5.87593">
        <ele>1386.36</ele>
        <time>2019-06-16T12:35:49Z</time>
      </trkpt>
      <trkpt lat="45.49232" lon="5.87583">
        <ele>1387.32</ele>
        <time>2019-06-16T12:36:04Z</time>
      </trkpt>
      <trkpt lat="45.49229" lon="5.8758">
        <ele>1387.8</ele>
        <time>2019-06-16T12:36:23Z</time>
      </trkpt>
      <trkpt lat="45.49226" lon="5.87577">
        <ele>1386.84</ele>
        <time>2019-06-16T12:36:38Z</time>
      </trkpt>
      <trkpt lat="45.49222" lon="5.87575">
        <ele>1384.92</ele>
        <time>2019-06-16T12:36:43Z</time>
      </trkpt>
      <trkpt lat="45.49218" lon="5.87567">
        <ele>1381.55</ele>
        <time>2019-06-16T12:36:52Z</time>
      </trkpt>
      <trkpt lat="45.49209" lon="5.87556">
        <ele>1380.11</ele>
        <time>2019-06-16T12:37:06Z</time>
      </trkpt>
      <trkpt lat="45.492" lon="5.8755">
        <ele>1378.67</ele>
        <time>2019-06-16T12:37:20Z</time>
      </trkpt>
      <trkpt lat="45.49188" lon="5.87536">
        <ele>1380.59</ele>
        <time>2019-06-16T12:37:35Z</time>
      </trkpt>
      <trkpt lat="45.49172" lon="5.87528">
        <ele>1381.55</ele>
        <time>2019-06-16T12:37:49Z</time>
      </trkpt>
      <trkpt lat="45.49157" lon="5.87524">
        <ele>1380.59</ele>
        <time>2019-06-16T12:38:03Z</time>
      </trkpt>
      <trkpt lat="45.49141" lon="5.87523">
        <ele>1380.11</ele>
        <time>2019-06-16T12:38:17Z</time>
      </trkpt>
      <trkpt lat="45.4913" lon="5.8752">
        <ele>1381.55</ele>
        <time>2019-06-16T12:38:28Z</time>
      </trkpt>
      <trkpt lat="45.4912" lon="5.87525">
        <ele>1379.63</ele>
        <time>2019-06-16T12:38:41Z</time>
      </trkpt>
      <trkpt lat="45.49106" lon="5.87526">
        <ele>1378.67</ele>
        <time>2019-06-16T12:38:56Z</time>
      </trkpt>
      <trkpt lat="45.49097" lon="5.87529">
        <ele>1376.75</ele>
        <time>2019-06-16T12:39:06Z</time>
      </trkpt>
      <trkpt lat="45.49084" lon="5.87532">
        <ele>1375.78</ele>
        <time>2019-06-16T12:39:21Z</time>
      </trkpt>
      <trkpt lat="45.49075" lon="5.8754">
        <ele>1372.42</ele>
        <time>2019-06-16T12:39:36Z</time>
      </trkpt>
      <trkpt lat="45.49066" lon="5.87548">
        <ele>1370.02</ele>
        <time>2019-06-16T12:39:51Z</time>
      </trkpt>
      <trkpt lat="45.49057" lon="5.87549">
        <ele>1367.61</ele>
        <time>2019-06-16T12:40:07Z</time>
      </trkpt>
      <trkpt lat="45.49048" lon="5.87551">
        <ele>1364.25</ele>
        <time>2019-06-16T12:40:18Z</time>
      </trkpt>
      <trkpt lat="45.49038" lon="5.87551">
        <ele>1362.33</ele>
        <time>2019-06-16T12:40:32Z</time>
      </trkpt>
      <trkpt lat="45.49036" lon="5.87551">
        <ele>1360.88</ele>
        <time>2019-06-16T12:40:38Z</time>
      </trkpt>
      <trkpt lat="45.49028" lon="5.87554">
        <ele>1358.96</ele>
        <time>2019-06-16T12:40:51Z</time>
      </trkpt>
      <trkpt lat="45.4902" lon="5.87552">
        <ele>1358.48</ele>
        <time>2019-06-16T12:41:04Z</time>
      </trkpt>
      <trkpt lat="45.4901" lon="5.87555">
        <ele>1358.48</ele>
        <time>2019-06-16T12:41:20Z</time>
      </trkpt>
      <trkpt lat="45.48996" lon="5.87554">
        <ele>1358.96</ele>
        <time>2019-06-16T12:41:38Z</time>
      </trkpt>
      <trkpt lat="45.48984" lon="5.8755">
        <ele>1359.92</ele>
        <time>2019-06-16T12:41:57Z</time>
      </trkpt>
      <trkpt lat="45.48972" lon="5.87549">
        <ele>1359.92</ele>
        <time>2019-06-16T12:42:12Z</time>
      </trkpt>
      <trkpt lat="45.48973" lon="5.87547">
        <ele>1356.56</ele>
        <time>2019-06-16T12:42:36Z</time>
      </trkpt>
      <trkpt lat="45.48973" lon="5.87547">
        <ele>1364.25</ele>
        <time>2019-06-16T12:42:37Z</time>
      </trkpt>
      <trkpt lat="45.48973" lon="5.87547">
        <ele>1359.92</ele>
        <time>2019-06-16T12:42:38Z</time>
      </trkpt>
      <trkpt lat="45.48965" lon="5.87555">
        <ele>1360.88</ele>
        <time>2019-06-16T12:42:55Z</time>
      </trkpt>
      <trkpt lat="45.4895" lon="5.87559">
        <ele>1360.88</ele>
        <time>2019-06-16T12:43:12Z</time>
      </trkpt>
      <trkpt lat="45.48933" lon="5.87557">
        <ele>1362.81</ele>
        <time>2019-06-16T12:43:28Z</time>
      </trkpt>
      <trkpt lat="45.48928" lon="5.87558">
        <ele>1364.73</ele>
        <time>2019-06-16T12:43:32Z</time>
      </trkpt>
      <trkpt lat="45.48918" lon="5.87551">
        <ele>1367.61</ele>
        <time>2019-06-16T12:43:45Z</time>
      </trkpt>
      <trkpt lat="45.48905" lon="5.8755">
        <ele>1370.98</ele>
        <time>2019-06-16T12:43:58Z</time>
      </trkpt>
      <trkpt lat="45.48905" lon="5.8755">
        <ele>1371.46</ele>
        <time>2019-06-16T12:43:59Z</time>
      </trkpt>
      <trkpt lat="45.48889" lon="5.87546">
        <ele>1370.5</ele>
        <time>2019-06-16T12:44:17Z</time>
      </trkpt>
      <trkpt lat="45.48876" lon="5.87539">
        <ele>1369.54</ele>
        <time>2019-06-16T12:44:33Z</time>
      </trkpt>
      <trkpt lat="45.48862" lon="5.87535">
        <ele>1369.05</ele>
        <time>2019-06-16T12:44:49Z</time>
      </trkpt>
      <trkpt lat="45.48852" lon="5.87529">
        <ele>1366.65</ele>
        <time>2019-06-16T12:45:03Z</time>
      </trkpt>
      <trkpt lat="45.48844" lon="5.87527">
        <ele>1363.29</ele>
        <time>2019-06-16T12:45:14Z</time>
      </trkpt>
      <trkpt lat="45.48837" lon="5.87525">
        <ele>1359.92</ele>
        <time>2019-06-16T12:45:25Z</time>
      </trkpt>
      <trkpt lat="45.48832" lon="5.87518">
        <ele>1357.04</ele>
        <time>2019-06-16T12:45:36Z</time>
      </trkpt>
      <trkpt lat="45.48832" lon="5.87505">
        <ele>1354.15</ele>
        <time>2019-06-16T12:45:50Z</time>
      </trkpt>
      <trkpt lat="45.48831" lon="5.87494">
        <ele>1350.79</ele>
        <time>2019-06-16T12:46:02Z</time>
      </trkpt>
      <trkpt lat="45.48819" lon="5.87492">
        <ele>1348.87</ele>
        <time>2019-06-16T12:46:15Z</time>
      </trkpt>
      <trkpt lat="45.48817" lon="5.87491">
        <ele>1347.43</ele>
        <time>2019-06-16T12:46:19Z</time>
      </trkpt>
      <trkpt lat="45.48818" lon="5.87488">
        <ele>1344.06</ele>
        <time>2019-06-16T12:46:25Z</time>
      </trkpt>
      <trkpt lat="45.48818" lon="5.87488">
        <ele>1347.91</ele>
        <time>2019-06-16T12:46:26Z</time>
      </trkpt>
      <trkpt lat="45.48822" lon="5.87494">
        <ele>1341.18</ele>
        <time>2019-06-16T12:46:44Z</time>
      </trkpt>
      <trkpt lat="45.48822" lon="5.87495">
        <ele>1349.83</ele>
        <time>2019-06-16T12:46:45Z</time>
      </trkpt>
      <trkpt lat="45.48822" lon="5.87495">
        <ele>1346.46</ele>
        <time>2019-06-16T12:46:46Z</time>
      </trkpt>
      <trkpt lat="45.4882" lon="5.8749">
        <ele>1346.46</ele>
        <time>2019-06-16T12:47:14Z</time>
      </trkpt>
      <trkpt lat="45.48807" lon="5.87494">
        <ele>1346.46</ele>
        <time>2019-06-16T12:47:46Z</time>
      </trkpt>
      <trkpt lat="45.48807" lon="5.87481">
        <ele>1344.06</ele>
        <time>2019-06-16T12:48:04Z</time>
      </trkpt>
      <trkpt lat="45.48809" lon="5.87475">
        <ele>1341.66</ele>
        <time>2019-06-16T12:48:17Z</time>
      </trkpt>
      <trkpt lat="45.48803" lon="5.87467">
        <ele>1338.77</ele>
        <time>2019-06-16T12:48:29Z</time>
      </trkpt>
      <trkpt lat="45.488" lon="5.87461">
        <ele>1335.89</ele>
        <time>2019-06-16T12:48:42Z</time>
      </trkpt>
      <trkpt lat="45.48792" lon="5.87451">
        <ele>1333.49</ele>
        <time>2019-06-16T12:48:56Z</time>
      </trkpt>
      <trkpt lat="45.48786" lon="5.87442">
        <ele>1331.08</ele>
        <time>2019-06-16T12:49:10Z</time>
      </trkpt>
      <trkpt lat="45.48778" lon="5.87439">
        <ele>1330.12</ele>
        <time>2019-06-16T12:49:25Z</time>
      </trkpt>
      <trkpt lat="45.48763" lon="5.87431">
        <ele>1327.24</ele>
        <time>2019-06-16T12:49:43Z</time>
      </trkpt>
      <trkpt lat="45.4877" lon="5.87435">
        <ele>1326.76</ele>
        <time>2019-06-16T12:50:01Z</time>
      </trkpt>
      <trkpt lat="45.48766" lon="5.87428">
        <ele>1325.8</ele>
        <time>2019-06-16T12:50:30Z</time>
      </trkpt>
      <trkpt lat="45.48767" lon="5.87427">
        <ele>1326.76</ele>
        <time>2019-06-16T12:50:36Z</time>
      </trkpt>
      <trkpt lat="45.48766" lon="5.8743">
        <ele>1326.76</ele>
        <time>2019-06-16T12:50:58Z</time>
      </trkpt>
      <trkpt lat="45.48771" lon="5.87435">
        <ele>1327.24</ele>
        <time>2019-06-16T12:51:29Z</time>
      </trkpt>
      <trkpt lat="45.48768" lon="5.87428">
        <ele>1326.76</ele>
        <time>2019-06-16T12:51:59Z</time>
      </trkpt>
      <trkpt lat="45.48768" lon="5.87437">
        <ele>1327.24</ele>
        <time>2019-06-16T12:52:28Z</time>
      </trkpt>
      <trkpt lat="45.48764" lon="5.87444">
        <ele>1326.76</ele>
        <time>2019-06-16T12:52:59Z</time>
      </trkpt>
      <trkpt lat="45.48764" lon="5.87458">
        <ele>1323.39</ele>
        <time>2019-06-16T12:53:17Z</time>
      </trkpt>
      <trkpt lat="45.48759" lon="5.87471">
        <ele>1321.95</ele>
        <time>2019-06-16T12:53:28Z</time>
      </trkpt>
      <trkpt lat="45.48756" lon="5.87485">
        <ele>1321.47</ele>
        <time>2019-06-16T12:53:43Z</time>
      </trkpt>
      <trkpt lat="45.48755" lon="5.87502">
        <ele>1319.07</ele>
        <time>2019-06-16T12:53:58Z</time>
      </trkpt>
      <trkpt lat="45.48751" lon="5.87513">
        <ele>1319.07</ele>
        <time>2019-06-16T12:54:12Z</time>
      </trkpt>
      <trkpt lat="45.48746" lon="5.87518">
        <ele>1315.7</ele>
        <time>2019-06-16T12:54:22Z</time>
      </trkpt>
      <trkpt lat="45.48739" lon="5.87522">
        <ele>1312.34</ele>
        <time>2019-06-16T12:54:34Z</time>
      </trkpt>
      <trkpt lat="45.48736" lon="5.87513">
        <ele>1309.45</ele>
        <time>2019-06-16T12:54:49Z</time>
      </trkpt>
      <trkpt lat="45.48727" lon="5.87524">
        <ele>1306.09</ele>
        <time>2019-06-16T12:55:04Z</time>
      </trkpt>
      <trkpt lat="45.48721" lon="5.87528">
        <ele>1303.2</ele>
        <time>2019-06-16T12:55:17Z</time>
      </trkpt>
      <trkpt lat="45.48721" lon="5.87526">
        <ele>1299.84</ele>
        <time>2019-06-16T12:55:29Z</time>
      </trkpt>
      <trkpt lat="45.4871" lon="5.87531">
        <ele>1295.99</ele>
        <time>2019-06-16T12:55:43Z</time>
      </trkpt>
      <trkpt lat="45.48704" lon="5.8754">
        <ele>1293.11</ele>
        <time>2019-06-16T12:55:58Z</time>
      </trkpt>
      <trkpt lat="45.48702" lon="5.87549">
        <ele>1291.19</ele>
        <time>2019-06-16T12:56:09Z</time>
      </trkpt>
      <trkpt lat="45.48699" lon="5.87565">
        <ele>1288.3</ele>
        <time>2019-06-16T12:56:26Z</time>
      </trkpt>
      <trkpt lat="45.48694" lon="5.87562">
        <ele>1286.38</ele>
        <time>2019-06-16T12:56:43Z</time>
      </trkpt>
      <trkpt lat="45.48693" lon="5.8756">
        <ele>1283.5</ele>
        <time>2019-06-16T12:56:53Z</time>
      </trkpt>
      <trkpt lat="45.48691" lon="5.87564">
        <ele>1283.02</ele>
        <time>2019-06-16T12:56:57Z</time>
      </trkpt>
      <trkpt lat="45.48689" lon="5.87581">
        <ele>1279.65</ele>
        <time>2019-06-16T12:57:09Z</time>
      </trkpt>
      <trkpt lat="45.48686" lon="5.87585">
        <ele>1277.25</ele>
        <time>2019-06-16T12:57:22Z</time>
      </trkpt>
      <trkpt lat="45.48684" lon="5.87589">
        <ele>1275.33</ele>
        <time>2019-06-16T12:57:28Z</time>
      </trkpt>
      <trkpt lat="45.48679" lon="5.87596">
        <ele>1272.92</ele>
        <time>2019-06-16T12:57:42Z</time>
      </trkpt>
      <trkpt lat="45.48669" lon="5.87593">
        <ele>1269.56</ele>
        <time>2019-06-16T12:57:57Z</time>
      </trkpt>
      <trkpt lat="45.48671" lon="5.87612">
        <ele>1267.16</ele>
        <time>2019-06-16T12:58:15Z</time>
      </trkpt>
      <trkpt lat="45.48671" lon="5.87608">
        <ele>1268.12</ele>
        <time>2019-06-16T12:58:48Z</time>
      </trkpt>
      <trkpt lat="45.48668" lon="5.87603">
        <ele>1266.67</ele>
        <time>2019-06-16T12:59:03Z</time>
      </trkpt>
      <trkpt lat="45.48662" lon="5.87599">
        <ele>1265.23</ele>
        <time>2019-06-16T12:59:10Z</time>
      </trkpt>
      <trkpt lat="45.48653" lon="5.87595">
        <ele>1262.83</ele>
        <time>2019-06-16T12:59:22Z</time>
      </trkpt>
      <trkpt lat="45.48647" lon="5.87608">
        <ele>1259.46</ele>
        <time>2019-06-16T12:59:38Z</time>
      </trkpt>
      <trkpt lat="45.48645" lon="5.87618">
        <ele>1257.54</ele>
        <time>2019-06-16T12:59:56Z</time>
      </trkpt>
      <trkpt lat="45.4864" lon="5.8763">
        <ele>1255.62</ele>
        <time>2019-06-16T13:00:09Z</time>
      </trkpt>
      <trkpt lat="45.48636" lon="5.87644">
        <ele>1252.74</ele>
        <time>2019-06-16T13:00:24Z</time>
      </trkpt>
      <trkpt lat="45.48632" lon="5.87646">
        <ele>1251.77</ele>
        <time>2019-06-16T13:00:40Z</time>
      </trkpt>
      <trkpt lat="45.48633" lon="5.87655">
        <ele>1249.85</ele>
        <time>2019-06-16T13:00:53Z</time>
      </trkpt>
      <trkpt lat="45.48634" lon="5.87646">
        <ele>1250.33</ele>
        <time>2019-06-16T13:01:05Z</time>
      </trkpt>
      <trkpt lat="45.48627" lon="5.87646">
        <ele>1249.85</ele>
        <time>2019-06-16T13:01:19Z</time>
      </trkpt>
      <trkpt lat="45.48621" lon="5.87662">
        <ele>1247.45</ele>
        <time>2019-06-16T13:01:35Z</time>
      </trkpt>
      <trkpt lat="45.48609" lon="5.87671">
        <ele>1246.97</ele>
        <time>2019-06-16T13:01:50Z</time>
      </trkpt>
      <trkpt lat="45.4861" lon="5.87687">
        <ele>1245.04</ele>
        <time>2019-06-16T13:02:03Z</time>
      </trkpt>
      <trkpt lat="45.4861" lon="5.877">
        <ele>1243.12</ele>
        <time>2019-06-16T13:02:18Z</time>
      </trkpt>
      <trkpt lat="45.48609" lon="5.87699">
        <ele>1242.64</ele>
        <time>2019-06-16T13:02:41Z</time>
      </trkpt>
      <trkpt lat="45.4861" lon="5.87704">
        <ele>1238.8</ele>
        <time>2019-06-16T13:02:59Z</time>
      </trkpt>
      <trkpt lat="45.4861" lon="5.87704">
        <ele>1246.97</ele>
        <time>2019-06-16T13:03:00Z</time>
      </trkpt>
      <trkpt lat="45.4861" lon="5.87705">
        <ele>1242.16</ele>
        <time>2019-06-16T13:03:01Z</time>
      </trkpt>
      <trkpt lat="45.48606" lon="5.87702">
        <ele>1243.12</ele>
        <time>2019-06-16T13:03:16Z</time>
      </trkpt>
      <trkpt lat="45.48596" lon="5.87713">
        <ele>1239.28</ele>
        <time>2019-06-16T13:03:31Z</time>
      </trkpt>
      <trkpt lat="45.48587" lon="5.87724">
        <ele>1236.87</ele>
        <time>2019-06-16T13:03:46Z</time>
      </trkpt>
      <trkpt lat="45.48576" lon="5.87734">
        <ele>1234.47</ele>
        <time>2019-06-16T13:04:00Z</time>
      </trkpt>
      <trkpt lat="45.48564" lon="5.87734">
        <ele>1232.55</ele>
        <time>2019-06-16T13:04:13Z</time>
      </trkpt>
      <trkpt lat="45.48545" lon="5.87736">
        <ele>1231.59</ele>
        <time>2019-06-16T13:04:28Z</time>
      </trkpt>
      <trkpt lat="45.48528" lon="5.87744">
        <ele>1229.18</ele>
        <time>2019-06-16T13:04:46Z</time>
      </trkpt>
      <trkpt lat="45.48516" lon="5.87749">
        <ele>1228.7</ele>
        <time>2019-06-16T13:05:02Z</time>
      </trkpt>
      <trkpt lat="45.48506" lon="5.8774">
        <ele>1227.74</ele>
        <time>2019-06-16T13:05:19Z</time>
      </trkpt>
      <trkpt lat="45.485" lon="5.87731">
        <ele>1226.3</ele>
        <time>2019-06-16T13:05:33Z</time>
      </trkpt>
      <trkpt lat="45.48497" lon="5.8773">
        <ele>1226.3</ele>
        <time>2019-06-16T13:06:02Z</time>
      </trkpt>
      <trkpt lat="45.4849" lon="5.87734">
        <ele>1225.82</ele>
        <time>2019-06-16T13:06:28Z</time>
      </trkpt>
      <trkpt lat="45.48481" lon="5.87741">
        <ele>1226.3</ele>
        <time>2019-06-16T13:06:42Z</time>
      </trkpt>
      <trkpt lat="45.48477" lon="5.8776">
        <ele>1227.74</ele>
        <time>2019-06-16T13:06:56Z</time>
      </trkpt>
      <trkpt lat="45.48469" lon="5.8777">
        <ele>1227.74</ele>
        <time>2019-06-16T13:07:11Z</time>
      </trkpt>
      <trkpt lat="45.48457" lon="5.87788">
        <ele>1229.66</ele>
        <time>2019-06-16T13:07:27Z</time>
      </trkpt>
      <trkpt lat="45.48454" lon="5.87791">
        <ele>1230.14</ele>
        <time>2019-06-16T13:07:31Z</time>
      </trkpt>
      <trkpt lat="45.48444" lon="5.87799">
        <ele>1232.07</ele>
        <time>2019-06-16T13:07:44Z</time>
      </trkpt>
      <trkpt lat="45.48431" lon="5.87803">
        <ele>1228.7</ele>
        <time>2019-06-16T13:07:59Z</time>
      </trkpt>
      <trkpt lat="45.48415" lon="5.87802">
        <ele>1226.3</ele>
        <time>2019-06-16T13:08:15Z</time>
      </trkpt>
      <trkpt lat="45.48402" lon="5.87804">
        <ele>1223.9</ele>
        <time>2019-06-16T13:08:26Z</time>
      </trkpt>
      <trkpt lat="45.48402" lon="5.87818">
        <ele>1221.49</ele>
        <time>2019-06-16T13:08:39Z</time>
      </trkpt>
      <trkpt lat="45.4841" lon="5.87836">
        <ele>1218.61</ele>
        <time>2019-06-16T13:08:55Z</time>
      </trkpt>
      <trkpt lat="45.48419" lon="5.87843">
        <ele>1215.24</ele>
        <time>2019-06-16T13:09:09Z</time>
      </trkpt>
      <trkpt lat="45.48424" lon="5.87857">
        <ele>1211.88</ele>
        <time>2019-06-16T13:09:21Z</time>
      </trkpt>
      <trkpt lat="45.48429" lon="5.87867">
        <ele>1208.51</ele>
        <time>2019-06-16T13:09:35Z</time>
      </trkpt>
      <trkpt lat="45.48435" lon="5.8788">
        <ele>1205.63</ele>
        <time>2019-06-16T13:09:49Z</time>
      </trkpt>
      <trkpt lat="45.48429" lon="5.87883">
        <ele>1201.79</ele>
        <time>2019-06-16T13:10:01Z</time>
      </trkpt>
      <trkpt lat="45.48419" lon="5.87884">
        <ele>1198.9</ele>
        <time>2019-06-16T13:10:15Z</time>
      </trkpt>
      <trkpt lat="45.4841" lon="5.87888">
        <ele>1196.02</ele>
        <time>2019-06-16T13:10:27Z</time>
      </trkpt>
      <trkpt lat="45.48398" lon="5.87892">
        <ele>1193.61</ele>
        <time>2019-06-16T13:10:41Z</time>
      </trkpt>
      <trkpt lat="45.48388" lon="5.87894">
        <ele>1190.25</ele>
        <time>2019-06-16T13:10:55Z</time>
      </trkpt>
      <trkpt lat="45.48379" lon="5.87914">
        <ele>1187.37</ele>
        <time>2019-06-16T13:11:11Z</time>
      </trkpt>
      <trkpt lat="45.48376" lon="5.87923">
        <ele>1186.4</ele>
        <time>2019-06-16T13:11:16Z</time>
      </trkpt>
      <trkpt lat="45.48371" lon="5.87938">
        <ele>1184.48</ele>
        <time>2019-06-16T13:11:32Z</time>
      </trkpt>
      <trkpt lat="45.48367" lon="5.87947">
        <ele>1183.04</ele>
        <time>2019-06-16T13:11:48Z</time>
      </trkpt>
      <trkpt lat="45.48361" lon="5.87945">
        <ele>1179.67</ele>
        <time>2019-06-16T13:11:59Z</time>
      </trkpt>
      <trkpt lat="45.4836" lon="5.87946">
        <ele>1179.67</ele>
        <time>2019-06-16T13:12:00Z</time>
      </trkpt>
      <trkpt lat="45.48356" lon="5.87964">
        <ele>1178.23</ele>
        <time>2019-06-16T13:12:17Z</time>
      </trkpt>
      <trkpt lat="45.48351" lon="5.8797">
        <ele>1174.39</ele>
        <time>2019-06-16T13:12:28Z</time>
      </trkpt>
      <trkpt lat="45.48346" lon="5.87984">
        <ele>1170.54</ele>
        <time>2019-06-16T13:12:42Z</time>
      </trkpt>
      <trkpt lat="45.48345" lon="5.87986">
        <ele>1171.02</ele>
        <time>2019-06-16T13:12:43Z</time>
      </trkpt>
      <trkpt lat="45.48338" lon="5.87995">
        <ele>1168.14</ele>
        <time>2019-06-16T13:12:57Z</time>
      </trkpt>
      <trkpt lat="45.48325" lon="5.88004">
        <ele>1165.74</ele>
        <time>2019-06-16T13:13:12Z</time>
      </trkpt>
      <trkpt lat="45.48315" lon="5.88012">
        <ele>1161.41</ele>
        <time>2019-06-16T13:13:28Z</time>
      </trkpt>
      <trkpt lat="45.48313" lon="5.8803">
        <ele>1159.49</ele>
        <time>2019-06-16T13:13:44Z</time>
      </trkpt>
      <trkpt lat="45.48309" lon="5.88049">
        <ele>1156.6</ele>
        <time>2019-06-16T13:13:56Z</time>
      </trkpt>
      <trkpt lat="45.48306" lon="5.88062">
        <ele>1154.2</ele>
        <time>2019-06-16T13:14:06Z</time>
      </trkpt>
      <trkpt lat="45.48303" lon="5.88074">
        <ele>1152.28</ele>
        <time>2019-06-16T13:14:14Z</time>
      </trkpt>
      <trkpt lat="45.48304" lon="5.88101">
        <ele>1148.91</ele>
        <time>2019-06-16T13:14:30Z</time>
      </trkpt>
      <trkpt lat="45.48302" lon="5.8811">
        <ele>1147.95</ele>
        <time>2019-06-16T13:14:36Z</time>
      </trkpt>
      <trkpt lat="45.48304" lon="5.88125">
        <ele>1146.51</ele>
        <time>2019-06-16T13:14:45Z</time>
      </trkpt>
      <trkpt lat="45.48305" lon="5.88146">
        <ele>1145.07</ele>
        <time>2019-06-16T13:15:02Z</time>
      </trkpt>
      <trkpt lat="45.48304" lon="5.88161">
        <ele>1143.14</ele>
        <time>2019-06-16T13:15:17Z</time>
      </trkpt>
      <trkpt lat="45.48306" lon="5.88167">
        <ele>1142.18</ele>
        <time>2019-06-16T13:15:32Z</time>
      </trkpt>
      <trkpt lat="45.48306" lon="5.88171">
        <ele>1142.18</ele>
        <time>2019-06-16T13:15:51Z</time>
      </trkpt>
      <trkpt lat="45.48302" lon="5.88171">
        <ele>1142.18</ele>
        <time>2019-06-16T13:16:15Z</time>
      </trkpt>
      <trkpt lat="45.48302" lon="5.8817">
        <ele>1142.18</ele>
        <time>2019-06-16T13:16:33Z</time>
      </trkpt>
      <trkpt lat="45.48304" lon="5.88175">
        <ele>1141.7</ele>
        <time>2019-06-16T13:16:48Z</time>
      </trkpt>
      <trkpt lat="45.483" lon="5.88196">
        <ele>1139.78</ele>
        <time>2019-06-16T13:17:03Z</time>
      </trkpt>
      <trkpt lat="45.48296" lon="5.8822">
        <ele>1137.86</ele>
        <time>2019-06-16T13:17:20Z</time>
      </trkpt>
      <trkpt lat="45.4829" lon="5.88238">
        <ele>1137.86</ele>
        <time>2019-06-16T13:17:34Z</time>
      </trkpt>
      <trkpt lat="45.48286" lon="5.88264">
        <ele>1136.9</ele>
        <time>2019-06-16T13:17:51Z</time>
      </trkpt>
      <trkpt lat="45.48283" lon="5.88282">
        <ele>1134.97</ele>
        <time>2019-06-16T13:18:04Z</time>
      </trkpt>
      <trkpt lat="45.48276" lon="5.88296">
        <ele>1132.09</ele>
        <time>2019-06-16T13:18:17Z</time>
      </trkpt>
      <trkpt lat="45.48268" lon="5.88307">
        <ele>1129.69</ele>
        <time>2019-06-16T13:18:27Z</time>
      </trkpt>
      <trkpt lat="45.48261" lon="5.8832">
        <ele>1126.8</ele>
        <time>2019-06-16T13:18:40Z</time>
      </trkpt>
      <trkpt lat="45.48254" lon="5.88335">
        <ele>1124.88</ele>
        <time>2019-06-16T13:18:53Z</time>
      </trkpt>
      <trkpt lat="45.48244" lon="5.88342">
        <ele>1122.48</ele>
        <time>2019-06-16T13:19:06Z</time>
      </trkpt>
      <trkpt lat="45.48238" lon="5.88345">
        <ele>1121.03</ele>
        <time>2019-06-16T13:19:15Z</time>
      </trkpt>
      <trkpt lat="45.48225" lon="5.88344">
        <ele>1117.19</ele>
        <time>2019-06-16T13:19:30Z</time>
      </trkpt>
      <trkpt lat="45.48214" lon="5.88343">
        <ele>1114.79</ele>
        <time>2019-06-16T13:19:45Z</time>
      </trkpt>
      <trkpt lat="45.48203" lon="5.88343">
        <ele>1111.42</ele>
        <time>2019-06-16T13:19:57Z</time>
      </trkpt>
      <trkpt lat="45.48192" lon="5.88345">
        <ele>1108.06</ele>
        <time>2019-06-16T13:20:14Z</time>
      </trkpt>
      <trkpt lat="45.48183" lon="5.88348">
        <ele>1105.65</ele>
        <time>2019-06-16T13:20:30Z</time>
      </trkpt>
      <trkpt lat="45.48172" lon="5.88352">
        <ele>1102.29</ele>
        <time>2019-06-16T13:20:44Z</time>
      </trkpt>
      <trkpt lat="45.48162" lon="5.88359">
        <ele>1099.89</ele>
        <time>2019-06-16T13:20:58Z</time>
      </trkpt>
      <trkpt lat="45.48152" lon="5.88365">
        <ele>1096.52</ele>
        <time>2019-06-16T13:21:11Z</time>
      </trkpt>
      <trkpt lat="45.48143" lon="5.88375">
        <ele>1093.16</ele>
        <time>2019-06-16T13:21:25Z</time>
      </trkpt>
      <trkpt lat="45.48138" lon="5.88385">
        <ele>1089.79</ele>
        <time>2019-06-16T13:21:38Z</time>
      </trkpt>
      <trkpt lat="45.48139" lon="5.88393">
        <ele>1089.31</ele>
        <time>2019-06-16T13:21:44Z</time>
      </trkpt>
      <trkpt lat="45.48142" lon="5.88407">
        <ele>1087.39</ele>
        <time>2019-06-16T13:21:56Z</time>
      </trkpt>
      <trkpt lat="45.48139" lon="5.88416">
        <ele>1086.91</ele>
        <time>2019-06-16T13:22:05Z</time>
      </trkpt>
      <trkpt lat="45.48134" lon="5.88426">
        <ele>1084.99</ele>
        <time>2019-06-16T13:22:16Z</time>
      </trkpt>
      <trkpt lat="45.48127" lon="5.88443">
        <ele>1083.06</ele>
        <time>2019-06-16T13:22:29Z</time>
      </trkpt>
      <trkpt lat="45.48118" lon="5.88454">
        <ele>1081.62</ele>
        <time>2019-06-16T13:22:44Z</time>
      </trkpt>
      <trkpt lat="45.48118" lon="5.88458">
        <ele>1080.66</ele>
        <time>2019-06-16T13:22:57Z</time>
      </trkpt>
      <trkpt lat="45.48113" lon="5.88458">
        <ele>1080.18</ele>
        <time>2019-06-16T13:23:10Z</time>
      </trkpt>
      <trkpt lat="45.48099" lon="5.88461">
        <ele>1077.29</ele>
        <time>2019-06-16T13:23:24Z</time>
      </trkpt>
      <trkpt lat="45.48095" lon="5.88469">
        <ele>1077.78</ele>
        <time>2019-06-16T13:23:32Z</time>
      </trkpt>
      <trkpt lat="45.4809" lon="5.88474">
        <ele>1076.33</ele>
        <time>2019-06-16T13:23:38Z</time>
      </trkpt>
      <trkpt lat="45.48087" lon="5.88478">
        <ele>1074.89</ele>
        <time>2019-06-16T13:23:42Z</time>
      </trkpt>
      <trkpt lat="45.48082" lon="5.88485">
        <ele>1074.41</ele>
        <time>2019-06-16T13:23:48Z</time>
      </trkpt>
      <trkpt lat="45.48082" lon="5.88504">
        <ele>1071.53</ele>
        <time>2019-06-16T13:24:00Z</time>
      </trkpt>
      <trkpt lat="45.48081" lon="5.88529">
        <ele>1069.6</ele>
        <time>2019-06-16T13:24:15Z</time>
      </trkpt>
      <trkpt lat="45.48082" lon="5.88537">
        <ele>1069.12</ele>
        <time>2019-06-16T13:24:20Z</time>
      </trkpt>
      <trkpt lat="45.48085" lon="5.8855">
        <ele>1065.76</ele>
        <time>2019-06-16T13:24:29Z</time>
      </trkpt>
      <trkpt lat="45.48091" lon="5.88554">
        <ele>1065.28</ele>
        <time>2019-06-16T13:24:41Z</time>
      </trkpt>
      <trkpt lat="45.48101" lon="5.8856">
        <ele>1063.84</ele>
        <time>2019-06-16T13:24:52Z</time>
      </trkpt>
      <trkpt lat="45.48107" lon="5.88568">
        <ele>1059.99</ele>
        <time>2019-06-16T13:25:04Z</time>
      </trkpt>
      <trkpt lat="45.48108" lon="5.88577">
        <ele>1059.99</ele>
        <time>2019-06-16T13:25:16Z</time>
      </trkpt>
      <trkpt lat="45.48106" lon="5.88588">
        <ele>1059.99</ele>
        <time>2019-06-16T13:25:29Z</time>
      </trkpt>
      <trkpt lat="45.48105" lon="5.8859">
        <ele>1058.55</ele>
        <time>2019-06-16T13:25:42Z</time>
      </trkpt>
      <trkpt lat="45.48106" lon="5.88592">
        <ele>1058.07</ele>
        <time>2019-06-16T13:25:48Z</time>
      </trkpt>
      <trkpt lat="45.48106" lon="5.88606">
        <ele>1058.55</ele>
        <time>2019-06-16T13:26:00Z</time>
      </trkpt>
      <trkpt lat="45.48103" lon="5.88623">
        <ele>1057.11</ele>
        <time>2019-06-16T13:26:12Z</time>
      </trkpt>
      <trkpt lat="45.481" lon="5.88625">
        <ele>1056.15</ele>
        <time>2019-06-16T13:26:26Z</time>
      </trkpt>
      <trkpt lat="45.48101" lon="5.88629">
        <ele>1051.34</ele>
        <time>2019-06-16T13:26:39Z</time>
      </trkpt>
      <trkpt lat="45.48101" lon="5.88629">
        <ele>1051.34</ele>
        <time>2019-06-16T13:26:40Z</time>
      </trkpt>
      <trkpt lat="45.48101" lon="5.8863">
        <ele>1059.03</ele>
        <time>2019-06-16T13:26:41Z</time>
      </trkpt>
      <trkpt lat="45.481" lon="5.8863">
        <ele>1056.15</ele>
        <time>2019-06-16T13:26:42Z</time>
      </trkpt>
      <trkpt lat="45.48101" lon="5.88632">
        <ele>1055.18</ele>
        <time>2019-06-16T13:26:56Z</time>
      </trkpt>
      <trkpt lat="45.48101" lon="5.88634">
        <ele>1055.67</ele>
        <time>2019-06-16T13:27:16Z</time>
      </trkpt>
      <trkpt lat="45.48101" lon="5.88635">
        <ele>1054.22</ele>
        <time>2019-06-16T13:27:21Z</time>
      </trkpt>
      <trkpt lat="45.48103" lon="5.88636">
        <ele>1055.18</ele>
        <time>2019-06-16T13:27:34Z</time>
      </trkpt>
      <trkpt lat="45.48105" lon="5.88643">
        <ele>1052.3</ele>
        <time>2019-06-16T13:27:41Z</time>
      </trkpt>
      <trkpt lat="45.48107" lon="5.88653">
        <ele>1051.34</ele>
        <time>2019-06-16T13:27:54Z</time>
      </trkpt>
      <trkpt lat="45.48111" lon="5.88661">
        <ele>1051.34</ele>
        <time>2019-06-16T13:28:11Z</time>
      </trkpt>
      <trkpt lat="45.48119" lon="5.88659">
        <ele>1049.9</ele>
        <time>2019-06-16T13:28:24Z</time>
      </trkpt>
      <trkpt lat="45.48127" lon="5.88661">
        <ele>1048.94</ele>
        <time>2019-06-16T13:28:37Z</time>
      </trkpt>
      <trkpt lat="45.48132" lon="5.88663">
        <ele>1046.05</ele>
        <time>2019-06-16T13:28:43Z</time>
      </trkpt>
      <trkpt lat="45.48141" lon="5.8866">
        <ele>1047.01</ele>
        <time>2019-06-16T13:28:55Z</time>
      </trkpt>
      <trkpt lat="45.48149" lon="5.88663">
        <ele>1045.09</ele>
        <time>2019-06-16T13:29:07Z</time>
      </trkpt>
      <trkpt lat="45.48154" lon="5.88667">
        <ele>1043.65</ele>
        <time>2019-06-16T13:29:14Z</time>
      </trkpt>
      <trkpt lat="45.48156" lon="5.8867">
        <ele>1045.09</ele>
        <time>2019-06-16T13:29:18Z</time>
      </trkpt>
      <trkpt lat="45.48158" lon="5.88671">
        <ele>1041.73</ele>
        <time>2019-06-16T13:29:21Z</time>
      </trkpt>
      <trkpt lat="45.48163" lon="5.88676">
        <ele>1040.28</ele>
        <time>2019-06-16T13:29:30Z</time>
      </trkpt>
      <trkpt lat="45.48164" lon="5.88678">
        <ele>1038.84</ele>
        <time>2019-06-16T13:29:33Z</time>
      </trkpt>
      <trkpt lat="45.48166" lon="5.88685">
        <ele>1036.92</ele>
        <time>2019-06-16T13:29:45Z</time>
      </trkpt>
      <trkpt lat="45.48172" lon="5.88685">
        <ele>1036.92</ele>
        <time>2019-06-16T13:30:02Z</time>
      </trkpt>
      <trkpt lat="45.48183" lon="5.88688">
        <ele>1036.44</ele>
        <time>2019-06-16T13:30:12Z</time>
      </trkpt>
      <trkpt lat="45.48189" lon="5.8869">
        <ele>1035.48</ele>
        <time>2019-06-16T13:30:28Z</time>
      </trkpt>
      <trkpt lat="45.48187" lon="5.88688">
        <ele>1034.52</ele>
        <time>2019-06-16T13:30:42Z</time>
      </trkpt>
      <trkpt lat="45.48185" lon="5.88683">
        <ele>1034.04</ele>
        <time>2019-06-16T13:30:46Z</time>
      </trkpt>
      <trkpt lat="45.48187" lon="5.88689">
        <ele>1033.55</ele>
        <time>2019-06-16T13:30:54Z</time>
      </trkpt>
      <trkpt lat="45.48193" lon="5.88693">
        <ele>1033.07</ele>
        <time>2019-06-16T13:31:04Z</time>
      </trkpt>
      <trkpt lat="45.482" lon="5.88693">
        <ele>1035</ele>
        <time>2019-06-16T13:31:13Z</time>
      </trkpt>
      <trkpt lat="45.48208" lon="5.88696">
        <ele>1032.11</ele>
        <time>2019-06-16T13:31:22Z</time>
      </trkpt>
      <trkpt lat="45.48216" lon="5.88707">
        <ele>1031.15</ele>
        <time>2019-06-16T13:31:36Z</time>
      </trkpt>
      <trkpt lat="45.48217" lon="5.88708">
        <ele>1030.67</ele>
        <time>2019-06-16T13:31:38Z</time>
      </trkpt>
      <trkpt lat="45.48217" lon="5.88708">
        <ele>1032.11</ele>
        <time>2019-06-16T13:31:41Z</time>
      </trkpt>
      <trkpt lat="45.48217" lon="5.88713">
        <ele>1030.67</ele>
        <time>2019-06-16T13:31:52Z</time>
      </trkpt>
      <trkpt lat="45.48218" lon="5.88714">
        <ele>1030.67</ele>
        <time>2019-06-16T13:31:53Z</time>
      </trkpt>
      <trkpt lat="45.48227" lon="5.88721">
        <ele>1032.59</ele>
        <time>2019-06-16T13:32:07Z</time>
      </trkpt>
      <trkpt lat="45.48228" lon="5.88732">
        <ele>1029.71</ele>
        <time>2019-06-16T13:32:30Z</time>
      </trkpt>
      <trkpt lat="45.48228" lon="5.88733">
        <ele>1033.07</ele>
        <time>2019-06-16T13:32:31Z</time>
      </trkpt>
      <trkpt lat="45.48228" lon="5.88734">
        <ele>1031.15</ele>
        <time>2019-06-16T13:32:35Z</time>
      </trkpt>
      <trkpt lat="45.48235" lon="5.88735">
        <ele>1030.67</ele>
        <time>2019-06-16T13:32:46Z</time>
      </trkpt>
      <trkpt lat="45.48246" lon="5.88748">
        <ele>1028.75</ele>
        <time>2019-06-16T13:33:00Z</time>
      </trkpt>
      <trkpt lat="45.4825" lon="5.88765">
        <ele>1025.86</ele>
        <time>2019-06-16T13:33:11Z</time>
      </trkpt>
      <trkpt lat="45.48251" lon="5.8877">
        <ele>1025.38</ele>
        <time>2019-06-16T13:33:16Z</time>
      </trkpt>
      <trkpt lat="45.48252" lon="5.88771">
        <ele>1024.9</ele>
        <time>2019-06-16T13:33:18Z</time>
      </trkpt>
      <trkpt lat="45.48261" lon="5.88785">
        <ele>1024.42</ele>
        <time>2019-06-16T13:33:30Z</time>
      </trkpt>
      <trkpt lat="45.48267" lon="5.88796">
        <ele>1023.46</ele>
        <time>2019-06-16T13:33:43Z</time>
      </trkpt>
      <trkpt lat="45.4827" lon="5.88799">
        <ele>1021.54</ele>
        <time>2019-06-16T13:33:48Z</time>
      </trkpt>
      <trkpt lat="45.48274" lon="5.88808">
        <ele>1023.46</ele>
        <time>2019-06-16T13:34:01Z</time>
      </trkpt>
      <trkpt lat="45.48273" lon="5.88799">
        <ele>1023.46</ele>
        <time>2019-06-16T13:34:14Z</time>
      </trkpt>
      <trkpt lat="45.48273" lon="5.88798">
        <ele>1022.02</ele>
        <time>2019-06-16T13:34:17Z</time>
      </trkpt>
      <trkpt lat="45.48269" lon="5.88795">
        <ele>1023.46</ele>
        <time>2019-06-16T13:34:24Z</time>
      </trkpt>
      <trkpt lat="45.48267" lon="5.88794">
        <ele>1020.1</ele>
        <time>2019-06-16T13:34:26Z</time>
      </trkpt>
      <trkpt lat="45.48267" lon="5.88794">
        <ele>1026.83</ele>
        <time>2019-06-16T13:34:27Z</time>
      </trkpt>
      <trkpt lat="45.48267" lon="5.88794">
        <ele>1022.5</ele>
        <time>2019-06-16T13:34:28Z</time>
      </trkpt>
      <trkpt lat="45.48274" lon="5.88812">
        <ele>1023.46</ele>
        <time>2019-06-16T13:34:45Z</time>
      </trkpt>
      <trkpt lat="45.48268" lon="5.8882">
        <ele>1025.86</ele>
        <time>2019-06-16T13:35:05Z</time>
      </trkpt>
      <trkpt lat="45.48259" lon="5.88817">
        <ele>1028.75</ele>
        <time>2019-06-16T13:35:19Z</time>
      </trkpt>
      <trkpt lat="45.48253" lon="5.88816">
        <ele>1028.27</ele>
        <time>2019-06-16T13:35:28Z</time>
      </trkpt>
      <trkpt lat="45.48252" lon="5.88816">
        <ele>1031.63</ele>
        <time>2019-06-16T13:35:32Z</time>
      </trkpt>
      <trkpt lat="45.48252" lon="5.88816">
        <ele>1031.15</ele>
        <time>2019-06-16T13:35:33Z</time>
      </trkpt>
      <trkpt lat="45.48248" lon="5.8882">
        <ele>1031.15</ele>
        <time>2019-06-16T13:35:46Z</time>
      </trkpt>
      <trkpt lat="45.48249" lon="5.88822">
        <ele>1032.11</ele>
        <time>2019-06-16T13:35:56Z</time>
      </trkpt>
      <trkpt lat="45.48248" lon="5.88823">
        <ele>1034.52</ele>
        <time>2019-06-16T13:36:00Z</time>
      </trkpt>
      <trkpt lat="45.48249" lon="5.88823">
        <ele>1035.48</ele>
        <time>2019-06-16T13:36:06Z</time>
      </trkpt>
      <trkpt lat="45.48249" lon="5.88822">
        <ele>1034.04</ele>
        <time>2019-06-16T13:36:08Z</time>
      </trkpt>
      <trkpt lat="45.48246" lon="5.8882">
        <ele>1037.4</ele>
        <time>2019-06-16T13:36:13Z</time>
      </trkpt>
      <trkpt lat="45.48245" lon="5.8882">
        <ele>1036.44</ele>
        <time>2019-06-16T13:36:14Z</time>
      </trkpt>
      <trkpt lat="45.48245" lon="5.88818">
        <ele>1034.52</ele>
        <time>2019-06-16T13:36:17Z</time>
      </trkpt>
      <trkpt lat="45.48244" lon="5.88818">
        <ele>1037.88</ele>
        <time>2019-06-16T13:36:23Z</time>
      </trkpt>
      <trkpt lat="45.48243" lon="5.88817">
        <ele>1035.96</ele>
        <time>2019-06-16T13:36:27Z</time>
      </trkpt>
      <trkpt lat="45.48236" lon="5.88813">
        <ele>1040.28</ele>
        <time>2019-06-16T13:36:40Z</time>
      </trkpt>
      <trkpt lat="45.48234" lon="5.88813">
        <ele>1039.32</ele>
        <time>2019-06-16T13:36:44Z</time>
      </trkpt>
      <trkpt lat="45.48223" lon="5.88809">
        <ele>1041.25</ele>
        <time>2019-06-16T13:37:00Z</time>
      </trkpt>
      <trkpt lat="45.48213" lon="5.88809">
        <ele>1042.69</ele>
        <time>2019-06-16T13:37:12Z</time>
      </trkpt>
      <trkpt lat="45.48209" lon="5.88812">
        <ele>1044.13</ele>
        <time>2019-06-16T13:37:26Z</time>
      </trkpt>
      <trkpt lat="45.48207" lon="5.88821">
        <ele>1045.57</ele>
        <time>2019-06-16T13:37:42Z</time>
      </trkpt>
      <trkpt lat="45.48206" lon="5.8883">
        <ele>1047.97</ele>
        <time>2019-06-16T13:37:58Z</time>
      </trkpt>
      <trkpt lat="45.48205" lon="5.88844">
        <ele>1049.42</ele>
        <time>2019-06-16T13:38:14Z</time>
      </trkpt>
      <trkpt lat="45.48206" lon="5.88862">
        <ele>1050.86</ele>
        <time>2019-06-16T13:38:27Z</time>
      </trkpt>
      <trkpt lat="45.48212" lon="5.8887">
        <ele>1050.38</ele>
        <time>2019-06-16T13:38:46Z</time>
      </trkpt>
      <trkpt lat="45.48219" lon="5.88874">
        <ele>1049.42</ele>
        <time>2019-06-16T13:39:04Z</time>
      </trkpt>
      <trkpt lat="45.48222" lon="5.88876">
        <ele>1050.38</ele>
        <time>2019-06-16T13:39:10Z</time>
      </trkpt>
      <trkpt lat="45.48233" lon="5.88885">
        <ele>1050.38</ele>
        <time>2019-06-16T13:39:25Z</time>
      </trkpt>
      <trkpt lat="45.48238" lon="5.88886">
        <ele>1048.94</ele>
        <time>2019-06-16T13:39:34Z</time>
      </trkpt>
      <trkpt lat="45.48239" lon="5.88885">
        <ele>1050.86</ele>
        <time>2019-06-16T13:39:36Z</time>
      </trkpt>
      <trkpt lat="45.4825" lon="5.88887">
        <ele>1054.22</ele>
        <time>2019-06-16T13:39:50Z</time>
      </trkpt>
      <trkpt lat="45.4825" lon="5.88887">
        <ele>1054.7</ele>
        <time>2019-06-16T13:39:51Z</time>
      </trkpt>
      <trkpt lat="45.48259" lon="5.88892">
        <ele>1055.67</ele>
        <time>2019-06-16T13:39:59Z</time>
      </trkpt>
      <trkpt lat="45.48262" lon="5.88895">
        <ele>1053.74</ele>
        <time>2019-06-16T13:40:02Z</time>
      </trkpt>
      <trkpt lat="45.48268" lon="5.88906">
        <ele>1054.7</ele>
        <time>2019-06-16T13:40:14Z</time>
      </trkpt>
      <trkpt lat="45.4827" lon="5.88908">
        <ele>1058.55</ele>
        <time>2019-06-16T13:40:18Z</time>
      </trkpt>
      <trkpt lat="45.48272" lon="5.8891">
        <ele>1055.67</ele>
        <time>2019-06-16T13:40:21Z</time>
      </trkpt>
      <trkpt lat="45.48274" lon="5.88913">
        <ele>1056.63</ele>
        <time>2019-06-16T13:40:24Z</time>
      </trkpt>
      <trkpt lat="45.4828" lon="5.88918">
        <ele>1058.07</ele>
        <time>2019-06-16T13:40:32Z</time>
      </trkpt>
      <trkpt lat="45.48287" lon="5.88925">
        <ele>1057.59</ele>
        <time>2019-06-16T13:40:43Z</time>
      </trkpt>
      <trkpt lat="45.48289" lon="5.88929">
        <ele>1058.55</ele>
        <time>2019-06-16T13:40:46Z</time>
      </trkpt>
      <trkpt lat="45.48291" lon="5.88936">
        <ele>1057.59</ele>
        <time>2019-06-16T13:40:51Z</time>
      </trkpt>
      <trkpt lat="45.48292" lon="5.8894">
        <ele>1058.07</ele>
        <time>2019-06-16T13:40:55Z</time>
      </trkpt>
      <trkpt lat="45.48296" lon="5.88951">
        <ele>1059.99</ele>
        <time>2019-06-16T13:41:04Z</time>
      </trkpt>
      <trkpt lat="45.48296" lon="5.88954">
        <ele>1061.91</ele>
        <time>2019-06-16T13:41:07Z</time>
      </trkpt>
      <trkpt lat="45.48301" lon="5.88965">
        <ele>1063.36</ele>
        <time>2019-06-16T13:41:17Z</time>
      </trkpt>
      <trkpt lat="45.48306" lon="5.88977">
        <ele>1064.32</ele>
        <time>2019-06-16T13:41:30Z</time>
      </trkpt>
      <trkpt lat="45.48307" lon="5.88983">
        <ele>1064.8</ele>
        <time>2019-06-16T13:41:36Z</time>
      </trkpt>
      <trkpt lat="45.48309" lon="5.88991">
        <ele>1065.76</ele>
        <time>2019-06-16T13:41:46Z</time>
      </trkpt>
      <trkpt lat="45.48317" lon="5.89">
        <ele>1067.2</ele>
        <time>2019-06-16T13:41:57Z</time>
      </trkpt>
      <trkpt lat="45.48319" lon="5.89011">
        <ele>1069.6</ele>
        <time>2019-06-16T13:42:09Z</time>
      </trkpt>
      <trkpt lat="45.4832" lon="5.89019">
        <ele>1071.05</ele>
        <time>2019-06-16T13:42:20Z</time>
      </trkpt>
      <trkpt lat="45.48322" lon="5.89027">
        <ele>1072.49</ele>
        <time>2019-06-16T13:42:31Z</time>
      </trkpt>
      <trkpt lat="45.48323" lon="5.89035">
        <ele>1073.45</ele>
        <time>2019-06-16T13:42:39Z</time>
      </trkpt>
      <trkpt lat="45.48324" lon="5.89044">
        <ele>1075.37</ele>
        <time>2019-06-16T13:42:51Z</time>
      </trkpt>
      <trkpt lat="45.48326" lon="5.89056">
        <ele>1076.81</ele>
        <time>2019-06-16T13:43:03Z</time>
      </trkpt>
      <trkpt lat="45.48326" lon="5.89059">
        <ele>1078.26</ele>
        <time>2019-06-16T13:43:07Z</time>
      </trkpt>
      <trkpt lat="45.48328" lon="5.89065">
        <ele>1078.74</ele>
        <time>2019-06-16T13:43:14Z</time>
      </trkpt>
      <trkpt lat="45.48336" lon="5.89066">
        <ele>1080.66</ele>
        <time>2019-06-16T13:43:26Z</time>
      </trkpt>
      <trkpt lat="45.48341" lon="5.89068">
        <ele>1081.14</ele>
        <time>2019-06-16T13:43:34Z</time>
      </trkpt>
      <trkpt lat="45.48349" lon="5.89075">
        <ele>1083.06</ele>
        <time>2019-06-16T13:43:47Z</time>
      </trkpt>
      <trkpt lat="45.48354" lon="5.89082">
        <ele>1084.99</ele>
        <time>2019-06-16T13:44:00Z</time>
      </trkpt>
      <trkpt lat="45.48356" lon="5.89092">
        <ele>1086.43</ele>
        <time>2019-06-16T13:44:14Z</time>
      </trkpt>
      <trkpt lat="45.48357" lon="5.89102">
        <ele>1088.83</ele>
        <time>2019-06-16T13:44:25Z</time>
      </trkpt>
      <trkpt lat="45.48358" lon="5.89109">
        <ele>1088.83</ele>
        <time>2019-06-16T13:44:29Z</time>
      </trkpt>
      <trkpt lat="45.48355" lon="5.89122">
        <ele>1090.27</ele>
        <time>2019-06-16T13:44:43Z</time>
      </trkpt>
      <trkpt lat="45.48353" lon="5.89131">
        <ele>1091.71</ele>
        <time>2019-06-16T13:44:54Z</time>
      </trkpt>
      <trkpt lat="45.4835" lon="5.8914">
        <ele>1094.12</ele>
        <time>2019-06-16T13:45:06Z</time>
      </trkpt>
      <trkpt lat="45.48349" lon="5.89149">
        <ele>1095.56</ele>
        <time>2019-06-16T13:45:21Z</time>
      </trkpt>
      <trkpt lat="45.48355" lon="5.89143">
        <ele>1097.96</ele>
        <time>2019-06-16T13:45:35Z</time>
      </trkpt>
      <trkpt lat="45.48358" lon="5.89134">
        <ele>1100.85</ele>
        <time>2019-06-16T13:45:53Z</time>
      </trkpt>
      <trkpt lat="45.48356" lon="5.8913">
        <ele>1100.85</ele>
        <time>2019-06-16T13:46:09Z</time>
      </trkpt>
      <trkpt lat="45.48356" lon="5.8913">
        <ele>1097.96</ele>
        <time>2019-06-16T13:46:10Z</time>
      </trkpt>
      <trkpt lat="45.48356" lon="5.8913">
        <ele>1100.85</ele>
        <time>2019-06-16T13:46:11Z</time>
      </trkpt>
      <trkpt lat="45.48356" lon="5.89129">
        <ele>1097</ele>
        <time>2019-06-16T13:46:13Z</time>
      </trkpt>
      <trkpt lat="45.48356" lon="5.89129">
        <ele>1097</ele>
        <time>2019-06-16T13:46:14Z</time>
      </trkpt>
      <trkpt lat="45.48356" lon="5.89129">
        <ele>1102.77</ele>
        <time>2019-06-16T13:46:15Z</time>
      </trkpt>
      <trkpt lat="45.48356" lon="5.89129">
        <ele>1099.4</ele>
        <time>2019-06-16T13:46:16Z</time>
      </trkpt>
      <trkpt lat="45.48354" lon="5.89128">
        <ele>1095.08</ele>
        <time>2019-06-16T13:46:19Z</time>
      </trkpt>
      <trkpt lat="45.48354" lon="5.89128">
        <ele>1105.17</ele>
        <time>2019-06-16T13:46:20Z</time>
      </trkpt>
      <trkpt lat="45.48354" lon="5.89128">
        <ele>1099.89</ele>
        <time>2019-06-16T13:46:21Z</time>
      </trkpt>
      <trkpt lat="45.48353" lon="5.89127">
        <ele>1100.37</ele>
        <time>2019-06-16T13:46:46Z</time>
      </trkpt>
      <trkpt lat="45.48361" lon="5.89132">
        <ele>1101.33</ele>
        <time>2019-06-16T13:47:00Z</time>
      </trkpt>
      <trkpt lat="45.48367" lon="5.89141">
        <ele>1101.81</ele>
        <time>2019-06-16T13:47:14Z</time>
      </trkpt>
      <trkpt lat="45.48375" lon="5.89133">
        <ele>1103.73</ele>
        <time>2019-06-16T13:47:26Z</time>
      </trkpt>
      <trkpt lat="45.48377" lon="5.89128">
        <ele>1104.69</ele>
        <time>2019-06-16T13:47:35Z</time>
      </trkpt>
      <trkpt lat="45.48383" lon="5.89116">
        <ele>1106.61</ele>
        <time>2019-06-16T13:47:52Z</time>
      </trkpt>
      <trkpt lat="45.48385" lon="5.89107">
        <ele>1107.1</ele>
        <time>2019-06-16T13:48:03Z</time>
      </trkpt>
      <trkpt lat="45.48385" lon="5.89105">
        <ele>1108.06</ele>
        <time>2019-06-16T13:48:05Z</time>
      </trkpt>
      <trkpt lat="45.48389" lon="5.89098">
        <ele>1112.38</ele>
        <time>2019-06-16T13:48:17Z</time>
      </trkpt>
      <trkpt lat="45.48389" lon="5.89098">
        <ele>1112.38</ele>
        <time>2019-06-16T13:48:18Z</time>
      </trkpt>
      <trkpt lat="45.48394" lon="5.89093">
        <ele>1115.75</ele>
        <time>2019-06-16T13:48:31Z</time>
      </trkpt>
      <trkpt lat="45.48398" lon="5.89088">
        <ele>1116.71</ele>
        <time>2019-06-16T13:48:41Z</time>
      </trkpt>
      <trkpt lat="45.48401" lon="5.89084">
        <ele>1117.19</ele>
        <time>2019-06-16T13:48:49Z</time>
      </trkpt>
      <trkpt lat="45.48405" lon="5.89075">
        <ele>1120.07</ele>
        <time>2019-06-16T13:49:02Z</time>
      </trkpt>
      <trkpt lat="45.48413" lon="5.89071">
        <ele>1122.48</ele>
        <time>2019-06-16T13:49:17Z</time>
      </trkpt>
      <trkpt lat="45.48418" lon="5.89079">
        <ele>1124.88</ele>
        <time>2019-06-16T13:49:31Z</time>
      </trkpt>
      <trkpt lat="45.48419" lon="5.89088">
        <ele>1124.88</ele>
        <time>2019-06-16T13:49:47Z</time>
      </trkpt>
      <trkpt lat="45.48419" lon="5.89089">
        <ele>1127.76</ele>
        <time>2019-06-16T13:49:48Z</time>
      </trkpt>
      <trkpt lat="45.48418" lon="5.89084">
        <ele>1125.84</ele>
        <time>2019-06-16T13:49:58Z</time>
      </trkpt>
      <trkpt lat="45.48416" lon="5.89083">
        <ele>1120.55</ele>
        <time>2019-06-16T13:50:01Z</time>
      </trkpt>
      <trkpt lat="45.48416" lon="5.89083">
        <ele>1131.13</ele>
        <time>2019-06-16T13:50:02Z</time>
      </trkpt>
      <trkpt lat="45.48415" lon="5.89083">
        <ele>1126.8</ele>
        <time>2019-06-16T13:50:03Z</time>
      </trkpt>
      <trkpt lat="45.48418" lon="5.8909">
        <ele>1126.8</ele>
        <time>2019-06-16T13:50:35Z</time>
      </trkpt>
      <trkpt lat="45.48419" lon="5.89092">
        <ele>1125.36</ele>
        <time>2019-06-16T13:50:40Z</time>
      </trkpt>
      <trkpt lat="45.4842" lon="5.89093">
        <ele>1128.73</ele>
        <time>2019-06-16T13:50:45Z</time>
      </trkpt>
      <trkpt lat="45.4842" lon="5.89094">
        <ele>1126.8</ele>
        <time>2019-06-16T13:50:47Z</time>
      </trkpt>
      <trkpt lat="45.48419" lon="5.89097">
        <ele>1128.24</ele>
        <time>2019-06-16T13:50:52Z</time>
      </trkpt>
      <trkpt lat="45.48419" lon="5.891">
        <ele>1131.61</ele>
        <time>2019-06-16T13:50:59Z</time>
      </trkpt>
      <trkpt lat="45.48427" lon="5.89097">
        <ele>1134.49</ele>
        <time>2019-06-16T13:51:13Z</time>
      </trkpt>
      <trkpt lat="45.4843" lon="5.89094">
        <ele>1136.9</ele>
        <time>2019-06-16T13:51:24Z</time>
      </trkpt>
      <trkpt lat="45.48436" lon="5.89095">
        <ele>1140.26</ele>
        <time>2019-06-16T13:51:33Z</time>
      </trkpt>
      <trkpt lat="45.48437" lon="5.89095">
        <ele>1135.45</ele>
        <time>2019-06-16T13:51:35Z</time>
      </trkpt>
      <trkpt lat="45.48437" lon="5.89095">
        <ele>1138.82</ele>
        <time>2019-06-16T13:51:38Z</time>
      </trkpt>
      <trkpt lat="45.48442" lon="5.89095">
        <ele>1139.78</ele>
        <time>2019-06-16T13:51:49Z</time>
      </trkpt>
      <trkpt lat="45.48445" lon="5.89098">
        <ele>1143.14</ele>
        <time>2019-06-16T13:51:55Z</time>
      </trkpt>
      <trkpt lat="45.48449" lon="5.89095">
        <ele>1140.26</ele>
        <time>2019-06-16T13:52:05Z</time>
      </trkpt>
      <trkpt lat="45.4845" lon="5.89094">
        <ele>1143.14</ele>
        <time>2019-06-16T13:52:06Z</time>
      </trkpt>
      <trkpt lat="45.48454" lon="5.89096">
        <ele>1146.03</ele>
        <time>2019-06-16T13:52:16Z</time>
      </trkpt>
      <trkpt lat="45.48455" lon="5.89096">
        <ele>1146.03</ele>
        <time>2019-06-16T13:52:17Z</time>
      </trkpt>
      <trkpt lat="45.48457" lon="5.89098">
        <ele>1144.59</ele>
        <time>2019-06-16T13:52:19Z</time>
      </trkpt>
      <trkpt lat="45.48461" lon="5.891">
        <ele>1146.51</ele>
        <time>2019-06-16T13:52:24Z</time>
      </trkpt>
      <trkpt lat="45.48467" lon="5.89103">
        <ele>1147.47</ele>
        <time>2019-06-16T13:52:32Z</time>
      </trkpt>
      <trkpt lat="45.48475" lon="5.89111">
        <ele>1149.39</ele>
        <time>2019-06-16T13:52:49Z</time>
      </trkpt>
      <trkpt lat="45.48481" lon="5.89122">
        <ele>1151.8</ele>
        <time>2019-06-16T13:53:04Z</time>
      </trkpt>
      <trkpt lat="45.48488" lon="5.89128">
        <ele>1154.68</ele>
        <time>2019-06-16T13:53:18Z</time>
      </trkpt>
      <trkpt lat="45.48493" lon="5.89136">
        <ele>1155.64</ele>
        <time>2019-06-16T13:53:33Z</time>
      </trkpt>
      <trkpt lat="45.48497" lon="5.89144">
        <ele>1158.05</ele>
        <time>2019-06-16T13:53:45Z</time>
      </trkpt>
      <trkpt lat="45.48503" lon="5.89147">
        <ele>1158.05</ele>
        <time>2019-06-16T13:54:14Z</time>
      </trkpt>
      <trkpt lat="45.48503" lon="5.89147">
        <ele>1151.8</ele>
        <time>2019-06-16T13:54:15Z</time>
      </trkpt>
      <trkpt lat="45.48503" lon="5.89146">
        <ele>1161.41</ele>
        <time>2019-06-16T13:54:16Z</time>
      </trkpt>
      <trkpt lat="45.48503" lon="5.89146">
        <ele>1155.64</ele>
        <time>2019-06-16T13:54:17Z</time>
      </trkpt>
      <trkpt lat="45.48502" lon="5.89145">
        <ele>1159.49</ele>
        <time>2019-06-16T13:54:25Z</time>
      </trkpt>
      <trkpt lat="45.48509" lon="5.89143">
        <ele>1157.56</ele>
        <time>2019-06-16T13:54:46Z</time>
      </trkpt>
      <trkpt lat="45.485" lon="5.89148">
        <ele>1157.08</ele>
        <time>2019-06-16T13:55:10Z</time>
      </trkpt>
      <trkpt lat="45.48502" lon="5.89143">
        <ele>1158.53</ele>
        <time>2019-06-16T13:55:27Z</time>
      </trkpt>
      <trkpt lat="45.48505" lon="5.89146">
        <ele>1158.05</ele>
        <time>2019-06-16T13:55:35Z</time>
      </trkpt>
      <trkpt lat="45.48508" lon="5.89148">
        <ele>1161.41</ele>
        <time>2019-06-16T13:55:41Z</time>
      </trkpt>
      <trkpt lat="45.48518" lon="5.89152">
        <ele>1163.33</ele>
        <time>2019-06-16T13:55:54Z</time>
      </trkpt>
      <trkpt lat="45.48525" lon="5.89146">
        <ele>1163.81</ele>
        <time>2019-06-16T13:56:06Z</time>
      </trkpt>
      <trkpt lat="45.48529" lon="5.89144">
        <ele>1168.14</ele>
        <time>2019-06-16T13:56:13Z</time>
      </trkpt>
      <trkpt lat="45.4853" lon="5.89144">
        <ele>1168.62</ele>
        <time>2019-06-16T13:56:14Z</time>
      </trkpt>
      <trkpt lat="45.4853" lon="5.89143">
        <ele>1164.29</ele>
        <time>2019-06-16T13:56:15Z</time>
      </trkpt>
      <trkpt lat="45.48531" lon="5.89143">
        <ele>1168.62</ele>
        <time>2019-06-16T13:56:16Z</time>
      </trkpt>
      <trkpt lat="45.48533" lon="5.89141">
        <ele>1164.77</ele>
        <time>2019-06-16T13:56:19Z</time>
      </trkpt>
      <trkpt lat="45.48535" lon="5.89138">
        <ele>1169.1</ele>
        <time>2019-06-16T13:56:22Z</time>
      </trkpt>
      <trkpt lat="45.48538" lon="5.89134">
        <ele>1168.14</ele>
        <time>2019-06-16T13:56:26Z</time>
      </trkpt>
      <trkpt lat="45.48543" lon="5.89126">
        <ele>1170.06</ele>
        <time>2019-06-16T13:56:39Z</time>
      </trkpt>
      <trkpt lat="45.48552" lon="5.89119">
        <ele>1172.95</ele>
        <time>2019-06-16T13:56:53Z</time>
      </trkpt>
      <trkpt lat="45.48558" lon="5.8912">
        <ele>1173.91</ele>
        <time>2019-06-16T13:57:05Z</time>
      </trkpt>
      <trkpt lat="45.48567" lon="5.8912">
        <ele>1177.27</ele>
        <time>2019-06-16T13:57:18Z</time>
      </trkpt>
      <trkpt lat="45.48572" lon="5.89122">
        <ele>1178.71</ele>
        <time>2019-06-16T13:57:28Z</time>
      </trkpt>
      <trkpt lat="45.48575" lon="5.8912">
        <ele>1180.16</ele>
        <time>2019-06-16T13:57:32Z</time>
      </trkpt>
      <trkpt lat="45.48585" lon="5.89119">
        <ele>1181.6</ele>
        <time>2019-06-16T13:57:47Z</time>
      </trkpt>
      <trkpt lat="45.48593" lon="5.89116">
        <ele>1182.08</ele>
        <time>2019-06-16T13:57:59Z</time>
      </trkpt>
      <trkpt lat="45.48602" lon="5.89116">
        <ele>1182.56</ele>
        <time>2019-06-16T13:58:12Z</time>
      </trkpt>
      <trkpt lat="45.48612" lon="5.89117">
        <ele>1185.44</ele>
        <time>2019-06-16T13:58:26Z</time>
      </trkpt>
      <trkpt lat="45.48617" lon="5.89118">
        <ele>1185.44</ele>
        <time>2019-06-16T13:58:37Z</time>
      </trkpt>
      <trkpt lat="45.48623" lon="5.89119">
        <ele>1186.4</ele>
        <time>2019-06-16T13:58:51Z</time>
      </trkpt>
      <trkpt lat="45.48633" lon="5.89121">
        <ele>1186.88</ele>
        <time>2019-06-16T13:59:03Z</time>
      </trkpt>
      <trkpt lat="45.48642" lon="5.89128">
        <ele>1186.88</ele>
        <time>2019-06-16T13:59:15Z</time>
      </trkpt>
      <trkpt lat="45.48649" lon="5.89138">
        <ele>1188.81</ele>
        <time>2019-06-16T13:59:26Z</time>
      </trkpt>
      <trkpt lat="45.48648" lon="5.89146">
        <ele>1190.73</ele>
        <time>2019-06-16T13:59:39Z</time>
      </trkpt>
      <trkpt lat="45.48643" lon="5.89145">
        <ele>1189.29</ele>
        <time>2019-06-16T14:00:01Z</time>
      </trkpt>
      <trkpt lat="45.48645" lon="5.89151">
        <ele>1190.25</ele>
        <time>2019-06-16T14:00:23Z</time>
      </trkpt>
      <trkpt lat="45.48642" lon="5.89154">
        <ele>1190.25</ele>
        <time>2019-06-16T14:00:39Z</time>
      </trkpt>
      <trkpt lat="45.48642" lon="5.89153">
        <ele>1190.25</ele>
        <time>2019-06-16T14:01:02Z</time>
      </trkpt>
      <trkpt lat="45.4864" lon="5.89152">
        <ele>1189.77</ele>
        <time>2019-06-16T14:01:22Z</time>
      </trkpt>
      <trkpt lat="45.48637" lon="5.89149">
        <ele>1189.29</ele>
        <time>2019-06-16T14:01:43Z</time>
      </trkpt>
      <trkpt lat="45.48638" lon="5.89154">
        <ele>1189.29</ele>
        <time>2019-06-16T14:02:00Z</time>
      </trkpt>
      <trkpt lat="45.48637" lon="5.89161">
        <ele>1190.25</ele>
        <time>2019-06-16T14:02:20Z</time>
      </trkpt>
      <trkpt lat="45.48634" lon="5.89172">
        <ele>1191.21</ele>
        <time>2019-06-16T14:02:33Z</time>
      </trkpt>
      <trkpt lat="45.48626" lon="5.8918">
        <ele>1190.25</ele>
        <time>2019-06-16T14:02:45Z</time>
      </trkpt>
      <trkpt lat="45.48617" lon="5.89189">
        <ele>1188.81</ele>
        <time>2019-06-16T14:02:57Z</time>
      </trkpt>
      <trkpt lat="45.48607" lon="5.89199">
        <ele>1187.85</ele>
        <time>2019-06-16T14:03:07Z</time>
      </trkpt>
      <trkpt lat="45.48601" lon="5.89212">
        <ele>1186.88</ele>
        <time>2019-06-16T14:03:19Z</time>
      </trkpt>
      <trkpt lat="45.48593" lon="5.8923">
        <ele>1186.4</ele>
        <time>2019-06-16T14:03:31Z</time>
      </trkpt>
      <trkpt lat="45.48586" lon="5.89247">
        <ele>1186.4</ele>
        <time>2019-06-16T14:03:43Z</time>
      </trkpt>
      <trkpt lat="45.48585" lon="5.89252">
        <ele>1186.4</ele>
        <time>2019-06-16T14:03:47Z</time>
      </trkpt>
      <trkpt lat="45.4858" lon="5.89272">
        <ele>1188.81</ele>
        <time>2019-06-16T14:03:59Z</time>
      </trkpt>
      <trkpt lat="45.48576" lon="5.89285">
        <ele>1188.81</ele>
        <time>2019-06-16T14:04:11Z</time>
      </trkpt>
      <trkpt lat="45.48575" lon="5.89293">
        <ele>1190.73</ele>
        <time>2019-06-16T14:04:23Z</time>
      </trkpt>
      <trkpt lat="45.48574" lon="5.89293">
        <ele>1190.25</ele>
        <time>2019-06-16T14:04:34Z</time>
      </trkpt>
      <trkpt lat="45.48574" lon="5.89285">
        <ele>1189.29</ele>
        <time>2019-06-16T14:04:54Z</time>
      </trkpt>
      <trkpt lat="45.48568" lon="5.89276">
        <ele>1190.25</ele>
        <time>2019-06-16T14:05:26Z</time>
      </trkpt>
      <trkpt lat="45.4857" lon="5.8928">
        <ele>1190.73</ele>
        <time>2019-06-16T14:05:42Z</time>
      </trkpt>
      <trkpt lat="45.48568" lon="5.89284">
        <ele>1190.25</ele>
        <time>2019-06-16T14:06:05Z</time>
      </trkpt>
      <trkpt lat="45.48571" lon="5.89299">
        <ele>1190.73</ele>
        <time>2019-06-16T14:06:27Z</time>
      </trkpt>
      <trkpt lat="45.4857" lon="5.89306">
        <ele>1192.17</ele>
        <time>2019-06-16T14:06:47Z</time>
      </trkpt>
      <trkpt lat="45.48567" lon="5.8932">
        <ele>1193.13</ele>
        <time>2019-06-16T14:06:59Z</time>
      </trkpt>
      <trkpt lat="45.48567" lon="5.89322">
        <ele>1193.13</ele>
        <time>2019-06-16T14:07:00Z</time>
      </trkpt>
      <trkpt lat="45.48565" lon="5.89337">
        <ele>1193.13</ele>
        <time>2019-06-16T14:07:14Z</time>
      </trkpt>
      <trkpt lat="45.48563" lon="5.89355">
        <ele>1193.61</ele>
        <time>2019-06-16T14:07:28Z</time>
      </trkpt>
      <trkpt lat="45.48559" lon="5.89367">
        <ele>1194.09</ele>
        <time>2019-06-16T14:07:41Z</time>
      </trkpt>
      <trkpt lat="45.4855" lon="5.8938">
        <ele>1196.02</ele>
        <time>2019-06-16T14:07:54Z</time>
      </trkpt>
      <trkpt lat="45.48546" lon="5.89389">
        <ele>1198.42</ele>
        <time>2019-06-16T14:08:05Z</time>
      </trkpt>
      <trkpt lat="45.4854" lon="5.89398">
        <ele>1198.9</ele>
        <time>2019-06-16T14:08:17Z</time>
      </trkpt>
      <trkpt lat="45.48531" lon="5.89411">
        <ele>1197.94</ele>
        <time>2019-06-16T14:08:32Z</time>
      </trkpt>
      <trkpt lat="45.48521" lon="5.89416">
        <ele>1199.38</ele>
        <time>2019-06-16T14:08:44Z</time>
      </trkpt>
      <trkpt lat="45.48513" lon="5.89421">
        <ele>1199.38</ele>
        <time>2019-06-16T14:08:57Z</time>
      </trkpt>
      <trkpt lat="45.48505" lon="5.89431">
        <ele>1200.82</ele>
        <time>2019-06-16T14:09:08Z</time>
      </trkpt>
      <trkpt lat="45.48495" lon="5.89436">
        <ele>1201.79</ele>
        <time>2019-06-16T14:09:20Z</time>
      </trkpt>
      <trkpt lat="45.48484" lon="5.89441">
        <ele>1202.75</ele>
        <time>2019-06-16T14:09:32Z</time>
      </trkpt>
      <trkpt lat="45.48475" lon="5.8945">
        <ele>1202.75</ele>
        <time>2019-06-16T14:09:45Z</time>
      </trkpt>
      <trkpt lat="45.48467" lon="5.89456">
        <ele>1203.71</ele>
        <time>2019-06-16T14:09:55Z</time>
      </trkpt>
      <trkpt lat="45.48458" lon="5.89465">
        <ele>1204.67</ele>
        <time>2019-06-16T14:10:06Z</time>
      </trkpt>
      <trkpt lat="45.4845" lon="5.89467">
        <ele>1205.15</ele>
        <time>2019-06-16T14:10:16Z</time>
      </trkpt>
      <trkpt lat="45.48443" lon="5.89474">
        <ele>1207.07</ele>
        <time>2019-06-16T14:10:26Z</time>
      </trkpt>
      <trkpt lat="45.48435" lon="5.89477">
        <ele>1208.51</ele>
        <time>2019-06-16T14:10:36Z</time>
      </trkpt>
      <trkpt lat="45.48429" lon="5.89482">
        <ele>1209</ele>
        <time>2019-06-16T14:10:46Z</time>
      </trkpt>
      <trkpt lat="45.48427" lon="5.89483">
        <ele>1210.44</ele>
        <time>2019-06-16T14:10:48Z</time>
      </trkpt>
      <trkpt lat="45.48425" lon="5.89485">
        <ele>1210.92</ele>
        <time>2019-06-16T14:10:52Z</time>
      </trkpt>
      <trkpt lat="45.48421" lon="5.89487">
        <ele>1211.4</ele>
        <time>2019-06-16T14:10:57Z</time>
      </trkpt>
      <trkpt lat="45.4842" lon="5.89487">
        <ele>1210.92</ele>
        <time>2019-06-16T14:10:58Z</time>
      </trkpt>
      <trkpt lat="45.48411" lon="5.89494">
        <ele>1212.84</ele>
        <time>2019-06-16T14:11:09Z</time>
      </trkpt>
      <trkpt lat="45.48404" lon="5.89501">
        <ele>1214.28</ele>
        <time>2019-06-16T14:11:19Z</time>
      </trkpt>
      <trkpt lat="45.484" lon="5.89509">
        <ele>1214.28</ele>
        <time>2019-06-16T14:11:33Z</time>
      </trkpt>
      <trkpt lat="45.48405" lon="5.89523">
        <ele>1213.8</ele>
        <time>2019-06-16T14:11:53Z</time>
      </trkpt>
      <trkpt lat="45.48413" lon="5.89531">
        <ele>1212.36</ele>
        <time>2019-06-16T14:12:05Z</time>
      </trkpt>
      <trkpt lat="45.4842" lon="5.89539">
        <ele>1210.92</ele>
        <time>2019-06-16T14:12:20Z</time>
      </trkpt>
      <trkpt lat="45.48429" lon="5.89547">
        <ele>1209.48</ele>
        <time>2019-06-16T14:12:32Z</time>
      </trkpt>
      <trkpt lat="45.4844" lon="5.8956">
        <ele>1207.07</ele>
        <time>2019-06-16T14:12:45Z</time>
      </trkpt>
      <trkpt lat="45.48453" lon="5.89563">
        <ele>1207.55</ele>
        <time>2019-06-16T14:12:58Z</time>
      </trkpt>
      <trkpt lat="45.48463" lon="5.89563">
        <ele>1206.59</ele>
        <time>2019-06-16T14:13:10Z</time>
      </trkpt>
      <trkpt lat="45.48472" lon="5.89568">
        <ele>1205.15</ele>
        <time>2019-06-16T14:13:22Z</time>
      </trkpt>
      <trkpt lat="45.48482" lon="5.89578">
        <ele>1203.71</ele>
        <time>2019-06-16T14:13:36Z</time>
      </trkpt>
      <trkpt lat="45.48485" lon="5.89575">
        <ele>1204.67</ele>
        <time>2019-06-16T14:13:53Z</time>
      </trkpt>
      <trkpt lat="45.4849" lon="5.89574">
        <ele>1206.59</ele>
        <time>2019-06-16T14:14:13Z</time>
      </trkpt>
      <trkpt lat="45.48496" lon="5.89574">
        <ele>1207.07</ele>
        <time>2019-06-16T14:14:27Z</time>
      </trkpt>
      <trkpt lat="45.48499" lon="5.89569">
        <ele>1208.03</ele>
        <time>2019-06-16T14:14:40Z</time>
      </trkpt>
      <trkpt lat="45.48502" lon="5.89566">
        <ele>1209.48</ele>
        <time>2019-06-16T14:14:55Z</time>
      </trkpt>
      <trkpt lat="45.48502" lon="5.89564">
        <ele>1209.48</ele>
        <time>2019-06-16T14:15:15Z</time>
      </trkpt>
      <trkpt lat="45.48501" lon="5.8957">
        <ele>1208.51</ele>
        <time>2019-06-16T14:15:31Z</time>
      </trkpt>
      <trkpt lat="45.485" lon="5.89572">
        <ele>1209.48</ele>
        <time>2019-06-16T14:16:02Z</time>
      </trkpt>
      <trkpt lat="45.485" lon="5.89559">
        <ele>1209.48</ele>
        <time>2019-06-16T14:16:35Z</time>
      </trkpt>
      <trkpt lat="45.48501" lon="5.89564">
        <ele>1209</ele>
        <time>2019-06-16T14:17:20Z</time>
      </trkpt>
      <trkpt lat="45.48506" lon="5.89564">
        <ele>1209</ele>
        <time>2019-06-16T14:17:55Z</time>
      </trkpt>
      <trkpt lat="45.485" lon="5.89562">
        <ele>1209.48</ele>
        <time>2019-06-16T14:18:17Z</time>
      </trkpt>
      <trkpt lat="45.48497" lon="5.8957">
        <ele>1209.48</ele>
        <time>2019-06-16T14:18:32Z</time>
      </trkpt>
      <trkpt lat="45.4849" lon="5.89577">
        <ele>1207.55</ele>
        <time>2019-06-16T14:18:45Z</time>
      </trkpt>
      <trkpt lat="45.48483" lon="5.89581">
        <ele>1205.15</ele>
        <time>2019-06-16T14:18:57Z</time>
      </trkpt>
      <trkpt lat="45.48481" lon="5.8959">
        <ele>1204.19</ele>
        <time>2019-06-16T14:19:13Z</time>
      </trkpt>
      <trkpt lat="45.48477" lon="5.89593">
        <ele>1203.23</ele>
        <time>2019-06-16T14:19:30Z</time>
      </trkpt>
      <trkpt lat="45.48477" lon="5.896">
        <ele>1203.71</ele>
        <time>2019-06-16T14:19:39Z</time>
      </trkpt>
      <trkpt lat="45.48472" lon="5.89612">
        <ele>1202.75</ele>
        <time>2019-06-16T14:19:50Z</time>
      </trkpt>
      <trkpt lat="45.48465" lon="5.89629">
        <ele>1201.3</ele>
        <time>2019-06-16T14:20:05Z</time>
      </trkpt>
      <trkpt lat="45.48458" lon="5.89636">
        <ele>1201.3</ele>
        <time>2019-06-16T14:20:17Z</time>
      </trkpt>
      <trkpt lat="45.48451" lon="5.89646">
        <ele>1201.3</ele>
        <time>2019-06-16T14:20:29Z</time>
      </trkpt>
      <trkpt lat="45.48437" lon="5.89655">
        <ele>1200.34</ele>
        <time>2019-06-16T14:20:43Z</time>
      </trkpt>
      <trkpt lat="45.48434" lon="5.89659">
        <ele>1200.82</ele>
        <time>2019-06-16T14:20:46Z</time>
      </trkpt>
      <trkpt lat="45.48427" lon="5.89677">
        <ele>1199.86</ele>
        <time>2019-06-16T14:20:59Z</time>
      </trkpt>
      <trkpt lat="45.48424" lon="5.89692">
        <ele>1199.38</ele>
        <time>2019-06-16T14:21:10Z</time>
      </trkpt>
      <trkpt lat="45.48419" lon="5.89706">
        <ele>1198.9</ele>
        <time>2019-06-16T14:21:20Z</time>
      </trkpt>
      <trkpt lat="45.48411" lon="5.89721">
        <ele>1198.9</ele>
        <time>2019-06-16T14:21:33Z</time>
      </trkpt>
      <trkpt lat="45.48403" lon="5.89746">
        <ele>1196.98</ele>
        <time>2019-06-16T14:21:50Z</time>
      </trkpt>
      <trkpt lat="45.48403" lon="5.89748">
        <ele>1197.94</ele>
        <time>2019-06-16T14:21:51Z</time>
      </trkpt>
      <trkpt lat="45.48397" lon="5.89767">
        <ele>1195.06</ele>
        <time>2019-06-16T14:22:07Z</time>
      </trkpt>
      <trkpt lat="45.48385" lon="5.89787">
        <ele>1191.69</ele>
        <time>2019-06-16T14:22:24Z</time>
      </trkpt>
      <trkpt lat="45.48366" lon="5.89792">
        <ele>1191.69</ele>
        <time>2019-06-16T14:22:41Z</time>
      </trkpt>
      <trkpt lat="45.48354" lon="5.89805">
        <ele>1191.21</ele>
        <time>2019-06-16T14:22:55Z</time>
      </trkpt>
      <trkpt lat="45.48339" lon="5.89818">
        <ele>1190.25</ele>
        <time>2019-06-16T14:23:11Z</time>
      </trkpt>
      <trkpt lat="45.48329" lon="5.89831">
        <ele>1189.77</ele>
        <time>2019-06-16T14:23:24Z</time>
      </trkpt>
      <trkpt lat="45.48324" lon="5.89838">
        <ele>1190.25</ele>
        <time>2019-06-16T14:23:31Z</time>
      </trkpt>
      <trkpt lat="45.48312" lon="5.89852">
        <ele>1189.29</ele>
        <time>2019-06-16T14:23:45Z</time>
      </trkpt>
      <trkpt lat="45.48298" lon="5.89864">
        <ele>1188.81</ele>
        <time>2019-06-16T14:23:59Z</time>
      </trkpt>
      <trkpt lat="45.48285" lon="5.89877">
        <ele>1187.37</ele>
        <time>2019-06-16T14:24:13Z</time>
      </trkpt>
      <trkpt lat="45.48271" lon="5.8989">
        <ele>1186.88</ele>
        <time>2019-06-16T14:24:28Z</time>
      </trkpt>
      <trkpt lat="45.48256" lon="5.899">
        <ele>1187.37</ele>
        <time>2019-06-16T14:24:42Z</time>
      </trkpt>
      <trkpt lat="45.4824" lon="5.89908">
        <ele>1188.33</ele>
        <time>2019-06-16T14:24:58Z</time>
      </trkpt>
      <trkpt lat="45.48223" lon="5.89918">
        <ele>1186.4</ele>
        <time>2019-06-16T14:25:14Z</time>
      </trkpt>
      <trkpt lat="45.4821" lon="5.89928">
        <ele>1187.37</ele>
        <time>2019-06-16T14:25:28Z</time>
      </trkpt>
      <trkpt lat="45.48194" lon="5.89938">
        <ele>1187.85</ele>
        <time>2019-06-16T14:25:44Z</time>
      </trkpt>
      <trkpt lat="45.48179" lon="5.89944">
        <ele>1187.85</ele>
        <time>2019-06-16T14:25:58Z</time>
      </trkpt>
      <trkpt lat="45.48164" lon="5.89947">
        <ele>1188.81</ele>
        <time>2019-06-16T14:26:11Z</time>
      </trkpt>
      <trkpt lat="45.48145" lon="5.89952">
        <ele>1188.33</ele>
        <time>2019-06-16T14:26:28Z</time>
      </trkpt>
      <trkpt lat="45.48137" lon="5.89957">
        <ele>1188.33</ele>
        <time>2019-06-16T14:26:35Z</time>
      </trkpt>
      <trkpt lat="45.48121" lon="5.89969">
        <ele>1187.85</ele>
        <time>2019-06-16T14:26:51Z</time>
      </trkpt>
      <trkpt lat="45.48103" lon="5.89978">
        <ele>1188.81</ele>
        <time>2019-06-16T14:27:07Z</time>
      </trkpt>
      <trkpt lat="45.4809" lon="5.89982">
        <ele>1189.29</ele>
        <time>2019-06-16T14:27:20Z</time>
      </trkpt>
      <trkpt lat="45.48076" lon="5.89988">
        <ele>1191.21</ele>
        <time>2019-06-16T14:27:35Z</time>
      </trkpt>
      <trkpt lat="45.48061" lon="5.89996">
        <ele>1192.17</ele>
        <time>2019-06-16T14:27:50Z</time>
      </trkpt>
      <trkpt lat="45.48051" lon="5.89999">
        <ele>1192.65</ele>
        <time>2019-06-16T14:28:02Z</time>
      </trkpt>
      <trkpt lat="45.48034" lon="5.90002">
        <ele>1193.61</ele>
        <time>2019-06-16T14:28:19Z</time>
      </trkpt>
      <trkpt lat="45.48023" lon="5.90005">
        <ele>1194.58</ele>
        <time>2019-06-16T14:28:30Z</time>
      </trkpt>
      <trkpt lat="45.48013" lon="5.90013">
        <ele>1195.06</ele>
        <time>2019-06-16T14:28:42Z</time>
      </trkpt>
      <trkpt lat="45.47997" lon="5.90024">
        <ele>1195.54</ele>
        <time>2019-06-16T14:29:00Z</time>
      </trkpt>
      <trkpt lat="45.47978" lon="5.90032">
        <ele>1196.02</ele>
        <time>2019-06-16T14:29:15Z</time>
      </trkpt>
      <trkpt lat="45.47965" lon="5.9003">
        <ele>1197.46</ele>
        <time>2019-06-16T14:29:27Z</time>
      </trkpt>
      <trkpt lat="45.47951" lon="5.90033">
        <ele>1196.98</ele>
        <time>2019-06-16T14:29:41Z</time>
      </trkpt>
      <trkpt lat="45.47942" lon="5.90043">
        <ele>1195.06</ele>
        <time>2019-06-16T14:29:52Z</time>
      </trkpt>
      <trkpt lat="45.4794" lon="5.90044">
        <ele>1196.5</ele>
        <time>2019-06-16T14:29:54Z</time>
      </trkpt>
      <trkpt lat="45.47926" lon="5.90048">
        <ele>1198.42</ele>
        <time>2019-06-16T14:30:09Z</time>
      </trkpt>
      <trkpt lat="45.47915" lon="5.90057">
        <ele>1199.38</ele>
        <time>2019-06-16T14:30:27Z</time>
      </trkpt>
      <trkpt lat="45.47909" lon="5.90065">
        <ele>1199.86</ele>
        <time>2019-06-16T14:30:46Z</time>
      </trkpt>
      <trkpt lat="45.47903" lon="5.90076">
        <ele>1199.38</ele>
        <time>2019-06-16T14:31:02Z</time>
      </trkpt>
      <trkpt lat="45.479" lon="5.90093">
        <ele>1199.38</ele>
        <time>2019-06-16T14:31:15Z</time>
      </trkpt>
      <trkpt lat="45.47896" lon="5.90113">
        <ele>1199.38</ele>
        <time>2019-06-16T14:31:32Z</time>
      </trkpt>
      <trkpt lat="45.4789" lon="5.9013">
        <ele>1200.34</ele>
        <time>2019-06-16T14:31:47Z</time>
      </trkpt>
      <trkpt lat="45.4789" lon="5.90133">
        <ele>1198.9</ele>
        <time>2019-06-16T14:31:49Z</time>
      </trkpt>
      <trkpt lat="45.4789" lon="5.90135">
        <ele>1200.34</ele>
        <time>2019-06-16T14:31:51Z</time>
      </trkpt>
      <trkpt lat="45.4789" lon="5.90152">
        <ele>1200.34</ele>
        <time>2019-06-16T14:32:05Z</time>
      </trkpt>
      <trkpt lat="45.47889" lon="5.90171">
        <ele>1200.34</ele>
        <time>2019-06-16T14:32:16Z</time>
      </trkpt>
      <trkpt lat="45.47887" lon="5.90188">
        <ele>1200.82</ele>
        <time>2019-06-16T14:32:28Z</time>
      </trkpt>
      <trkpt lat="45.47885" lon="5.90208">
        <ele>1200.34</ele>
        <time>2019-06-16T14:32:42Z</time>
      </trkpt>
      <trkpt lat="45.47886" lon="5.90225">
        <ele>1198.42</ele>
        <time>2019-06-16T14:32:54Z</time>
      </trkpt>
      <trkpt lat="45.47883" lon="5.90239">
        <ele>1196.98</ele>
        <time>2019-06-16T14:33:04Z</time>
      </trkpt>
      <trkpt lat="45.47878" lon="5.90268">
        <ele>1195.54</ele>
        <time>2019-06-16T14:33:20Z</time>
      </trkpt>
      <trkpt lat="45.47875" lon="5.90289">
        <ele>1195.54</ele>
        <time>2019-06-16T14:33:34Z</time>
      </trkpt>
      <trkpt lat="45.47875" lon="5.90301">
        <ele>1195.54</ele>
        <time>2019-06-16T14:33:46Z</time>
      </trkpt>
      <trkpt lat="45.47874" lon="5.90302">
        <ele>1195.06</ele>
        <time>2019-06-16T14:33:47Z</time>
      </trkpt>
      <trkpt lat="45.47874" lon="5.90307">
        <ele>1195.06</ele>
        <time>2019-06-16T14:33:51Z</time>
      </trkpt>
      <trkpt lat="45.47873" lon="5.90319">
        <ele>1195.06</ele>
        <time>2019-06-16T14:34:00Z</time>
      </trkpt>
      <trkpt lat="45.47872" lon="5.90347">
        <ele>1194.58</ele>
        <time>2019-06-16T14:34:17Z</time>
      </trkpt>
      <trkpt lat="45.47873" lon="5.90367">
        <ele>1193.61</ele>
        <time>2019-06-16T14:34:30Z</time>
      </trkpt>
      <trkpt lat="45.47874" lon="5.90389">
        <ele>1192.17</ele>
        <time>2019-06-16T14:34:44Z</time>
      </trkpt>
      <trkpt lat="45.47872" lon="5.90416">
        <ele>1189.77</ele>
        <time>2019-06-16T14:35:01Z</time>
      </trkpt>
      <trkpt lat="45.47871" lon="5.90427">
        <ele>1188.81</ele>
        <time>2019-06-16T14:35:08Z</time>
      </trkpt>
      <trkpt lat="45.4787" lon="5.90442">
        <ele>1188.33</ele>
        <time>2019-06-16T14:35:16Z</time>
      </trkpt>
      <trkpt lat="45.47868" lon="5.90466">
        <ele>1187.85</ele>
        <time>2019-06-16T14:35:30Z</time>
      </trkpt>
      <trkpt lat="45.47866" lon="5.90488">
        <ele>1187.37</ele>
        <time>2019-06-16T14:35:44Z</time>
      </trkpt>
      <trkpt lat="45.47865" lon="5.90505">
        <ele>1187.37</ele>
        <time>2019-06-16T14:35:53Z</time>
      </trkpt>
      <trkpt lat="45.47867" lon="5.9053">
        <ele>1187.37</ele>
        <time>2019-06-16T14:36:07Z</time>
      </trkpt>
      <trkpt lat="45.4787" lon="5.90553">
        <ele>1186.4</ele>
        <time>2019-06-16T14:36:21Z</time>
      </trkpt>
      <trkpt lat="45.47874" lon="5.90572">
        <ele>1187.37</ele>
        <time>2019-06-16T14:36:36Z</time>
      </trkpt>
      <trkpt lat="45.47875" lon="5.90589">
        <ele>1188.33</ele>
        <time>2019-06-16T14:36:50Z</time>
      </trkpt>
      <trkpt lat="45.47878" lon="5.90611">
        <ele>1188.81</ele>
        <time>2019-06-16T14:37:04Z</time>
      </trkpt>
      <trkpt lat="45.47879" lon="5.90618">
        <ele>1188.33</ele>
        <time>2019-06-16T14:37:08Z</time>
      </trkpt>
      <trkpt lat="45.47881" lon="5.90644">
        <ele>1186.4</ele>
        <time>2019-06-16T14:37:23Z</time>
      </trkpt>
      <trkpt lat="45.4789" lon="5.90667">
        <ele>1184.48</ele>
        <time>2019-06-16T14:37:36Z</time>
      </trkpt>
      <trkpt lat="45.47899" lon="5.90688">
        <ele>1184</ele>
        <time>2019-06-16T14:37:51Z</time>
      </trkpt>
      <trkpt lat="45.47903" lon="5.90715">
        <ele>1183.52</ele>
        <time>2019-06-16T14:38:05Z</time>
      </trkpt>
      <trkpt lat="45.47909" lon="5.90739">
        <ele>1183.52</ele>
        <time>2019-06-16T14:38:20Z</time>
      </trkpt>
      <trkpt lat="45.47913" lon="5.90756">
        <ele>1181.12</ele>
        <time>2019-06-16T14:38:32Z</time>
      </trkpt>
      <trkpt lat="45.47915" lon="5.90774">
        <ele>1179.67</ele>
        <time>2019-06-16T14:38:44Z</time>
      </trkpt>
      <trkpt lat="45.47914" lon="5.90783">
        <ele>1178.23</ele>
        <time>2019-06-16T14:38:49Z</time>
      </trkpt>
      <trkpt lat="45.47905" lon="5.90808">
        <ele>1175.83</ele>
        <time>2019-06-16T14:39:05Z</time>
      </trkpt>
      <trkpt lat="45.47905" lon="5.90828">
        <ele>1174.39</ele>
        <time>2019-06-16T14:39:19Z</time>
      </trkpt>
      <trkpt lat="45.47907" lon="5.90837">
        <ele>1173.91</ele>
        <time>2019-06-16T14:39:23Z</time>
      </trkpt>
      <trkpt lat="45.47909" lon="5.90839">
        <ele>1172.95</ele>
        <time>2019-06-16T14:39:25Z</time>
      </trkpt>
      <trkpt lat="45.47913" lon="5.90861">
        <ele>1171.98</ele>
        <time>2019-06-16T14:39:37Z</time>
      </trkpt>
      <trkpt lat="45.4792" lon="5.90876">
        <ele>1170.54</ele>
        <time>2019-06-16T14:39:49Z</time>
      </trkpt>
      <trkpt lat="45.47926" lon="5.90889">
        <ele>1169.58</ele>
        <time>2019-06-16T14:39:58Z</time>
      </trkpt>
      <trkpt lat="45.4793" lon="5.90901">
        <ele>1168.14</ele>
        <time>2019-06-16T14:40:07Z</time>
      </trkpt>
      <trkpt lat="45.47936" lon="5.90926">
        <ele>1166.7</ele>
        <time>2019-06-16T14:40:21Z</time>
      </trkpt>
      <trkpt lat="45.47939" lon="5.90948">
        <ele>1164.29</ele>
        <time>2019-06-16T14:40:35Z</time>
      </trkpt>
      <trkpt lat="45.4794" lon="5.90955">
        <ele>1164.29</ele>
        <time>2019-06-16T14:40:40Z</time>
      </trkpt>
      <trkpt lat="45.47941" lon="5.90964">
        <ele>1162.85</ele>
        <time>2019-06-16T14:40:46Z</time>
      </trkpt>
      <trkpt lat="45.47944" lon="5.90987">
        <ele>1160.93</ele>
        <time>2019-06-16T14:41:00Z</time>
      </trkpt>
      <trkpt lat="45.47948" lon="5.91006">
        <ele>1160.45</ele>
        <time>2019-06-16T14:41:15Z</time>
      </trkpt>
      <trkpt lat="45.47953" lon="5.91026">
        <ele>1159.97</ele>
        <time>2019-06-16T14:41:30Z</time>
      </trkpt>
      <trkpt lat="45.47956" lon="5.91036">
        <ele>1159.49</ele>
        <time>2019-06-16T14:41:36Z</time>
      </trkpt>
      <trkpt lat="45.47961" lon="5.91061">
        <ele>1159.49</ele>
        <time>2019-06-16T14:41:52Z</time>
      </trkpt>
      <trkpt lat="45.47966" lon="5.91081">
        <ele>1158.53</ele>
        <time>2019-06-16T14:42:06Z</time>
      </trkpt>
      <trkpt lat="45.47973" lon="5.91106">
        <ele>1157.56</ele>
        <time>2019-06-16T14:42:22Z</time>
      </trkpt>
      <trkpt lat="45.47985" lon="5.91131">
        <ele>1157.08</ele>
        <time>2019-06-16T14:42:39Z</time>
      </trkpt>
      <trkpt lat="45.47993" lon="5.91143">
        <ele>1156.6</ele>
        <time>2019-06-16T14:42:49Z</time>
      </trkpt>
      <trkpt lat="45.48003" lon="5.91162">
        <ele>1154.68</ele>
        <time>2019-06-16T14:43:05Z</time>
      </trkpt>
      <trkpt lat="45.48009" lon="5.91181">
        <ele>1152.76</ele>
        <time>2019-06-16T14:43:19Z</time>
      </trkpt>
      <trkpt lat="45.48013" lon="5.91197">
        <ele>1151.32</ele>
        <time>2019-06-16T14:43:31Z</time>
      </trkpt>
      <trkpt lat="45.48012" lon="5.9122">
        <ele>1149.39</ele>
        <time>2019-06-16T14:43:44Z</time>
      </trkpt>
      <trkpt lat="45.48013" lon="5.91232">
        <ele>1148.43</ele>
        <time>2019-06-16T14:43:50Z</time>
      </trkpt>
      <trkpt lat="45.48013" lon="5.91237">
        <ele>1147.47</ele>
        <time>2019-06-16T14:43:52Z</time>
      </trkpt>
      <trkpt lat="45.48013" lon="5.91255">
        <ele>1146.99</ele>
        <time>2019-06-16T14:44:01Z</time>
      </trkpt>
      <trkpt lat="45.48019" lon="5.91263">
        <ele>1147.47</ele>
        <time>2019-06-16T14:44:16Z</time>
      </trkpt>
      <trkpt lat="45.48019" lon="5.91258">
        <ele>1146.99</ele>
        <time>2019-06-16T14:44:50Z</time>
      </trkpt>
      <trkpt lat="45.48014" lon="5.91258">
        <ele>1145.07</ele>
        <time>2019-06-16T14:44:56Z</time>
      </trkpt>
      <trkpt lat="45.48014" lon="5.91267">
        <ele>1144.59</ele>
        <time>2019-06-16T14:45:01Z</time>
      </trkpt>
      <trkpt lat="45.48014" lon="5.91276">
        <ele>1144.11</ele>
        <time>2019-06-16T14:45:06Z</time>
      </trkpt>
      <trkpt lat="45.48014" lon="5.91288">
        <ele>1142.66</ele>
        <time>2019-06-16T14:45:11Z</time>
      </trkpt>
      <trkpt lat="45.48013" lon="5.91304">
        <ele>1141.7</ele>
        <time>2019-06-16T14:45:15Z</time>
      </trkpt>
      <trkpt lat="45.48013" lon="5.91309">
        <ele>1141.22</ele>
        <time>2019-06-16T14:45:16Z</time>
      </trkpt>
      <trkpt lat="45.48013" lon="5.91313">
        <ele>1141.22</ele>
        <time>2019-06-16T14:45:17Z</time>
      </trkpt>
      <trkpt lat="45.48005" lon="5.91349">
        <ele>1139.78</ele>
        <time>2019-06-16T14:45:26Z</time>
      </trkpt>
      <trkpt lat="45.48004" lon="5.91371">
        <ele>1138.34</ele>
        <time>2019-06-16T14:45:32Z</time>
      </trkpt>
      <trkpt lat="45.48006" lon="5.91392">
        <ele>1137.38</ele>
        <time>2019-06-16T14:45:45Z</time>
      </trkpt>
      <trkpt lat="45.48007" lon="5.91397">
        <ele>1137.38</ele>
        <time>2019-06-16T14:45:49Z</time>
      </trkpt>
      <trkpt lat="45.48009" lon="5.91423">
        <ele>1137.38</ele>
        <time>2019-06-16T14:46:04Z</time>
      </trkpt>
      <trkpt lat="45.48008" lon="5.91447">
        <ele>1136.42</ele>
        <time>2019-06-16T14:46:19Z</time>
      </trkpt>
      <trkpt lat="45.48009" lon="5.9146">
        <ele>1135.94</ele>
        <time>2019-06-16T14:46:27Z</time>
      </trkpt>
      <trkpt lat="45.48012" lon="5.91466">
        <ele>1136.42</ele>
        <time>2019-06-16T14:46:31Z</time>
      </trkpt>
      <trkpt lat="45.48016" lon="5.91474">
        <ele>1136.42</ele>
        <time>2019-06-16T14:46:37Z</time>
      </trkpt>
      <trkpt lat="45.48017" lon="5.91475">
        <ele>1136.42</ele>
        <time>2019-06-16T14:46:38Z</time>
      </trkpt>
      <trkpt lat="45.48029" lon="5.9149">
        <ele>1137.38</ele>
        <time>2019-06-16T14:46:52Z</time>
      </trkpt>
      <trkpt lat="45.48034" lon="5.91507">
        <ele>1137.38</ele>
        <time>2019-06-16T14:47:06Z</time>
      </trkpt>
      <trkpt lat="45.48033" lon="5.91511">
        <ele>1137.86</ele>
        <time>2019-06-16T14:47:09Z</time>
      </trkpt>
      <trkpt lat="45.48031" lon="5.91522">
        <ele>1137.86</ele>
        <time>2019-06-16T14:47:23Z</time>
      </trkpt>
      <trkpt lat="45.48031" lon="5.91517">
        <ele>1137.38</ele>
        <time>2019-06-16T14:47:39Z</time>
      </trkpt>
      <trkpt lat="45.48031" lon="5.91516">
        <ele>1135.94</ele>
        <time>2019-06-16T14:47:46Z</time>
      </trkpt>
      <trkpt lat="45.48031" lon="5.91516">
        <ele>1139.78</ele>
        <time>2019-06-16T14:47:50Z</time>
      </trkpt>
      <trkpt lat="45.48031" lon="5.91516">
        <ele>1135.94</ele>
        <time>2019-06-16T14:47:51Z</time>
      </trkpt>
    </trkseg>
  </trk>
</gpx>